<?xml version="1.0" encoding="UTF-8" standalone="no" ?>
<gpx xmlns="http://www.topografix.com/GPX/1/1" xmlns:xsi="http://www.w3.org/2001/XMLSchema-instance" xsi:schemaLocation="http://www.topografix.com/GPX/1/1 http://www.topografix.com/GPX/1/1/gpx.xsd" version="1.1" creator="VisuGPX - https://www.visugpx.com">
  <metadata>
    <name>Mercantour septembre 2019 programme Chamois verts</name>
  </metadata>
  <trk>
    <name><![CDATA[Lacs Bessons 150812]]></name>
    <trkseg>
      <trkpt lat="44.1096" lon="7.30676">
        <ele>1526.23</ele>
        <time>2012-08-15T07:02:59Z</time>
      </trkpt>
      <trkpt lat="44.10959" lon="7.30675">
        <ele>1530.08</ele>
        <time>2012-08-15T07:03:03Z</time>
      </trkpt>
      <trkpt lat="44.10959" lon="7.30675">
        <ele>1530.08</ele>
        <time>2012-08-15T07:03:04Z</time>
      </trkpt>
      <trkpt lat="44.10958" lon="7.30675">
        <ele>1533.92</ele>
        <time>2012-08-15T07:03:05Z</time>
      </trkpt>
      <trkpt lat="44.10958" lon="7.30675">
        <ele>1537.29</ele>
        <time>2012-08-15T07:03:06Z</time>
      </trkpt>
      <trkpt lat="44.10956" lon="7.30675">
        <ele>1540.65</ele>
        <time>2012-08-15T07:03:07Z</time>
      </trkpt>
      <trkpt lat="44.10956" lon="7.30674">
        <ele>1543.53</ele>
        <time>2012-08-15T07:03:08Z</time>
      </trkpt>
      <trkpt lat="44.10955" lon="7.30674">
        <ele>1548.82</ele>
        <time>2012-08-15T07:03:10Z</time>
      </trkpt>
      <trkpt lat="44.10954" lon="7.30674">
        <ele>1554.11</ele>
        <time>2012-08-15T07:03:12Z</time>
      </trkpt>
      <trkpt lat="44.10954" lon="7.30673">
        <ele>1558.43</ele>
        <time>2012-08-15T07:03:14Z</time>
      </trkpt>
      <trkpt lat="44.10953" lon="7.30673">
        <ele>1562.76</ele>
        <time>2012-08-15T07:03:16Z</time>
      </trkpt>
      <trkpt lat="44.10953" lon="7.30673">
        <ele>1566.12</ele>
        <time>2012-08-15T07:03:18Z</time>
      </trkpt>
      <trkpt lat="44.10952" lon="7.30673">
        <ele>1569.49</ele>
        <time>2012-08-15T07:03:20Z</time>
      </trkpt>
      <trkpt lat="44.10952" lon="7.30671">
        <ele>1573.82</ele>
        <time>2012-08-15T07:03:23Z</time>
      </trkpt>
      <trkpt lat="44.10952" lon="7.3067">
        <ele>1577.66</ele>
        <time>2012-08-15T07:03:26Z</time>
      </trkpt>
      <trkpt lat="44.10952" lon="7.3067">
        <ele>1580.54</ele>
        <time>2012-08-15T07:03:28Z</time>
      </trkpt>
      <trkpt lat="44.10952" lon="7.30669">
        <ele>1580.54</ele>
        <time>2012-08-15T07:03:29Z</time>
      </trkpt>
      <trkpt lat="44.10953" lon="7.3067">
        <ele>1583.91</ele>
        <time>2012-08-15T07:03:33Z</time>
      </trkpt>
      <trkpt lat="44.10952" lon="7.3067">
        <ele>1587.27</ele>
        <time>2012-08-15T07:03:38Z</time>
      </trkpt>
      <trkpt lat="44.10951" lon="7.30671">
        <ele>1590.64</ele>
        <time>2012-08-15T07:03:46Z</time>
      </trkpt>
      <trkpt lat="44.10951" lon="7.30671">
        <ele>1590.64</ele>
        <time>2012-08-15T07:04:13Z</time>
      </trkpt>
      <trkpt lat="44.10951" lon="7.30671">
        <ele>1590.64</ele>
        <time>2012-08-15T07:04:41Z</time>
      </trkpt>
      <trkpt lat="44.10951" lon="7.30671">
        <ele>1590.64</ele>
        <time>2012-08-15T07:05:03Z</time>
      </trkpt>
      <trkpt lat="44.10951" lon="7.30671">
        <ele>1590.64</ele>
        <time>2012-08-15T07:05:30Z</time>
      </trkpt>
      <trkpt lat="44.1095" lon="7.3067">
        <ele>1590.64</ele>
        <time>2012-08-15T07:06:00Z</time>
      </trkpt>
      <trkpt lat="44.1095" lon="7.3067">
        <ele>1590.64</ele>
        <time>2012-08-15T07:06:17Z</time>
      </trkpt>
      <trkpt lat="44.1095" lon="7.3067">
        <ele>1590.64</ele>
        <time>2012-08-15T07:06:33Z</time>
      </trkpt>
      <trkpt lat="44.10955" lon="7.30677">
        <ele>1593.04</ele>
        <time>2012-08-15T07:06:45Z</time>
      </trkpt>
      <trkpt lat="44.10963" lon="7.30689">
        <ele>1596.41</ele>
        <time>2012-08-15T07:06:57Z</time>
      </trkpt>
      <trkpt lat="44.10968" lon="7.30701">
        <ele>1598.81</ele>
        <time>2012-08-15T07:07:07Z</time>
      </trkpt>
      <trkpt lat="44.10977" lon="7.30716">
        <ele>1602.17</ele>
        <time>2012-08-15T07:07:21Z</time>
      </trkpt>
      <trkpt lat="44.10987" lon="7.30731">
        <ele>1605.54</ele>
        <time>2012-08-15T07:07:34Z</time>
      </trkpt>
      <trkpt lat="44.10998" lon="7.30749">
        <ele>1608.42</ele>
        <time>2012-08-15T07:07:51Z</time>
      </trkpt>
      <trkpt lat="44.11006" lon="7.30772">
        <ele>1609.86</ele>
        <time>2012-08-15T07:08:10Z</time>
      </trkpt>
      <trkpt lat="44.11005" lon="7.30773">
        <ele>1610.35</ele>
        <time>2012-08-15T07:08:25Z</time>
      </trkpt>
      <trkpt lat="44.11006" lon="7.30773">
        <ele>1610.35</ele>
        <time>2012-08-15T07:08:48Z</time>
      </trkpt>
      <trkpt lat="44.11008" lon="7.30776">
        <ele>1610.35</ele>
        <time>2012-08-15T07:09:16Z</time>
      </trkpt>
      <trkpt lat="44.11012" lon="7.30786">
        <ele>1610.35</ele>
        <time>2012-08-15T07:09:31Z</time>
      </trkpt>
      <trkpt lat="44.11015" lon="7.308">
        <ele>1611.31</ele>
        <time>2012-08-15T07:09:46Z</time>
      </trkpt>
      <trkpt lat="44.11014" lon="7.30814">
        <ele>1611.31</ele>
        <time>2012-08-15T07:09:59Z</time>
      </trkpt>
      <trkpt lat="44.11015" lon="7.3082">
        <ele>1611.79</ele>
        <time>2012-08-15T07:10:15Z</time>
      </trkpt>
      <trkpt lat="44.11015" lon="7.30825">
        <ele>1611.79</ele>
        <time>2012-08-15T07:10:38Z</time>
      </trkpt>
      <trkpt lat="44.11012" lon="7.30856">
        <ele>1612.75</ele>
        <time>2012-08-15T07:10:55Z</time>
      </trkpt>
      <trkpt lat="44.11013" lon="7.30882">
        <ele>1613.23</ele>
        <time>2012-08-15T07:11:12Z</time>
      </trkpt>
      <trkpt lat="44.11017" lon="7.30906">
        <ele>1613.71</ele>
        <time>2012-08-15T07:11:27Z</time>
      </trkpt>
      <trkpt lat="44.11019" lon="7.30931">
        <ele>1615.15</ele>
        <time>2012-08-15T07:11:46Z</time>
      </trkpt>
      <trkpt lat="44.11018" lon="7.30948">
        <ele>1616.11</ele>
        <time>2012-08-15T07:11:59Z</time>
      </trkpt>
      <trkpt lat="44.11021" lon="7.30975">
        <ele>1617.07</ele>
        <time>2012-08-15T07:12:16Z</time>
      </trkpt>
      <trkpt lat="44.1102" lon="7.30998">
        <ele>1618.04</ele>
        <time>2012-08-15T07:12:32Z</time>
      </trkpt>
      <trkpt lat="44.11018" lon="7.31015">
        <ele>1618.52</ele>
        <time>2012-08-15T07:12:44Z</time>
      </trkpt>
      <trkpt lat="44.11017" lon="7.31018">
        <ele>1618.52</ele>
        <time>2012-08-15T07:12:47Z</time>
      </trkpt>
      <trkpt lat="44.1102" lon="7.31041">
        <ele>1619</ele>
        <time>2012-08-15T07:13:03Z</time>
      </trkpt>
      <trkpt lat="44.11032" lon="7.31063">
        <ele>1620.44</ele>
        <time>2012-08-15T07:13:21Z</time>
      </trkpt>
      <trkpt lat="44.11035" lon="7.3107">
        <ele>1620.92</ele>
        <time>2012-08-15T07:13:28Z</time>
      </trkpt>
      <trkpt lat="44.11048" lon="7.31092">
        <ele>1621.4</ele>
        <time>2012-08-15T07:13:47Z</time>
      </trkpt>
      <trkpt lat="44.1105" lon="7.31101">
        <ele>1621.88</ele>
        <time>2012-08-15T07:14:04Z</time>
      </trkpt>
      <trkpt lat="44.1105" lon="7.31101">
        <ele>1622.36</ele>
        <time>2012-08-15T07:14:21Z</time>
      </trkpt>
      <trkpt lat="44.1105" lon="7.31101">
        <ele>1622.36</ele>
        <time>2012-08-15T07:14:47Z</time>
      </trkpt>
      <trkpt lat="44.1105" lon="7.31101">
        <ele>1622.36</ele>
        <time>2012-08-15T07:15:14Z</time>
      </trkpt>
      <trkpt lat="44.11051" lon="7.31102">
        <ele>1622.36</ele>
        <time>2012-08-15T07:15:40Z</time>
      </trkpt>
      <trkpt lat="44.11051" lon="7.31102">
        <ele>1622.36</ele>
        <time>2012-08-15T07:16:06Z</time>
      </trkpt>
      <trkpt lat="44.1105" lon="7.31103">
        <ele>1622.36</ele>
        <time>2012-08-15T07:16:37Z</time>
      </trkpt>
      <trkpt lat="44.1105" lon="7.31103">
        <ele>1622.36</ele>
        <time>2012-08-15T07:16:56Z</time>
      </trkpt>
      <trkpt lat="44.1105" lon="7.31103">
        <ele>1622.36</ele>
        <time>2012-08-15T07:17:17Z</time>
      </trkpt>
      <trkpt lat="44.11047" lon="7.31104">
        <ele>1622.36</ele>
        <time>2012-08-15T07:17:37Z</time>
      </trkpt>
      <trkpt lat="44.11044" lon="7.31111">
        <ele>1623.32</ele>
        <time>2012-08-15T07:17:49Z</time>
      </trkpt>
      <trkpt lat="44.11041" lon="7.31119">
        <ele>1625.73</ele>
        <time>2012-08-15T07:18:03Z</time>
      </trkpt>
      <trkpt lat="44.1104" lon="7.31122">
        <ele>1626.69</ele>
        <time>2012-08-15T07:18:16Z</time>
      </trkpt>
      <trkpt lat="44.1104" lon="7.31122">
        <ele>1627.65</ele>
        <time>2012-08-15T07:18:36Z</time>
      </trkpt>
      <trkpt lat="44.1104" lon="7.31137">
        <ele>1628.61</ele>
        <time>2012-08-15T07:18:52Z</time>
      </trkpt>
      <trkpt lat="44.11036" lon="7.31139">
        <ele>1629.09</ele>
        <time>2012-08-15T07:19:07Z</time>
      </trkpt>
      <trkpt lat="44.11035" lon="7.31139">
        <ele>1629.09</ele>
        <time>2012-08-15T07:19:18Z</time>
      </trkpt>
      <trkpt lat="44.1102" lon="7.31128">
        <ele>1629.57</ele>
        <time>2012-08-15T07:19:33Z</time>
      </trkpt>
      <trkpt lat="44.11012" lon="7.31124">
        <ele>1630.53</ele>
        <time>2012-08-15T07:19:44Z</time>
      </trkpt>
      <trkpt lat="44.11001" lon="7.31131">
        <ele>1631.49</ele>
        <time>2012-08-15T07:19:58Z</time>
      </trkpt>
      <trkpt lat="44.10999" lon="7.31146">
        <ele>1633.42</ele>
        <time>2012-08-15T07:20:13Z</time>
      </trkpt>
      <trkpt lat="44.10992" lon="7.31158">
        <ele>1634.86</ele>
        <time>2012-08-15T07:20:26Z</time>
      </trkpt>
      <trkpt lat="44.1099" lon="7.31168">
        <ele>1636.3</ele>
        <time>2012-08-15T07:20:37Z</time>
      </trkpt>
      <trkpt lat="44.10988" lon="7.31186">
        <ele>1638.22</ele>
        <time>2012-08-15T07:20:53Z</time>
      </trkpt>
      <trkpt lat="44.10985" lon="7.31203">
        <ele>1640.15</ele>
        <time>2012-08-15T07:21:08Z</time>
      </trkpt>
      <trkpt lat="44.1098" lon="7.3122">
        <ele>1643.03</ele>
        <time>2012-08-15T07:21:26Z</time>
      </trkpt>
      <trkpt lat="44.1098" lon="7.31226">
        <ele>1643.99</ele>
        <time>2012-08-15T07:21:40Z</time>
      </trkpt>
      <trkpt lat="44.10981" lon="7.31233">
        <ele>1643.99</ele>
        <time>2012-08-15T07:21:53Z</time>
      </trkpt>
      <trkpt lat="44.10978" lon="7.31229">
        <ele>1643.99</ele>
        <time>2012-08-15T07:22:06Z</time>
      </trkpt>
      <trkpt lat="44.10977" lon="7.31227">
        <ele>1643.99</ele>
        <time>2012-08-15T07:22:17Z</time>
      </trkpt>
      <trkpt lat="44.10977" lon="7.31227">
        <ele>1643.99</ele>
        <time>2012-08-15T07:22:44Z</time>
      </trkpt>
      <trkpt lat="44.10978" lon="7.31226">
        <ele>1644.47</ele>
        <time>2012-08-15T07:22:59Z</time>
      </trkpt>
      <trkpt lat="44.1098" lon="7.31229">
        <ele>1644.47</ele>
        <time>2012-08-15T07:23:15Z</time>
      </trkpt>
      <trkpt lat="44.10979" lon="7.31229">
        <ele>1644.47</ele>
        <time>2012-08-15T07:23:28Z</time>
      </trkpt>
      <trkpt lat="44.10979" lon="7.31229">
        <ele>1644.47</ele>
        <time>2012-08-15T07:23:55Z</time>
      </trkpt>
      <trkpt lat="44.10979" lon="7.31229">
        <ele>1644.47</ele>
        <time>2012-08-15T07:24:19Z</time>
      </trkpt>
      <trkpt lat="44.1098" lon="7.31236">
        <ele>1644.47</ele>
        <time>2012-08-15T07:24:30Z</time>
      </trkpt>
      <trkpt lat="44.10983" lon="7.3125">
        <ele>1644.47</ele>
        <time>2012-08-15T07:24:40Z</time>
      </trkpt>
      <trkpt lat="44.1098" lon="7.3127">
        <ele>1642.55</ele>
        <time>2012-08-15T07:24:55Z</time>
      </trkpt>
      <trkpt lat="44.10981" lon="7.31286">
        <ele>1641.59</ele>
        <time>2012-08-15T07:25:11Z</time>
      </trkpt>
      <trkpt lat="44.10984" lon="7.31291">
        <ele>1639.19</ele>
        <time>2012-08-15T07:25:27Z</time>
      </trkpt>
      <trkpt lat="44.10985" lon="7.31292">
        <ele>1638.22</ele>
        <time>2012-08-15T07:25:44Z</time>
      </trkpt>
      <trkpt lat="44.10985" lon="7.31292">
        <ele>1637.74</ele>
        <time>2012-08-15T07:26:01Z</time>
      </trkpt>
      <trkpt lat="44.10985" lon="7.31292">
        <ele>1637.74</ele>
        <time>2012-08-15T07:26:13Z</time>
      </trkpt>
      <trkpt lat="44.10984" lon="7.31294">
        <ele>1637.74</ele>
        <time>2012-08-15T07:26:29Z</time>
      </trkpt>
      <trkpt lat="44.10984" lon="7.31294">
        <ele>1639.19</ele>
        <time>2012-08-15T07:26:42Z</time>
      </trkpt>
      <trkpt lat="44.10984" lon="7.31294">
        <ele>1639.19</ele>
        <time>2012-08-15T07:26:55Z</time>
      </trkpt>
      <trkpt lat="44.10983" lon="7.31294">
        <ele>1639.19</ele>
        <time>2012-08-15T07:27:23Z</time>
      </trkpt>
      <trkpt lat="44.10984" lon="7.31294">
        <ele>1639.19</ele>
        <time>2012-08-15T07:27:50Z</time>
      </trkpt>
      <trkpt lat="44.10984" lon="7.31295">
        <ele>1639.19</ele>
        <time>2012-08-15T07:28:11Z</time>
      </trkpt>
      <trkpt lat="44.10985" lon="7.31294">
        <ele>1639.19</ele>
        <time>2012-08-15T07:28:29Z</time>
      </trkpt>
      <trkpt lat="44.10986" lon="7.31291">
        <ele>1638.22</ele>
        <time>2012-08-15T07:28:51Z</time>
      </trkpt>
      <trkpt lat="44.10986" lon="7.31297">
        <ele>1638.22</ele>
        <time>2012-08-15T07:29:13Z</time>
      </trkpt>
      <trkpt lat="44.10994" lon="7.31315">
        <ele>1639.67</ele>
        <time>2012-08-15T07:29:28Z</time>
      </trkpt>
      <trkpt lat="44.11" lon="7.31318">
        <ele>1642.07</ele>
        <time>2012-08-15T07:29:47Z</time>
      </trkpt>
      <trkpt lat="44.11" lon="7.31318">
        <ele>1643.51</ele>
        <time>2012-08-15T07:30:05Z</time>
      </trkpt>
      <trkpt lat="44.11014" lon="7.31316">
        <ele>1643.51</ele>
        <time>2012-08-15T07:30:22Z</time>
      </trkpt>
      <trkpt lat="44.11014" lon="7.31316">
        <ele>1643.99</ele>
        <time>2012-08-15T07:30:40Z</time>
      </trkpt>
      <trkpt lat="44.11014" lon="7.31322">
        <ele>1643.99</ele>
        <time>2012-08-15T07:30:57Z</time>
      </trkpt>
      <trkpt lat="44.11014" lon="7.3134">
        <ele>1645.91</ele>
        <time>2012-08-15T07:31:12Z</time>
      </trkpt>
      <trkpt lat="44.11013" lon="7.3136">
        <ele>1647.84</ele>
        <time>2012-08-15T07:31:29Z</time>
      </trkpt>
      <trkpt lat="44.11009" lon="7.31376">
        <ele>1650.24</ele>
        <time>2012-08-15T07:31:44Z</time>
      </trkpt>
      <trkpt lat="44.11005" lon="7.31389">
        <ele>1651.68</ele>
        <time>2012-08-15T07:31:57Z</time>
      </trkpt>
      <trkpt lat="44.11003" lon="7.31408">
        <ele>1654.09</ele>
        <time>2012-08-15T07:32:13Z</time>
      </trkpt>
      <trkpt lat="44.10999" lon="7.31424">
        <ele>1656.97</ele>
        <time>2012-08-15T07:32:29Z</time>
      </trkpt>
      <trkpt lat="44.10992" lon="7.31438">
        <ele>1657.93</ele>
        <time>2012-08-15T07:32:42Z</time>
      </trkpt>
      <trkpt lat="44.10977" lon="7.31455">
        <ele>1659.85</ele>
        <time>2012-08-15T07:33:02Z</time>
      </trkpt>
      <trkpt lat="44.10968" lon="7.31466">
        <ele>1662.26</ele>
        <time>2012-08-15T07:33:17Z</time>
      </trkpt>
      <trkpt lat="44.10968" lon="7.31466">
        <ele>1662.74</ele>
        <time>2012-08-15T07:33:40Z</time>
      </trkpt>
      <trkpt lat="44.10968" lon="7.31466">
        <ele>1662.74</ele>
        <time>2012-08-15T07:34:01Z</time>
      </trkpt>
      <trkpt lat="44.10968" lon="7.31466">
        <ele>1662.74</ele>
        <time>2012-08-15T07:34:21Z</time>
      </trkpt>
      <trkpt lat="44.1097" lon="7.31473">
        <ele>1663.22</ele>
        <time>2012-08-15T07:34:35Z</time>
      </trkpt>
      <trkpt lat="44.1097" lon="7.31473">
        <ele>1664.18</ele>
        <time>2012-08-15T07:34:51Z</time>
      </trkpt>
      <trkpt lat="44.1097" lon="7.31473">
        <ele>1666.58</ele>
        <time>2012-08-15T07:35:07Z</time>
      </trkpt>
      <trkpt lat="44.1097" lon="7.31473">
        <ele>1667.06</ele>
        <time>2012-08-15T07:35:08Z</time>
      </trkpt>
      <trkpt lat="44.10965" lon="7.31481">
        <ele>1667.54</ele>
        <time>2012-08-15T07:35:15Z</time>
      </trkpt>
      <trkpt lat="44.10953" lon="7.31495">
        <ele>1668.99</ele>
        <time>2012-08-15T07:35:31Z</time>
      </trkpt>
      <trkpt lat="44.10949" lon="7.31501">
        <ele>1668.99</ele>
        <time>2012-08-15T07:35:35Z</time>
      </trkpt>
      <trkpt lat="44.10948" lon="7.31527">
        <ele>1669.95</ele>
        <time>2012-08-15T07:35:48Z</time>
      </trkpt>
      <trkpt lat="44.10952" lon="7.31544">
        <ele>1672.35</ele>
        <time>2012-08-15T07:36:03Z</time>
      </trkpt>
      <trkpt lat="44.10953" lon="7.31561">
        <ele>1674.75</ele>
        <time>2012-08-15T07:36:20Z</time>
      </trkpt>
      <trkpt lat="44.10955" lon="7.3157">
        <ele>1677.64</ele>
        <time>2012-08-15T07:36:38Z</time>
      </trkpt>
      <trkpt lat="44.10955" lon="7.3157">
        <ele>1680.04</ele>
        <time>2012-08-15T07:36:56Z</time>
      </trkpt>
      <trkpt lat="44.10957" lon="7.31576">
        <ele>1682.44</ele>
        <time>2012-08-15T07:37:10Z</time>
      </trkpt>
      <trkpt lat="44.10957" lon="7.31591">
        <ele>1684.37</ele>
        <time>2012-08-15T07:37:24Z</time>
      </trkpt>
      <trkpt lat="44.10957" lon="7.3162">
        <ele>1685.33</ele>
        <time>2012-08-15T07:37:39Z</time>
      </trkpt>
      <trkpt lat="44.10958" lon="7.31623">
        <ele>1687.25</ele>
        <time>2012-08-15T07:37:56Z</time>
      </trkpt>
      <trkpt lat="44.10964" lon="7.31637">
        <ele>1688.69</ele>
        <time>2012-08-15T07:38:11Z</time>
      </trkpt>
      <trkpt lat="44.10972" lon="7.3167">
        <ele>1689.65</ele>
        <time>2012-08-15T07:38:28Z</time>
      </trkpt>
      <trkpt lat="44.10975" lon="7.31689">
        <ele>1691.58</ele>
        <time>2012-08-15T07:38:45Z</time>
      </trkpt>
      <trkpt lat="44.10978" lon="7.31702">
        <ele>1693.02</ele>
        <time>2012-08-15T07:38:58Z</time>
      </trkpt>
      <trkpt lat="44.10979" lon="7.31705">
        <ele>1694.46</ele>
        <time>2012-08-15T07:39:12Z</time>
      </trkpt>
      <trkpt lat="44.10986" lon="7.31699">
        <ele>1696.38</ele>
        <time>2012-08-15T07:39:26Z</time>
      </trkpt>
      <trkpt lat="44.1099" lon="7.3171">
        <ele>1697.83</ele>
        <time>2012-08-15T07:39:39Z</time>
      </trkpt>
      <trkpt lat="44.10991" lon="7.31711">
        <ele>1700.23</ele>
        <time>2012-08-15T07:39:57Z</time>
      </trkpt>
      <trkpt lat="44.10991" lon="7.31711">
        <ele>1702.15</ele>
        <time>2012-08-15T07:40:12Z</time>
      </trkpt>
      <trkpt lat="44.10993" lon="7.31715">
        <ele>1703.59</ele>
        <time>2012-08-15T07:40:26Z</time>
      </trkpt>
      <trkpt lat="44.10998" lon="7.31722">
        <ele>1706</ele>
        <time>2012-08-15T07:40:42Z</time>
      </trkpt>
      <trkpt lat="44.11005" lon="7.31725">
        <ele>1707.92</ele>
        <time>2012-08-15T07:40:54Z</time>
      </trkpt>
      <trkpt lat="44.11008" lon="7.31727">
        <ele>1709.36</ele>
        <time>2012-08-15T07:41:09Z</time>
      </trkpt>
      <trkpt lat="44.11008" lon="7.31727">
        <ele>1710.32</ele>
        <time>2012-08-15T07:41:25Z</time>
      </trkpt>
      <trkpt lat="44.11009" lon="7.31726">
        <ele>1710.8</ele>
        <time>2012-08-15T07:41:41Z</time>
      </trkpt>
      <trkpt lat="44.11013" lon="7.31728">
        <ele>1712.73</ele>
        <time>2012-08-15T07:41:57Z</time>
      </trkpt>
      <trkpt lat="44.11022" lon="7.31733">
        <ele>1714.65</ele>
        <time>2012-08-15T07:42:11Z</time>
      </trkpt>
      <trkpt lat="44.11031" lon="7.31736">
        <ele>1717.53</ele>
        <time>2012-08-15T07:42:29Z</time>
      </trkpt>
      <trkpt lat="44.11031" lon="7.31736">
        <ele>1718.49</ele>
        <time>2012-08-15T07:42:57Z</time>
      </trkpt>
      <trkpt lat="44.11034" lon="7.31742">
        <ele>1719.46</ele>
        <time>2012-08-15T07:43:13Z</time>
      </trkpt>
      <trkpt lat="44.11037" lon="7.31746">
        <ele>1719.46</ele>
        <time>2012-08-15T07:43:16Z</time>
      </trkpt>
      <trkpt lat="44.11053" lon="7.31765">
        <ele>1720.9</ele>
        <time>2012-08-15T07:43:33Z</time>
      </trkpt>
      <trkpt lat="44.11065" lon="7.31776">
        <ele>1723.78</ele>
        <time>2012-08-15T07:43:51Z</time>
      </trkpt>
      <trkpt lat="44.11074" lon="7.31779">
        <ele>1725.7</ele>
        <time>2012-08-15T07:44:06Z</time>
      </trkpt>
      <trkpt lat="44.11078" lon="7.31781">
        <ele>1727.63</ele>
        <time>2012-08-15T07:44:20Z</time>
      </trkpt>
      <trkpt lat="44.11078" lon="7.31781">
        <ele>1729.55</ele>
        <time>2012-08-15T07:44:35Z</time>
      </trkpt>
      <trkpt lat="44.11078" lon="7.31781">
        <ele>1731.47</ele>
        <time>2012-08-15T07:44:50Z</time>
      </trkpt>
      <trkpt lat="44.11079" lon="7.31782">
        <ele>1734.36</ele>
        <time>2012-08-15T07:45:08Z</time>
      </trkpt>
      <trkpt lat="44.11079" lon="7.31782">
        <ele>1736.76</ele>
        <time>2012-08-15T07:45:26Z</time>
      </trkpt>
      <trkpt lat="44.11079" lon="7.31783">
        <ele>1738.2</ele>
        <time>2012-08-15T07:45:42Z</time>
      </trkpt>
      <trkpt lat="44.11083" lon="7.31791">
        <ele>1739.16</ele>
        <time>2012-08-15T07:45:56Z</time>
      </trkpt>
      <trkpt lat="44.11086" lon="7.31797">
        <ele>1740.12</ele>
        <time>2012-08-15T07:46:13Z</time>
      </trkpt>
      <trkpt lat="44.11088" lon="7.318">
        <ele>1740.12</ele>
        <time>2012-08-15T07:46:27Z</time>
      </trkpt>
      <trkpt lat="44.1109" lon="7.31799">
        <ele>1740.12</ele>
        <time>2012-08-15T07:47:00Z</time>
      </trkpt>
      <trkpt lat="44.1109" lon="7.31799">
        <ele>1740.12</ele>
        <time>2012-08-15T07:47:28Z</time>
      </trkpt>
      <trkpt lat="44.11091" lon="7.31801">
        <ele>1740.12</ele>
        <time>2012-08-15T07:47:54Z</time>
      </trkpt>
      <trkpt lat="44.11094" lon="7.31804">
        <ele>1740.12</ele>
        <time>2012-08-15T07:48:18Z</time>
      </trkpt>
      <trkpt lat="44.11094" lon="7.31804">
        <ele>1740.12</ele>
        <time>2012-08-15T07:48:42Z</time>
      </trkpt>
      <trkpt lat="44.11095" lon="7.31804">
        <ele>1740.12</ele>
        <time>2012-08-15T07:49:13Z</time>
      </trkpt>
      <trkpt lat="44.11096" lon="7.31805">
        <ele>1740.6</ele>
        <time>2012-08-15T07:49:37Z</time>
      </trkpt>
      <trkpt lat="44.11096" lon="7.31805">
        <ele>1740.6</ele>
        <time>2012-08-15T07:50:06Z</time>
      </trkpt>
      <trkpt lat="44.11098" lon="7.31807">
        <ele>1740.6</ele>
        <time>2012-08-15T07:50:26Z</time>
      </trkpt>
      <trkpt lat="44.11099" lon="7.31807">
        <ele>1740.6</ele>
        <time>2012-08-15T07:50:55Z</time>
      </trkpt>
      <trkpt lat="44.11099" lon="7.31807">
        <ele>1740.6</ele>
        <time>2012-08-15T07:51:07Z</time>
      </trkpt>
      <trkpt lat="44.11099" lon="7.31807">
        <ele>1740.6</ele>
        <time>2012-08-15T07:51:24Z</time>
      </trkpt>
      <trkpt lat="44.11106" lon="7.3183">
        <ele>1741.57</ele>
        <time>2012-08-15T07:51:41Z</time>
      </trkpt>
      <trkpt lat="44.11119" lon="7.31849">
        <ele>1742.05</ele>
        <time>2012-08-15T07:51:54Z</time>
      </trkpt>
      <trkpt lat="44.11119" lon="7.31851">
        <ele>1743.97</ele>
        <time>2012-08-15T07:52:10Z</time>
      </trkpt>
      <trkpt lat="44.1112" lon="7.31853">
        <ele>1744.93</ele>
        <time>2012-08-15T07:52:25Z</time>
      </trkpt>
      <trkpt lat="44.11124" lon="7.31866">
        <ele>1746.37</ele>
        <time>2012-08-15T07:52:41Z</time>
      </trkpt>
      <trkpt lat="44.1113" lon="7.31882">
        <ele>1748.29</ele>
        <time>2012-08-15T07:53:00Z</time>
      </trkpt>
      <trkpt lat="44.11139" lon="7.31904">
        <ele>1749.26</ele>
        <time>2012-08-15T07:53:15Z</time>
      </trkpt>
      <trkpt lat="44.11141" lon="7.3192">
        <ele>1750.22</ele>
        <time>2012-08-15T07:53:28Z</time>
      </trkpt>
      <trkpt lat="44.11141" lon="7.3192">
        <ele>1750.7</ele>
        <time>2012-08-15T07:53:40Z</time>
      </trkpt>
      <trkpt lat="44.11141" lon="7.31924">
        <ele>1751.18</ele>
        <time>2012-08-15T07:53:53Z</time>
      </trkpt>
      <trkpt lat="44.11149" lon="7.31942">
        <ele>1751.18</ele>
        <time>2012-08-15T07:54:09Z</time>
      </trkpt>
      <trkpt lat="44.11149" lon="7.31942">
        <ele>1751.66</ele>
        <time>2012-08-15T07:54:24Z</time>
      </trkpt>
      <trkpt lat="44.11149" lon="7.31942">
        <ele>1750.22</ele>
        <time>2012-08-15T07:54:44Z</time>
      </trkpt>
      <trkpt lat="44.1115" lon="7.31943">
        <ele>1749.74</ele>
        <time>2012-08-15T07:55:00Z</time>
      </trkpt>
      <trkpt lat="44.1115" lon="7.31943">
        <ele>1749.74</ele>
        <time>2012-08-15T07:55:12Z</time>
      </trkpt>
      <trkpt lat="44.11152" lon="7.31953">
        <ele>1749.74</ele>
        <time>2012-08-15T07:55:24Z</time>
      </trkpt>
      <trkpt lat="44.11154" lon="7.31952">
        <ele>1750.7</ele>
        <time>2012-08-15T07:55:38Z</time>
      </trkpt>
      <trkpt lat="44.11158" lon="7.31954">
        <ele>1751.66</ele>
        <time>2012-08-15T07:55:54Z</time>
      </trkpt>
      <trkpt lat="44.11162" lon="7.31958">
        <ele>1753.58</ele>
        <time>2012-08-15T07:56:08Z</time>
      </trkpt>
      <trkpt lat="44.11169" lon="7.31962">
        <ele>1755.02</ele>
        <time>2012-08-15T07:56:22Z</time>
      </trkpt>
      <trkpt lat="44.11174" lon="7.31962">
        <ele>1756.47</ele>
        <time>2012-08-15T07:56:38Z</time>
      </trkpt>
      <trkpt lat="44.11182" lon="7.31961">
        <ele>1758.87</ele>
        <time>2012-08-15T07:56:54Z</time>
      </trkpt>
      <trkpt lat="44.11182" lon="7.31961">
        <ele>1760.79</ele>
        <time>2012-08-15T07:57:09Z</time>
      </trkpt>
      <trkpt lat="44.11184" lon="7.3196">
        <ele>1763.68</ele>
        <time>2012-08-15T07:57:27Z</time>
      </trkpt>
      <trkpt lat="44.11184" lon="7.3196">
        <ele>1764.16</ele>
        <time>2012-08-15T07:57:39Z</time>
      </trkpt>
      <trkpt lat="44.11184" lon="7.3196">
        <ele>1764.64</ele>
        <time>2012-08-15T07:57:55Z</time>
      </trkpt>
      <trkpt lat="44.11184" lon="7.31961">
        <ele>1764.64</ele>
        <time>2012-08-15T07:58:18Z</time>
      </trkpt>
      <trkpt lat="44.11184" lon="7.31961">
        <ele>1764.64</ele>
        <time>2012-08-15T07:58:38Z</time>
      </trkpt>
      <trkpt lat="44.11186" lon="7.3196">
        <ele>1764.64</ele>
        <time>2012-08-15T07:59:05Z</time>
      </trkpt>
      <trkpt lat="44.11186" lon="7.3196">
        <ele>1765.12</ele>
        <time>2012-08-15T07:59:21Z</time>
      </trkpt>
      <trkpt lat="44.112" lon="7.31951">
        <ele>1767.04</ele>
        <time>2012-08-15T07:59:36Z</time>
      </trkpt>
      <trkpt lat="44.11211" lon="7.31943">
        <ele>1769.44</ele>
        <time>2012-08-15T07:59:52Z</time>
      </trkpt>
      <trkpt lat="44.11216" lon="7.31939">
        <ele>1770.89</ele>
        <time>2012-08-15T08:00:05Z</time>
      </trkpt>
      <trkpt lat="44.11223" lon="7.31929">
        <ele>1773.29</ele>
        <time>2012-08-15T08:00:19Z</time>
      </trkpt>
      <trkpt lat="44.11225" lon="7.31924">
        <ele>1775.69</ele>
        <time>2012-08-15T08:00:35Z</time>
      </trkpt>
      <trkpt lat="44.11227" lon="7.31922">
        <ele>1778.1</ele>
        <time>2012-08-15T08:00:49Z</time>
      </trkpt>
      <trkpt lat="44.11227" lon="7.31922">
        <ele>1780.5</ele>
        <time>2012-08-15T08:01:04Z</time>
      </trkpt>
      <trkpt lat="44.11227" lon="7.31922">
        <ele>1782.42</ele>
        <time>2012-08-15T08:01:19Z</time>
      </trkpt>
      <trkpt lat="44.11228" lon="7.31922">
        <ele>1784.34</ele>
        <time>2012-08-15T08:01:35Z</time>
      </trkpt>
      <trkpt lat="44.11228" lon="7.31922">
        <ele>1786.27</ele>
        <time>2012-08-15T08:01:49Z</time>
      </trkpt>
      <trkpt lat="44.11229" lon="7.31923">
        <ele>1787.23</ele>
        <time>2012-08-15T08:02:03Z</time>
      </trkpt>
      <trkpt lat="44.11229" lon="7.31922">
        <ele>1787.71</ele>
        <time>2012-08-15T08:02:16Z</time>
      </trkpt>
      <trkpt lat="44.1124" lon="7.31917">
        <ele>1790.59</ele>
        <time>2012-08-15T08:02:33Z</time>
      </trkpt>
      <trkpt lat="44.11264" lon="7.31919">
        <ele>1791.55</ele>
        <time>2012-08-15T08:02:47Z</time>
      </trkpt>
      <trkpt lat="44.11271" lon="7.31921">
        <ele>1792.52</ele>
        <time>2012-08-15T08:03:00Z</time>
      </trkpt>
      <trkpt lat="44.11271" lon="7.31921">
        <ele>1793.48</ele>
        <time>2012-08-15T08:03:17Z</time>
      </trkpt>
      <trkpt lat="44.11271" lon="7.31921">
        <ele>1795.88</ele>
        <time>2012-08-15T08:03:32Z</time>
      </trkpt>
      <trkpt lat="44.11272" lon="7.31921">
        <ele>1797.8</ele>
        <time>2012-08-15T08:03:47Z</time>
      </trkpt>
      <trkpt lat="44.11275" lon="7.31923">
        <ele>1800.21</ele>
        <time>2012-08-15T08:04:02Z</time>
      </trkpt>
      <trkpt lat="44.11279" lon="7.31929">
        <ele>1801.17</ele>
        <time>2012-08-15T08:04:14Z</time>
      </trkpt>
      <trkpt lat="44.11279" lon="7.31929">
        <ele>1801.65</ele>
        <time>2012-08-15T08:04:28Z</time>
      </trkpt>
      <trkpt lat="44.1128" lon="7.3193">
        <ele>1802.13</ele>
        <time>2012-08-15T08:04:48Z</time>
      </trkpt>
      <trkpt lat="44.11291" lon="7.31943">
        <ele>1803.09</ele>
        <time>2012-08-15T08:05:02Z</time>
      </trkpt>
      <trkpt lat="44.113" lon="7.31958">
        <ele>1803.57</ele>
        <time>2012-08-15T08:05:15Z</time>
      </trkpt>
      <trkpt lat="44.11313" lon="7.31977">
        <ele>1804.53</ele>
        <time>2012-08-15T08:05:29Z</time>
      </trkpt>
      <trkpt lat="44.11313" lon="7.31978">
        <ele>1805.49</ele>
        <time>2012-08-15T08:05:42Z</time>
      </trkpt>
      <trkpt lat="44.11313" lon="7.31978">
        <ele>1806.45</ele>
        <time>2012-08-15T08:06:04Z</time>
      </trkpt>
      <trkpt lat="44.11314" lon="7.31978">
        <ele>1806.94</ele>
        <time>2012-08-15T08:06:24Z</time>
      </trkpt>
      <trkpt lat="44.11326" lon="7.31994">
        <ele>1809.34</ele>
        <time>2012-08-15T08:06:40Z</time>
      </trkpt>
      <trkpt lat="44.11329" lon="7.31995">
        <ele>1811.26</ele>
        <time>2012-08-15T08:06:55Z</time>
      </trkpt>
      <trkpt lat="44.11334" lon="7.31999">
        <ele>1812.7</ele>
        <time>2012-08-15T08:07:09Z</time>
      </trkpt>
      <trkpt lat="44.11334" lon="7.31999">
        <ele>1813.66</ele>
        <time>2012-08-15T08:07:24Z</time>
      </trkpt>
      <trkpt lat="44.11334" lon="7.31999">
        <ele>1815.59</ele>
        <time>2012-08-15T08:07:41Z</time>
      </trkpt>
      <trkpt lat="44.11335" lon="7.32002">
        <ele>1816.55</ele>
        <time>2012-08-15T08:07:57Z</time>
      </trkpt>
      <trkpt lat="44.11335" lon="7.32002">
        <ele>1817.99</ele>
        <time>2012-08-15T08:08:11Z</time>
      </trkpt>
      <trkpt lat="44.11335" lon="7.32002">
        <ele>1819.43</ele>
        <time>2012-08-15T08:08:25Z</time>
      </trkpt>
      <trkpt lat="44.1134" lon="7.3201">
        <ele>1820.39</ele>
        <time>2012-08-15T08:08:42Z</time>
      </trkpt>
      <trkpt lat="44.11361" lon="7.32048">
        <ele>1821.84</ele>
        <time>2012-08-15T08:08:57Z</time>
      </trkpt>
      <trkpt lat="44.11366" lon="7.32065">
        <ele>1823.28</ele>
        <time>2012-08-15T08:09:11Z</time>
      </trkpt>
      <trkpt lat="44.11371" lon="7.32075">
        <ele>1824.24</ele>
        <time>2012-08-15T08:09:24Z</time>
      </trkpt>
      <trkpt lat="44.11373" lon="7.32078">
        <ele>1825.2</ele>
        <time>2012-08-15T08:09:39Z</time>
      </trkpt>
      <trkpt lat="44.11378" lon="7.32084">
        <ele>1826.64</ele>
        <time>2012-08-15T08:09:52Z</time>
      </trkpt>
      <trkpt lat="44.11392" lon="7.32099">
        <ele>1827.6</ele>
        <time>2012-08-15T08:10:08Z</time>
      </trkpt>
      <trkpt lat="44.114" lon="7.3211">
        <ele>1828.08</ele>
        <time>2012-08-15T08:10:23Z</time>
      </trkpt>
      <trkpt lat="44.11402" lon="7.32112">
        <ele>1829.05</ele>
        <time>2012-08-15T08:10:38Z</time>
      </trkpt>
      <trkpt lat="44.11407" lon="7.32119">
        <ele>1830.01</ele>
        <time>2012-08-15T08:10:51Z</time>
      </trkpt>
      <trkpt lat="44.11408" lon="7.32122">
        <ele>1830.01</ele>
        <time>2012-08-15T08:11:04Z</time>
      </trkpt>
      <trkpt lat="44.11409" lon="7.32124">
        <ele>1830.01</ele>
        <time>2012-08-15T08:11:18Z</time>
      </trkpt>
      <trkpt lat="44.11417" lon="7.32134">
        <ele>1829.05</ele>
        <time>2012-08-15T08:11:33Z</time>
      </trkpt>
      <trkpt lat="44.11424" lon="7.32149">
        <ele>1829.05</ele>
        <time>2012-08-15T08:11:48Z</time>
      </trkpt>
      <trkpt lat="44.11424" lon="7.32154">
        <ele>1829.05</ele>
        <time>2012-08-15T08:12:06Z</time>
      </trkpt>
      <trkpt lat="44.11424" lon="7.32154">
        <ele>1829.05</ele>
        <time>2012-08-15T08:12:26Z</time>
      </trkpt>
      <trkpt lat="44.11434" lon="7.322">
        <ele>1828.56</ele>
        <time>2012-08-15T08:12:42Z</time>
      </trkpt>
      <trkpt lat="44.11437" lon="7.32224">
        <ele>1828.56</ele>
        <time>2012-08-15T08:12:56Z</time>
      </trkpt>
      <trkpt lat="44.11437" lon="7.32241">
        <ele>1828.56</ele>
        <time>2012-08-15T08:13:10Z</time>
      </trkpt>
      <trkpt lat="44.11436" lon="7.32243">
        <ele>1830.01</ele>
        <time>2012-08-15T08:13:13Z</time>
      </trkpt>
      <trkpt lat="44.11438" lon="7.3226">
        <ele>1830.97</ele>
        <time>2012-08-15T08:13:30Z</time>
      </trkpt>
      <trkpt lat="44.11442" lon="7.32271">
        <ele>1830.97</ele>
        <time>2012-08-15T08:13:43Z</time>
      </trkpt>
      <trkpt lat="44.11445" lon="7.32285">
        <ele>1830.97</ele>
        <time>2012-08-15T08:13:57Z</time>
      </trkpt>
      <trkpt lat="44.11448" lon="7.32298">
        <ele>1831.45</ele>
        <time>2012-08-15T08:14:11Z</time>
      </trkpt>
      <trkpt lat="44.11452" lon="7.32316">
        <ele>1831.93</ele>
        <time>2012-08-15T08:14:27Z</time>
      </trkpt>
      <trkpt lat="44.1145" lon="7.32332">
        <ele>1832.41</ele>
        <time>2012-08-15T08:14:42Z</time>
      </trkpt>
      <trkpt lat="44.1145" lon="7.32332">
        <ele>1832.89</ele>
        <time>2012-08-15T08:14:56Z</time>
      </trkpt>
      <trkpt lat="44.1145" lon="7.32335">
        <ele>1832.89</ele>
        <time>2012-08-15T08:15:11Z</time>
      </trkpt>
      <trkpt lat="44.11448" lon="7.32339">
        <ele>1830.01</ele>
        <time>2012-08-15T08:15:24Z</time>
      </trkpt>
      <trkpt lat="44.11448" lon="7.32351">
        <ele>1829.53</ele>
        <time>2012-08-15T08:15:39Z</time>
      </trkpt>
      <trkpt lat="44.11447" lon="7.3236">
        <ele>1829.53</ele>
        <time>2012-08-15T08:15:44Z</time>
      </trkpt>
      <trkpt lat="44.11444" lon="7.32369">
        <ele>1829.05</ele>
        <time>2012-08-15T08:15:58Z</time>
      </trkpt>
      <trkpt lat="44.11444" lon="7.32369">
        <ele>1828.08</ele>
        <time>2012-08-15T08:16:13Z</time>
      </trkpt>
      <trkpt lat="44.11444" lon="7.32369">
        <ele>1827.6</ele>
        <time>2012-08-15T08:16:27Z</time>
      </trkpt>
      <trkpt lat="44.11443" lon="7.32371">
        <ele>1826.64</ele>
        <time>2012-08-15T08:16:43Z</time>
      </trkpt>
      <trkpt lat="44.11443" lon="7.32371">
        <ele>1826.16</ele>
        <time>2012-08-15T08:17:18Z</time>
      </trkpt>
      <trkpt lat="44.11443" lon="7.32371">
        <ele>1826.16</ele>
        <time>2012-08-15T08:17:47Z</time>
      </trkpt>
      <trkpt lat="44.11443" lon="7.32371">
        <ele>1826.16</ele>
        <time>2012-08-15T08:18:20Z</time>
      </trkpt>
      <trkpt lat="44.11443" lon="7.32372">
        <ele>1826.16</ele>
        <time>2012-08-15T08:18:58Z</time>
      </trkpt>
      <trkpt lat="44.11443" lon="7.32372">
        <ele>1826.16</ele>
        <time>2012-08-15T08:19:32Z</time>
      </trkpt>
      <trkpt lat="44.11443" lon="7.32373">
        <ele>1826.16</ele>
        <time>2012-08-15T08:20:10Z</time>
      </trkpt>
      <trkpt lat="44.11443" lon="7.32373">
        <ele>1826.16</ele>
        <time>2012-08-15T08:20:42Z</time>
      </trkpt>
      <trkpt lat="44.11443" lon="7.32373">
        <ele>1826.16</ele>
        <time>2012-08-15T08:21:18Z</time>
      </trkpt>
      <trkpt lat="44.11443" lon="7.32373">
        <ele>1826.16</ele>
        <time>2012-08-15T08:21:48Z</time>
      </trkpt>
      <trkpt lat="44.11443" lon="7.32373">
        <ele>1826.16</ele>
        <time>2012-08-15T08:22:16Z</time>
      </trkpt>
      <trkpt lat="44.11443" lon="7.32373">
        <ele>1826.16</ele>
        <time>2012-08-15T08:22:54Z</time>
      </trkpt>
      <trkpt lat="44.11443" lon="7.32373">
        <ele>1825.68</ele>
        <time>2012-08-15T08:23:33Z</time>
      </trkpt>
      <trkpt lat="44.11443" lon="7.32374">
        <ele>1825.68</ele>
        <time>2012-08-15T08:24:03Z</time>
      </trkpt>
      <trkpt lat="44.11443" lon="7.32374">
        <ele>1825.68</ele>
        <time>2012-08-15T08:24:26Z</time>
      </trkpt>
      <trkpt lat="44.11443" lon="7.32373">
        <ele>1825.68</ele>
        <time>2012-08-15T08:24:44Z</time>
      </trkpt>
      <trkpt lat="44.11443" lon="7.32373">
        <ele>1825.68</ele>
        <time>2012-08-15T08:24:47Z</time>
      </trkpt>
      <trkpt lat="44.11443" lon="7.32373">
        <ele>1825.68</ele>
        <time>2012-08-15T08:25:02Z</time>
      </trkpt>
      <trkpt lat="44.11443" lon="7.32373">
        <ele>1827.12</ele>
        <time>2012-08-15T08:25:27Z</time>
      </trkpt>
      <trkpt lat="44.11443" lon="7.32374">
        <ele>1827.12</ele>
        <time>2012-08-15T08:25:55Z</time>
      </trkpt>
      <trkpt lat="44.11445" lon="7.32374">
        <ele>1827.12</ele>
        <time>2012-08-15T08:26:23Z</time>
      </trkpt>
      <trkpt lat="44.11445" lon="7.32374">
        <ele>1827.12</ele>
        <time>2012-08-15T08:26:37Z</time>
      </trkpt>
      <trkpt lat="44.11445" lon="7.32374">
        <ele>1827.12</ele>
        <time>2012-08-15T08:26:55Z</time>
      </trkpt>
      <trkpt lat="44.11448" lon="7.32371">
        <ele>1827.6</ele>
        <time>2012-08-15T08:27:10Z</time>
      </trkpt>
      <trkpt lat="44.11453" lon="7.3237">
        <ele>1828.56</ele>
        <time>2012-08-15T08:27:24Z</time>
      </trkpt>
      <trkpt lat="44.11453" lon="7.3237">
        <ele>1830.49</ele>
        <time>2012-08-15T08:27:41Z</time>
      </trkpt>
      <trkpt lat="44.11459" lon="7.32376">
        <ele>1831.45</ele>
        <time>2012-08-15T08:27:52Z</time>
      </trkpt>
      <trkpt lat="44.11465" lon="7.32384">
        <ele>1832.89</ele>
        <time>2012-08-15T08:28:05Z</time>
      </trkpt>
      <trkpt lat="44.11476" lon="7.32398">
        <ele>1833.85</ele>
        <time>2012-08-15T08:28:18Z</time>
      </trkpt>
      <trkpt lat="44.11478" lon="7.324">
        <ele>1833.85</ele>
        <time>2012-08-15T08:28:20Z</time>
      </trkpt>
      <trkpt lat="44.11487" lon="7.32412">
        <ele>1834.33</ele>
        <time>2012-08-15T08:28:30Z</time>
      </trkpt>
      <trkpt lat="44.11497" lon="7.32423">
        <ele>1834.33</ele>
        <time>2012-08-15T08:28:44Z</time>
      </trkpt>
      <trkpt lat="44.11501" lon="7.32428">
        <ele>1835.29</ele>
        <time>2012-08-15T08:28:57Z</time>
      </trkpt>
      <trkpt lat="44.11512" lon="7.32444">
        <ele>1835.77</ele>
        <time>2012-08-15T08:29:09Z</time>
      </trkpt>
      <trkpt lat="44.11522" lon="7.32459">
        <ele>1836.26</ele>
        <time>2012-08-15T08:29:22Z</time>
      </trkpt>
      <trkpt lat="44.11533" lon="7.32465">
        <ele>1836.26</ele>
        <time>2012-08-15T08:29:34Z</time>
      </trkpt>
      <trkpt lat="44.11546" lon="7.32479">
        <ele>1836.74</ele>
        <time>2012-08-15T08:29:49Z</time>
      </trkpt>
      <trkpt lat="44.11559" lon="7.3249">
        <ele>1837.7</ele>
        <time>2012-08-15T08:30:03Z</time>
      </trkpt>
      <trkpt lat="44.11564" lon="7.32494">
        <ele>1838.18</ele>
        <time>2012-08-15T08:30:14Z</time>
      </trkpt>
      <trkpt lat="44.11564" lon="7.32494">
        <ele>1838.66</ele>
        <time>2012-08-15T08:30:24Z</time>
      </trkpt>
      <trkpt lat="44.11567" lon="7.32504">
        <ele>1838.66</ele>
        <time>2012-08-15T08:30:37Z</time>
      </trkpt>
      <trkpt lat="44.11571" lon="7.32513">
        <ele>1838.66</ele>
        <time>2012-08-15T08:30:53Z</time>
      </trkpt>
      <trkpt lat="44.11572" lon="7.32518">
        <ele>1839.14</ele>
        <time>2012-08-15T08:31:00Z</time>
      </trkpt>
      <trkpt lat="44.11578" lon="7.32531">
        <ele>1840.1</ele>
        <time>2012-08-15T08:31:13Z</time>
      </trkpt>
      <trkpt lat="44.11581" lon="7.32545">
        <ele>1841.06</ele>
        <time>2012-08-15T08:31:26Z</time>
      </trkpt>
      <trkpt lat="44.11586" lon="7.32571">
        <ele>1841.06</ele>
        <time>2012-08-15T08:31:40Z</time>
      </trkpt>
      <trkpt lat="44.11586" lon="7.32583">
        <ele>1841.54</ele>
        <time>2012-08-15T08:31:48Z</time>
      </trkpt>
      <trkpt lat="44.11586" lon="7.32601">
        <ele>1842.02</ele>
        <time>2012-08-15T08:32:01Z</time>
      </trkpt>
      <trkpt lat="44.11588" lon="7.32615">
        <ele>1842.98</ele>
        <time>2012-08-15T08:32:15Z</time>
      </trkpt>
      <trkpt lat="44.11593" lon="7.32628">
        <ele>1844.43</ele>
        <time>2012-08-15T08:32:30Z</time>
      </trkpt>
      <trkpt lat="44.11598" lon="7.32631">
        <ele>1844.91</ele>
        <time>2012-08-15T08:32:36Z</time>
      </trkpt>
      <trkpt lat="44.11606" lon="7.32646">
        <ele>1846.83</ele>
        <time>2012-08-15T08:32:48Z</time>
      </trkpt>
      <trkpt lat="44.11606" lon="7.32648">
        <ele>1846.83</ele>
        <time>2012-08-15T08:32:49Z</time>
      </trkpt>
      <trkpt lat="44.11612" lon="7.3266">
        <ele>1848.27</ele>
        <time>2012-08-15T08:33:03Z</time>
      </trkpt>
      <trkpt lat="44.11621" lon="7.32673">
        <ele>1848.75</ele>
        <time>2012-08-15T08:33:17Z</time>
      </trkpt>
      <trkpt lat="44.11627" lon="7.32689">
        <ele>1849.71</ele>
        <time>2012-08-15T08:33:31Z</time>
      </trkpt>
      <trkpt lat="44.1163" lon="7.32701">
        <ele>1850.19</ele>
        <time>2012-08-15T08:33:44Z</time>
      </trkpt>
      <trkpt lat="44.11636" lon="7.32714">
        <ele>1851.64</ele>
        <time>2012-08-15T08:33:59Z</time>
      </trkpt>
      <trkpt lat="44.11644" lon="7.32723">
        <ele>1852.6</ele>
        <time>2012-08-15T08:34:10Z</time>
      </trkpt>
      <trkpt lat="44.11652" lon="7.32729">
        <ele>1853.56</ele>
        <time>2012-08-15T08:34:20Z</time>
      </trkpt>
      <trkpt lat="44.11668" lon="7.32731">
        <ele>1853.56</ele>
        <time>2012-08-15T08:34:35Z</time>
      </trkpt>
      <trkpt lat="44.11677" lon="7.32738">
        <ele>1854.04</ele>
        <time>2012-08-15T08:34:49Z</time>
      </trkpt>
      <trkpt lat="44.11687" lon="7.32744">
        <ele>1855</ele>
        <time>2012-08-15T08:35:03Z</time>
      </trkpt>
      <trkpt lat="44.11699" lon="7.32751">
        <ele>1856.92</ele>
        <time>2012-08-15T08:35:19Z</time>
      </trkpt>
      <trkpt lat="44.11706" lon="7.32759">
        <ele>1857.4</ele>
        <time>2012-08-15T08:35:31Z</time>
      </trkpt>
      <trkpt lat="44.11707" lon="7.3276">
        <ele>1858.37</ele>
        <time>2012-08-15T08:35:45Z</time>
      </trkpt>
      <trkpt lat="44.11707" lon="7.3276">
        <ele>1859.33</ele>
        <time>2012-08-15T08:36:00Z</time>
      </trkpt>
      <trkpt lat="44.11707" lon="7.32761">
        <ele>1860.77</ele>
        <time>2012-08-15T08:36:12Z</time>
      </trkpt>
      <trkpt lat="44.11707" lon="7.32761">
        <ele>1861.25</ele>
        <time>2012-08-15T08:36:25Z</time>
      </trkpt>
      <trkpt lat="44.11707" lon="7.32761">
        <ele>1862.69</ele>
        <time>2012-08-15T08:36:39Z</time>
      </trkpt>
      <trkpt lat="44.11712" lon="7.32768">
        <ele>1864.13</ele>
        <time>2012-08-15T08:36:52Z</time>
      </trkpt>
      <trkpt lat="44.11721" lon="7.32793">
        <ele>1864.61</ele>
        <time>2012-08-15T08:37:07Z</time>
      </trkpt>
      <trkpt lat="44.11721" lon="7.32793">
        <ele>1866.54</ele>
        <time>2012-08-15T08:37:21Z</time>
      </trkpt>
      <trkpt lat="44.11721" lon="7.32793">
        <ele>1867.98</ele>
        <time>2012-08-15T08:37:35Z</time>
      </trkpt>
      <trkpt lat="44.11722" lon="7.32794">
        <ele>1869.42</ele>
        <time>2012-08-15T08:37:50Z</time>
      </trkpt>
      <trkpt lat="44.11722" lon="7.32794">
        <ele>1871.82</ele>
        <time>2012-08-15T08:38:05Z</time>
      </trkpt>
      <trkpt lat="44.11722" lon="7.32794">
        <ele>1872.79</ele>
        <time>2012-08-15T08:38:18Z</time>
      </trkpt>
      <trkpt lat="44.11737" lon="7.32805">
        <ele>1873.75</ele>
        <time>2012-08-15T08:38:29Z</time>
      </trkpt>
      <trkpt lat="44.11745" lon="7.32812">
        <ele>1874.71</ele>
        <time>2012-08-15T08:38:42Z</time>
      </trkpt>
      <trkpt lat="44.11761" lon="7.32826">
        <ele>1876.15</ele>
        <time>2012-08-15T08:38:55Z</time>
      </trkpt>
      <trkpt lat="44.11761" lon="7.32826">
        <ele>1877.59</ele>
        <time>2012-08-15T08:39:10Z</time>
      </trkpt>
      <trkpt lat="44.11771" lon="7.32837">
        <ele>1877.59</ele>
        <time>2012-08-15T08:39:25Z</time>
      </trkpt>
      <trkpt lat="44.11789" lon="7.32845">
        <ele>1878.55</ele>
        <time>2012-08-15T08:39:39Z</time>
      </trkpt>
      <trkpt lat="44.11813" lon="7.3286">
        <ele>1879.51</ele>
        <time>2012-08-15T08:39:51Z</time>
      </trkpt>
      <trkpt lat="44.11825" lon="7.32869">
        <ele>1880.96</ele>
        <time>2012-08-15T08:40:04Z</time>
      </trkpt>
      <trkpt lat="44.11832" lon="7.32865">
        <ele>1882.4</ele>
        <time>2012-08-15T08:40:17Z</time>
      </trkpt>
      <trkpt lat="44.11838" lon="7.32868">
        <ele>1883.84</ele>
        <time>2012-08-15T08:40:34Z</time>
      </trkpt>
      <trkpt lat="44.11844" lon="7.32878">
        <ele>1884.8</ele>
        <time>2012-08-15T08:40:46Z</time>
      </trkpt>
      <trkpt lat="44.1185" lon="7.32881">
        <ele>1886.24</ele>
        <time>2012-08-15T08:40:58Z</time>
      </trkpt>
      <trkpt lat="44.11861" lon="7.32881">
        <ele>1888.17</ele>
        <time>2012-08-15T08:41:12Z</time>
      </trkpt>
      <trkpt lat="44.11871" lon="7.32882">
        <ele>1889.13</ele>
        <time>2012-08-15T08:41:24Z</time>
      </trkpt>
      <trkpt lat="44.11878" lon="7.32888">
        <ele>1891.05</ele>
        <time>2012-08-15T08:41:36Z</time>
      </trkpt>
      <trkpt lat="44.11883" lon="7.32889">
        <ele>1892.01</ele>
        <time>2012-08-15T08:41:46Z</time>
      </trkpt>
      <trkpt lat="44.11888" lon="7.32893">
        <ele>1893.45</ele>
        <time>2012-08-15T08:42:00Z</time>
      </trkpt>
      <trkpt lat="44.11889" lon="7.32894">
        <ele>1894.9</ele>
        <time>2012-08-15T08:42:17Z</time>
      </trkpt>
      <trkpt lat="44.11891" lon="7.32893">
        <ele>1894.9</ele>
        <time>2012-08-15T08:42:33Z</time>
      </trkpt>
      <trkpt lat="44.1189" lon="7.32893">
        <ele>1895.38</ele>
        <time>2012-08-15T08:42:58Z</time>
      </trkpt>
      <trkpt lat="44.11891" lon="7.32893">
        <ele>1895.38</ele>
        <time>2012-08-15T08:43:22Z</time>
      </trkpt>
      <trkpt lat="44.11891" lon="7.32893">
        <ele>1895.38</ele>
        <time>2012-08-15T08:43:53Z</time>
      </trkpt>
      <trkpt lat="44.11892" lon="7.32892">
        <ele>1895.86</ele>
        <time>2012-08-15T08:44:24Z</time>
      </trkpt>
      <trkpt lat="44.11899" lon="7.32891">
        <ele>1896.34</ele>
        <time>2012-08-15T08:44:42Z</time>
      </trkpt>
      <trkpt lat="44.11912" lon="7.32887">
        <ele>1897.3</ele>
        <time>2012-08-15T08:44:57Z</time>
      </trkpt>
      <trkpt lat="44.11917" lon="7.32884">
        <ele>1898.26</ele>
        <time>2012-08-15T08:45:12Z</time>
      </trkpt>
      <trkpt lat="44.11923" lon="7.32886">
        <ele>1898.74</ele>
        <time>2012-08-15T08:45:25Z</time>
      </trkpt>
      <trkpt lat="44.1193" lon="7.32887">
        <ele>1900.66</ele>
        <time>2012-08-15T08:45:41Z</time>
      </trkpt>
      <trkpt lat="44.11938" lon="7.32888">
        <ele>1902.59</ele>
        <time>2012-08-15T08:45:53Z</time>
      </trkpt>
      <trkpt lat="44.11945" lon="7.32888">
        <ele>1903.55</ele>
        <time>2012-08-15T08:46:01Z</time>
      </trkpt>
      <trkpt lat="44.11956" lon="7.32882">
        <ele>1903.55</ele>
        <time>2012-08-15T08:46:16Z</time>
      </trkpt>
      <trkpt lat="44.11964" lon="7.32883">
        <ele>1904.51</ele>
        <time>2012-08-15T08:46:28Z</time>
      </trkpt>
      <trkpt lat="44.11972" lon="7.32883">
        <ele>1905.95</ele>
        <time>2012-08-15T08:46:43Z</time>
      </trkpt>
      <trkpt lat="44.11972" lon="7.32883">
        <ele>1907.87</ele>
        <time>2012-08-15T08:46:58Z</time>
      </trkpt>
      <trkpt lat="44.11977" lon="7.3288">
        <ele>1909.32</ele>
        <time>2012-08-15T08:47:12Z</time>
      </trkpt>
      <trkpt lat="44.11982" lon="7.32871">
        <ele>1911.24</ele>
        <time>2012-08-15T08:47:24Z</time>
      </trkpt>
      <trkpt lat="44.11977" lon="7.32869">
        <ele>1913.16</ele>
        <time>2012-08-15T08:47:38Z</time>
      </trkpt>
      <trkpt lat="44.1198" lon="7.3286">
        <ele>1914.6</ele>
        <time>2012-08-15T08:47:53Z</time>
      </trkpt>
      <trkpt lat="44.11984" lon="7.32845">
        <ele>1916.53</ele>
        <time>2012-08-15T08:48:08Z</time>
      </trkpt>
      <trkpt lat="44.11984" lon="7.3284">
        <ele>1918.45</ele>
        <time>2012-08-15T08:48:23Z</time>
      </trkpt>
      <trkpt lat="44.11989" lon="7.32831">
        <ele>1920.85</ele>
        <time>2012-08-15T08:48:38Z</time>
      </trkpt>
      <trkpt lat="44.11995" lon="7.32821">
        <ele>1922.29</ele>
        <time>2012-08-15T08:48:51Z</time>
      </trkpt>
      <trkpt lat="44.11993" lon="7.32818">
        <ele>1924.7</ele>
        <time>2012-08-15T08:49:05Z</time>
      </trkpt>
      <trkpt lat="44.11997" lon="7.3281">
        <ele>1926.62</ele>
        <time>2012-08-15T08:49:20Z</time>
      </trkpt>
      <trkpt lat="44.12005" lon="7.3281">
        <ele>1928.54</ele>
        <time>2012-08-15T08:49:35Z</time>
      </trkpt>
      <trkpt lat="44.12008" lon="7.32806">
        <ele>1930.46</ele>
        <time>2012-08-15T08:49:50Z</time>
      </trkpt>
      <trkpt lat="44.12015" lon="7.32808">
        <ele>1932.87</ele>
        <time>2012-08-15T08:50:06Z</time>
      </trkpt>
      <trkpt lat="44.12019" lon="7.32814">
        <ele>1934.79</ele>
        <time>2012-08-15T08:50:18Z</time>
      </trkpt>
      <trkpt lat="44.12024" lon="7.32816">
        <ele>1937.19</ele>
        <time>2012-08-15T08:50:34Z</time>
      </trkpt>
      <trkpt lat="44.12023" lon="7.32807">
        <ele>1939.12</ele>
        <time>2012-08-15T08:50:49Z</time>
      </trkpt>
      <trkpt lat="44.12024" lon="7.328">
        <ele>1941.04</ele>
        <time>2012-08-15T08:51:04Z</time>
      </trkpt>
      <trkpt lat="44.12024" lon="7.32793">
        <ele>1943.44</ele>
        <time>2012-08-15T08:51:18Z</time>
      </trkpt>
      <trkpt lat="44.12026" lon="7.32786">
        <ele>1944.88</ele>
        <time>2012-08-15T08:51:31Z</time>
      </trkpt>
      <trkpt lat="44.12027" lon="7.32774">
        <ele>1947.29</ele>
        <time>2012-08-15T08:51:48Z</time>
      </trkpt>
      <trkpt lat="44.12028" lon="7.3277">
        <ele>1948.73</ele>
        <time>2012-08-15T08:52:00Z</time>
      </trkpt>
      <trkpt lat="44.12029" lon="7.32758">
        <ele>1951.13</ele>
        <time>2012-08-15T08:52:14Z</time>
      </trkpt>
      <trkpt lat="44.12028" lon="7.32749">
        <ele>1953.06</ele>
        <time>2012-08-15T08:52:26Z</time>
      </trkpt>
      <trkpt lat="44.12026" lon="7.3274">
        <ele>1954.5</ele>
        <time>2012-08-15T08:52:39Z</time>
      </trkpt>
      <trkpt lat="44.12025" lon="7.32728">
        <ele>1956.42</ele>
        <time>2012-08-15T08:52:54Z</time>
      </trkpt>
      <trkpt lat="44.12034" lon="7.32733">
        <ele>1958.82</ele>
        <time>2012-08-15T08:53:09Z</time>
      </trkpt>
      <trkpt lat="44.12043" lon="7.32738">
        <ele>1961.23</ele>
        <time>2012-08-15T08:53:27Z</time>
      </trkpt>
      <trkpt lat="44.12046" lon="7.3274">
        <ele>1963.63</ele>
        <time>2012-08-15T08:53:42Z</time>
      </trkpt>
      <trkpt lat="44.12045" lon="7.32738">
        <ele>1966.51</ele>
        <time>2012-08-15T08:53:58Z</time>
      </trkpt>
      <trkpt lat="44.12046" lon="7.32736">
        <ele>1968.92</ele>
        <time>2012-08-15T08:54:14Z</time>
      </trkpt>
      <trkpt lat="44.12052" lon="7.32738">
        <ele>1970.84</ele>
        <time>2012-08-15T08:54:28Z</time>
      </trkpt>
      <trkpt lat="44.12052" lon="7.32738">
        <ele>1972.28</ele>
        <time>2012-08-15T08:54:47Z</time>
      </trkpt>
      <trkpt lat="44.12051" lon="7.3273">
        <ele>1974.2</ele>
        <time>2012-08-15T08:55:03Z</time>
      </trkpt>
      <trkpt lat="44.12053" lon="7.32719">
        <ele>1976.61</ele>
        <time>2012-08-15T08:55:17Z</time>
      </trkpt>
      <trkpt lat="44.12055" lon="7.32719">
        <ele>1978.53</ele>
        <time>2012-08-15T08:55:30Z</time>
      </trkpt>
      <trkpt lat="44.12059" lon="7.32718">
        <ele>1980.45</ele>
        <time>2012-08-15T08:55:45Z</time>
      </trkpt>
      <trkpt lat="44.12062" lon="7.32714">
        <ele>1982.86</ele>
        <time>2012-08-15T08:55:59Z</time>
      </trkpt>
      <trkpt lat="44.1207" lon="7.32714">
        <ele>1985.26</ele>
        <time>2012-08-15T08:56:16Z</time>
      </trkpt>
      <trkpt lat="44.12073" lon="7.32713">
        <ele>1987.18</ele>
        <time>2012-08-15T08:56:33Z</time>
      </trkpt>
      <trkpt lat="44.12079" lon="7.32711">
        <ele>1989.59</ele>
        <time>2012-08-15T08:56:48Z</time>
      </trkpt>
      <trkpt lat="44.12084" lon="7.32714">
        <ele>1991.51</ele>
        <time>2012-08-15T08:57:03Z</time>
      </trkpt>
      <trkpt lat="44.12089" lon="7.32715">
        <ele>1993.91</ele>
        <time>2012-08-15T08:57:20Z</time>
      </trkpt>
      <trkpt lat="44.1209" lon="7.32715">
        <ele>1994.39</ele>
        <time>2012-08-15T08:57:39Z</time>
      </trkpt>
      <trkpt lat="44.1209" lon="7.32715">
        <ele>1994.39</ele>
        <time>2012-08-15T08:58:06Z</time>
      </trkpt>
      <trkpt lat="44.12091" lon="7.32716">
        <ele>1994.39</ele>
        <time>2012-08-15T08:58:20Z</time>
      </trkpt>
      <trkpt lat="44.1209" lon="7.32716">
        <ele>1994.39</ele>
        <time>2012-08-15T08:58:40Z</time>
      </trkpt>
      <trkpt lat="44.1209" lon="7.32716">
        <ele>1994.87</ele>
        <time>2012-08-15T08:59:10Z</time>
      </trkpt>
      <trkpt lat="44.1209" lon="7.32716">
        <ele>1994.87</ele>
        <time>2012-08-15T08:59:36Z</time>
      </trkpt>
      <trkpt lat="44.1209" lon="7.32715">
        <ele>1995.35</ele>
        <time>2012-08-15T09:00:01Z</time>
      </trkpt>
      <trkpt lat="44.1209" lon="7.32715">
        <ele>1995.35</ele>
        <time>2012-08-15T09:00:24Z</time>
      </trkpt>
      <trkpt lat="44.1209" lon="7.32715">
        <ele>1995.35</ele>
        <time>2012-08-15T09:00:46Z</time>
      </trkpt>
      <trkpt lat="44.12091" lon="7.32716">
        <ele>1995.35</ele>
        <time>2012-08-15T09:01:02Z</time>
      </trkpt>
      <trkpt lat="44.12091" lon="7.32716">
        <ele>1995.83</ele>
        <time>2012-08-15T09:01:17Z</time>
      </trkpt>
      <trkpt lat="44.12091" lon="7.32716">
        <ele>1995.83</ele>
        <time>2012-08-15T09:01:49Z</time>
      </trkpt>
      <trkpt lat="44.12091" lon="7.32716">
        <ele>1995.83</ele>
        <time>2012-08-15T09:02:13Z</time>
      </trkpt>
      <trkpt lat="44.12091" lon="7.32714">
        <ele>1995.83</ele>
        <time>2012-08-15T09:02:28Z</time>
      </trkpt>
      <trkpt lat="44.12091" lon="7.32714">
        <ele>1995.83</ele>
        <time>2012-08-15T09:02:50Z</time>
      </trkpt>
      <trkpt lat="44.12091" lon="7.32714">
        <ele>1995.83</ele>
        <time>2012-08-15T09:03:09Z</time>
      </trkpt>
      <trkpt lat="44.12091" lon="7.32714">
        <ele>1995.83</ele>
        <time>2012-08-15T09:03:35Z</time>
      </trkpt>
      <trkpt lat="44.12094" lon="7.32716">
        <ele>1995.83</ele>
        <time>2012-08-15T09:04:00Z</time>
      </trkpt>
      <trkpt lat="44.12098" lon="7.32717">
        <ele>1996.32</ele>
        <time>2012-08-15T09:04:17Z</time>
      </trkpt>
      <trkpt lat="44.12099" lon="7.32717">
        <ele>1997.76</ele>
        <time>2012-08-15T09:04:31Z</time>
      </trkpt>
      <trkpt lat="44.12099" lon="7.32716">
        <ele>1999.68</ele>
        <time>2012-08-15T09:04:46Z</time>
      </trkpt>
      <trkpt lat="44.12102" lon="7.32714">
        <ele>2001.6</ele>
        <time>2012-08-15T09:05:01Z</time>
      </trkpt>
      <trkpt lat="44.12102" lon="7.32712">
        <ele>2004.49</ele>
        <time>2012-08-15T09:05:17Z</time>
      </trkpt>
      <trkpt lat="44.12102" lon="7.32708">
        <ele>2006.41</ele>
        <time>2012-08-15T09:05:33Z</time>
      </trkpt>
      <trkpt lat="44.12103" lon="7.32707">
        <ele>2009.29</ele>
        <time>2012-08-15T09:05:53Z</time>
      </trkpt>
      <trkpt lat="44.12103" lon="7.32707">
        <ele>2010.25</ele>
        <time>2012-08-15T09:06:17Z</time>
      </trkpt>
      <trkpt lat="44.12103" lon="7.32707">
        <ele>2010.25</ele>
        <time>2012-08-15T09:06:45Z</time>
      </trkpt>
      <trkpt lat="44.12107" lon="7.32706">
        <ele>2010.25</ele>
        <time>2012-08-15T09:07:01Z</time>
      </trkpt>
      <trkpt lat="44.12116" lon="7.327">
        <ele>2010.25</ele>
        <time>2012-08-15T09:07:18Z</time>
      </trkpt>
      <trkpt lat="44.12117" lon="7.32696">
        <ele>2012.18</ele>
        <time>2012-08-15T09:07:34Z</time>
      </trkpt>
      <trkpt lat="44.12124" lon="7.3269">
        <ele>2014.58</ele>
        <time>2012-08-15T09:07:50Z</time>
      </trkpt>
      <trkpt lat="44.12123" lon="7.32689">
        <ele>2016.5</ele>
        <time>2012-08-15T09:08:04Z</time>
      </trkpt>
      <trkpt lat="44.1212" lon="7.32687">
        <ele>2018.43</ele>
        <time>2012-08-15T09:08:21Z</time>
      </trkpt>
      <trkpt lat="44.12113" lon="7.32683">
        <ele>2019.87</ele>
        <time>2012-08-15T09:08:35Z</time>
      </trkpt>
      <trkpt lat="44.12109" lon="7.32676">
        <ele>2022.75</ele>
        <time>2012-08-15T09:08:52Z</time>
      </trkpt>
      <trkpt lat="44.12104" lon="7.32668">
        <ele>2024.67</ele>
        <time>2012-08-15T09:09:08Z</time>
      </trkpt>
      <trkpt lat="44.12101" lon="7.32661">
        <ele>2027.08</ele>
        <time>2012-08-15T09:09:23Z</time>
      </trkpt>
      <trkpt lat="44.121" lon="7.32651">
        <ele>2029.48</ele>
        <time>2012-08-15T09:09:39Z</time>
      </trkpt>
      <trkpt lat="44.12101" lon="7.32643">
        <ele>2032.36</ele>
        <time>2012-08-15T09:09:56Z</time>
      </trkpt>
      <trkpt lat="44.12101" lon="7.32635">
        <ele>2034.29</ele>
        <time>2012-08-15T09:10:13Z</time>
      </trkpt>
      <trkpt lat="44.12102" lon="7.32632">
        <ele>2036.69</ele>
        <time>2012-08-15T09:10:29Z</time>
      </trkpt>
      <trkpt lat="44.12103" lon="7.3263">
        <ele>2039.09</ele>
        <time>2012-08-15T09:10:45Z</time>
      </trkpt>
      <trkpt lat="44.12107" lon="7.32617">
        <ele>2041.02</ele>
        <time>2012-08-15T09:11:00Z</time>
      </trkpt>
      <trkpt lat="44.12108" lon="7.32612">
        <ele>2042.94</ele>
        <time>2012-08-15T09:11:15Z</time>
      </trkpt>
      <trkpt lat="44.12109" lon="7.32609">
        <ele>2045.82</ele>
        <time>2012-08-15T09:11:31Z</time>
      </trkpt>
      <trkpt lat="44.1211" lon="7.32606">
        <ele>2048.23</ele>
        <time>2012-08-15T09:11:44Z</time>
      </trkpt>
      <trkpt lat="44.1211" lon="7.32595">
        <ele>2048.71</ele>
        <time>2012-08-15T09:11:58Z</time>
      </trkpt>
      <trkpt lat="44.12112" lon="7.32586">
        <ele>2048.71</ele>
        <time>2012-08-15T09:12:13Z</time>
      </trkpt>
      <trkpt lat="44.12117" lon="7.32574">
        <ele>2050.63</ele>
        <time>2012-08-15T09:12:28Z</time>
      </trkpt>
      <trkpt lat="44.12119" lon="7.32568">
        <ele>2053.03</ele>
        <time>2012-08-15T09:12:44Z</time>
      </trkpt>
      <trkpt lat="44.12119" lon="7.32568">
        <ele>2055.44</ele>
        <time>2012-08-15T09:13:00Z</time>
      </trkpt>
      <trkpt lat="44.12119" lon="7.32568">
        <ele>2057.36</ele>
        <time>2012-08-15T09:13:14Z</time>
      </trkpt>
      <trkpt lat="44.12119" lon="7.32568">
        <ele>2059.76</ele>
        <time>2012-08-15T09:13:29Z</time>
      </trkpt>
      <trkpt lat="44.12119" lon="7.32568">
        <ele>2062.17</ele>
        <time>2012-08-15T09:13:43Z</time>
      </trkpt>
      <trkpt lat="44.1212" lon="7.32567">
        <ele>2064.09</ele>
        <time>2012-08-15T09:13:58Z</time>
      </trkpt>
      <trkpt lat="44.1212" lon="7.32567">
        <ele>2066.01</ele>
        <time>2012-08-15T09:14:13Z</time>
      </trkpt>
      <trkpt lat="44.1212" lon="7.32567">
        <ele>2068.41</ele>
        <time>2012-08-15T09:14:27Z</time>
      </trkpt>
      <trkpt lat="44.12121" lon="7.32567">
        <ele>2069.86</ele>
        <time>2012-08-15T09:14:41Z</time>
      </trkpt>
      <trkpt lat="44.12121" lon="7.32566">
        <ele>2072.26</ele>
        <time>2012-08-15T09:14:57Z</time>
      </trkpt>
      <trkpt lat="44.12121" lon="7.32566">
        <ele>2073.7</ele>
        <time>2012-08-15T09:15:11Z</time>
      </trkpt>
      <trkpt lat="44.12122" lon="7.32566">
        <ele>2076.1</ele>
        <time>2012-08-15T09:15:27Z</time>
      </trkpt>
      <trkpt lat="44.12122" lon="7.32566">
        <ele>2077.55</ele>
        <time>2012-08-15T09:15:43Z</time>
      </trkpt>
      <trkpt lat="44.12123" lon="7.32566">
        <ele>2077.55</ele>
        <time>2012-08-15T09:16:05Z</time>
      </trkpt>
      <trkpt lat="44.12123" lon="7.32566">
        <ele>2078.03</ele>
        <time>2012-08-15T09:16:19Z</time>
      </trkpt>
      <trkpt lat="44.12126" lon="7.32565">
        <ele>2078.99</ele>
        <time>2012-08-15T09:16:39Z</time>
      </trkpt>
      <trkpt lat="44.12136" lon="7.32564">
        <ele>2080.91</ele>
        <time>2012-08-15T09:16:57Z</time>
      </trkpt>
      <trkpt lat="44.12136" lon="7.32564">
        <ele>2082.83</ele>
        <time>2012-08-15T09:17:12Z</time>
      </trkpt>
      <trkpt lat="44.12137" lon="7.32564">
        <ele>2084.28</ele>
        <time>2012-08-15T09:17:27Z</time>
      </trkpt>
      <trkpt lat="44.12137" lon="7.32564">
        <ele>2086.68</ele>
        <time>2012-08-15T09:17:41Z</time>
      </trkpt>
      <trkpt lat="44.12137" lon="7.32564">
        <ele>2088.6</ele>
        <time>2012-08-15T09:18:00Z</time>
      </trkpt>
      <trkpt lat="44.12139" lon="7.32564">
        <ele>2090.52</ele>
        <time>2012-08-15T09:18:19Z</time>
      </trkpt>
      <trkpt lat="44.12139" lon="7.32564">
        <ele>2091.97</ele>
        <time>2012-08-15T09:18:34Z</time>
      </trkpt>
      <trkpt lat="44.1214" lon="7.32564">
        <ele>2093.89</ele>
        <time>2012-08-15T09:18:50Z</time>
      </trkpt>
      <trkpt lat="44.12163" lon="7.32532">
        <ele>2095.33</ele>
        <time>2012-08-15T09:19:03Z</time>
      </trkpt>
      <trkpt lat="44.12168" lon="7.32526">
        <ele>2097.73</ele>
        <time>2012-08-15T09:19:19Z</time>
      </trkpt>
      <trkpt lat="44.12169" lon="7.32522">
        <ele>2099.66</ele>
        <time>2012-08-15T09:19:38Z</time>
      </trkpt>
      <trkpt lat="44.12169" lon="7.32522">
        <ele>2101.58</ele>
        <time>2012-08-15T09:19:54Z</time>
      </trkpt>
      <trkpt lat="44.12179" lon="7.32513">
        <ele>2103.02</ele>
        <time>2012-08-15T09:20:07Z</time>
      </trkpt>
      <trkpt lat="44.1219" lon="7.32511">
        <ele>2104.46</ele>
        <time>2012-08-15T09:20:22Z</time>
      </trkpt>
      <trkpt lat="44.12195" lon="7.32509">
        <ele>2106.39</ele>
        <time>2012-08-15T09:20:36Z</time>
      </trkpt>
      <trkpt lat="44.12209" lon="7.32511">
        <ele>2108.79</ele>
        <time>2012-08-15T09:20:51Z</time>
      </trkpt>
      <trkpt lat="44.12215" lon="7.32512">
        <ele>2111.67</ele>
        <time>2012-08-15T09:21:10Z</time>
      </trkpt>
      <trkpt lat="44.12223" lon="7.32508">
        <ele>2113.12</ele>
        <time>2012-08-15T09:21:25Z</time>
      </trkpt>
      <trkpt lat="44.12227" lon="7.32508">
        <ele>2115.04</ele>
        <time>2012-08-15T09:21:41Z</time>
      </trkpt>
      <trkpt lat="44.12232" lon="7.325">
        <ele>2117.44</ele>
        <time>2012-08-15T09:21:56Z</time>
      </trkpt>
      <trkpt lat="44.12233" lon="7.32499">
        <ele>2118.88</ele>
        <time>2012-08-15T09:22:09Z</time>
      </trkpt>
      <trkpt lat="44.12233" lon="7.325">
        <ele>2120.32</ele>
        <time>2012-08-15T09:22:22Z</time>
      </trkpt>
      <trkpt lat="44.12236" lon="7.32497">
        <ele>2122.25</ele>
        <time>2012-08-15T09:22:37Z</time>
      </trkpt>
      <trkpt lat="44.12241" lon="7.32499">
        <ele>2123.69</ele>
        <time>2012-08-15T09:22:51Z</time>
      </trkpt>
      <trkpt lat="44.12248" lon="7.32501">
        <ele>2126.09</ele>
        <time>2012-08-15T09:23:08Z</time>
      </trkpt>
      <trkpt lat="44.1225" lon="7.32506">
        <ele>2128.98</ele>
        <time>2012-08-15T09:23:24Z</time>
      </trkpt>
      <trkpt lat="44.12252" lon="7.32511">
        <ele>2129.94</ele>
        <time>2012-08-15T09:23:38Z</time>
      </trkpt>
      <trkpt lat="44.12252" lon="7.32511">
        <ele>2131.86</ele>
        <time>2012-08-15T09:23:51Z</time>
      </trkpt>
      <trkpt lat="44.12259" lon="7.32503">
        <ele>2134.26</ele>
        <time>2012-08-15T09:24:09Z</time>
      </trkpt>
      <trkpt lat="44.12259" lon="7.32503">
        <ele>2136.67</ele>
        <time>2012-08-15T09:24:25Z</time>
      </trkpt>
      <trkpt lat="44.12259" lon="7.32503">
        <ele>2138.59</ele>
        <time>2012-08-15T09:24:40Z</time>
      </trkpt>
      <trkpt lat="44.12259" lon="7.32503">
        <ele>2140.51</ele>
        <time>2012-08-15T09:24:54Z</time>
      </trkpt>
      <trkpt lat="44.12259" lon="7.32503">
        <ele>2141.95</ele>
        <time>2012-08-15T09:25:12Z</time>
      </trkpt>
      <trkpt lat="44.12266" lon="7.325">
        <ele>2141.95</ele>
        <time>2012-08-15T09:25:38Z</time>
      </trkpt>
      <trkpt lat="44.12266" lon="7.325">
        <ele>2141.95</ele>
        <time>2012-08-15T09:26:02Z</time>
      </trkpt>
      <trkpt lat="44.12266" lon="7.325">
        <ele>2141.95</ele>
        <time>2012-08-15T09:26:24Z</time>
      </trkpt>
      <trkpt lat="44.12266" lon="7.325">
        <ele>2141.95</ele>
        <time>2012-08-15T09:26:46Z</time>
      </trkpt>
      <trkpt lat="44.12271" lon="7.32495">
        <ele>2141.95</ele>
        <time>2012-08-15T09:27:07Z</time>
      </trkpt>
      <trkpt lat="44.12279" lon="7.32499">
        <ele>2142.92</ele>
        <time>2012-08-15T09:27:19Z</time>
      </trkpt>
      <trkpt lat="44.12282" lon="7.3251">
        <ele>2143.88</ele>
        <time>2012-08-15T09:27:34Z</time>
      </trkpt>
      <trkpt lat="44.12283" lon="7.32514">
        <ele>2143.88</ele>
        <time>2012-08-15T09:27:45Z</time>
      </trkpt>
      <trkpt lat="44.12288" lon="7.32522">
        <ele>2143.88</ele>
        <time>2012-08-15T09:27:59Z</time>
      </trkpt>
      <trkpt lat="44.12294" lon="7.32532">
        <ele>2145.8</ele>
        <time>2012-08-15T09:28:13Z</time>
      </trkpt>
      <trkpt lat="44.12298" lon="7.32536">
        <ele>2147.24</ele>
        <time>2012-08-15T09:28:29Z</time>
      </trkpt>
      <trkpt lat="44.12306" lon="7.32531">
        <ele>2149.65</ele>
        <time>2012-08-15T09:28:45Z</time>
      </trkpt>
      <trkpt lat="44.12309" lon="7.32532">
        <ele>2150.13</ele>
        <time>2012-08-15T09:29:01Z</time>
      </trkpt>
      <trkpt lat="44.12309" lon="7.32531">
        <ele>2150.13</ele>
        <time>2012-08-15T09:29:16Z</time>
      </trkpt>
      <trkpt lat="44.12304" lon="7.32532">
        <ele>2150.13</ele>
        <time>2012-08-15T09:29:27Z</time>
      </trkpt>
      <trkpt lat="44.12303" lon="7.32532">
        <ele>2150.13</ele>
        <time>2012-08-15T09:29:28Z</time>
      </trkpt>
      <trkpt lat="44.12292" lon="7.32531">
        <ele>2149.16</ele>
        <time>2012-08-15T09:29:43Z</time>
      </trkpt>
      <trkpt lat="44.12286" lon="7.32521">
        <ele>2148.2</ele>
        <time>2012-08-15T09:29:58Z</time>
      </trkpt>
      <trkpt lat="44.12285" lon="7.32512">
        <ele>2147.72</ele>
        <time>2012-08-15T09:30:11Z</time>
      </trkpt>
      <trkpt lat="44.12286" lon="7.32504">
        <ele>2146.76</ele>
        <time>2012-08-15T09:30:24Z</time>
      </trkpt>
      <trkpt lat="44.12289" lon="7.32495">
        <ele>2147.24</ele>
        <time>2012-08-15T09:30:40Z</time>
      </trkpt>
      <trkpt lat="44.12291" lon="7.32487">
        <ele>2148.68</ele>
        <time>2012-08-15T09:30:52Z</time>
      </trkpt>
      <trkpt lat="44.12298" lon="7.32484">
        <ele>2150.61</ele>
        <time>2012-08-15T09:31:06Z</time>
      </trkpt>
      <trkpt lat="44.12304" lon="7.32481">
        <ele>2153.01</ele>
        <time>2012-08-15T09:31:20Z</time>
      </trkpt>
      <trkpt lat="44.12311" lon="7.32481">
        <ele>2155.41</ele>
        <time>2012-08-15T09:31:33Z</time>
      </trkpt>
      <trkpt lat="44.12317" lon="7.32477">
        <ele>2157.82</ele>
        <time>2012-08-15T09:31:49Z</time>
      </trkpt>
      <trkpt lat="44.12322" lon="7.32479">
        <ele>2160.22</ele>
        <time>2012-08-15T09:32:03Z</time>
      </trkpt>
      <trkpt lat="44.12328" lon="7.32479">
        <ele>2163.1</ele>
        <time>2012-08-15T09:32:17Z</time>
      </trkpt>
      <trkpt lat="44.12332" lon="7.32473">
        <ele>2163.58</ele>
        <time>2012-08-15T09:32:31Z</time>
      </trkpt>
      <trkpt lat="44.12334" lon="7.32469">
        <ele>2164.55</ele>
        <time>2012-08-15T09:32:46Z</time>
      </trkpt>
      <trkpt lat="44.1234" lon="7.32463">
        <ele>2166.47</ele>
        <time>2012-08-15T09:33:00Z</time>
      </trkpt>
      <trkpt lat="44.12343" lon="7.32457">
        <ele>2168.39</ele>
        <time>2012-08-15T09:33:13Z</time>
      </trkpt>
      <trkpt lat="44.12346" lon="7.3245">
        <ele>2170.31</ele>
        <time>2012-08-15T09:33:27Z</time>
      </trkpt>
      <trkpt lat="44.12349" lon="7.32446">
        <ele>2172.24</ele>
        <time>2012-08-15T09:33:40Z</time>
      </trkpt>
      <trkpt lat="44.1235" lon="7.32435">
        <ele>2173.68</ele>
        <time>2012-08-15T09:33:54Z</time>
      </trkpt>
      <trkpt lat="44.12354" lon="7.32428">
        <ele>2174.64</ele>
        <time>2012-08-15T09:34:07Z</time>
      </trkpt>
      <trkpt lat="44.12359" lon="7.3242">
        <ele>2175.6</ele>
        <time>2012-08-15T09:34:22Z</time>
      </trkpt>
      <trkpt lat="44.12361" lon="7.3241">
        <ele>2176.56</ele>
        <time>2012-08-15T09:34:37Z</time>
      </trkpt>
      <trkpt lat="44.12364" lon="7.32402">
        <ele>2177.04</ele>
        <time>2012-08-15T09:34:50Z</time>
      </trkpt>
      <trkpt lat="44.12367" lon="7.32393">
        <ele>2178.97</ele>
        <time>2012-08-15T09:35:05Z</time>
      </trkpt>
      <trkpt lat="44.12373" lon="7.32383">
        <ele>2178.97</ele>
        <time>2012-08-15T09:35:21Z</time>
      </trkpt>
      <trkpt lat="44.12375" lon="7.32377">
        <ele>2179.93</ele>
        <time>2012-08-15T09:35:35Z</time>
      </trkpt>
      <trkpt lat="44.1238" lon="7.3237">
        <ele>2180.89</ele>
        <time>2012-08-15T09:35:48Z</time>
      </trkpt>
      <trkpt lat="44.12381" lon="7.32368">
        <ele>2182.81</ele>
        <time>2012-08-15T09:36:03Z</time>
      </trkpt>
      <trkpt lat="44.12381" lon="7.32368">
        <ele>2184.73</ele>
        <time>2012-08-15T09:36:19Z</time>
      </trkpt>
      <trkpt lat="44.12381" lon="7.32366">
        <ele>2186.18</ele>
        <time>2012-08-15T09:36:34Z</time>
      </trkpt>
      <trkpt lat="44.12386" lon="7.3236">
        <ele>2188.1</ele>
        <time>2012-08-15T09:36:50Z</time>
      </trkpt>
      <trkpt lat="44.12393" lon="7.32356">
        <ele>2190.5</ele>
        <time>2012-08-15T09:37:04Z</time>
      </trkpt>
      <trkpt lat="44.12393" lon="7.32351">
        <ele>2191.46</ele>
        <time>2012-08-15T09:37:18Z</time>
      </trkpt>
      <trkpt lat="44.12393" lon="7.32351">
        <ele>2193.87</ele>
        <time>2012-08-15T09:37:33Z</time>
      </trkpt>
      <trkpt lat="44.12395" lon="7.32351">
        <ele>2195.79</ele>
        <time>2012-08-15T09:37:46Z</time>
      </trkpt>
      <trkpt lat="44.12405" lon="7.32344">
        <ele>2198.19</ele>
        <time>2012-08-15T09:37:59Z</time>
      </trkpt>
      <trkpt lat="44.12408" lon="7.32339">
        <ele>2201.08</ele>
        <time>2012-08-15T09:38:16Z</time>
      </trkpt>
      <trkpt lat="44.1241" lon="7.32333">
        <ele>2202.04</ele>
        <time>2012-08-15T09:38:31Z</time>
      </trkpt>
      <trkpt lat="44.12413" lon="7.32331">
        <ele>2205.88</ele>
        <time>2012-08-15T09:38:45Z</time>
      </trkpt>
      <trkpt lat="44.12414" lon="7.3233">
        <ele>2208.77</ele>
        <time>2012-08-15T09:38:48Z</time>
      </trkpt>
      <trkpt lat="44.1242" lon="7.32329">
        <ele>2206.36</ele>
        <time>2012-08-15T09:39:00Z</time>
      </trkpt>
      <trkpt lat="44.12423" lon="7.32328">
        <ele>2207.32</ele>
        <time>2012-08-15T09:39:09Z</time>
      </trkpt>
      <trkpt lat="44.12426" lon="7.32327">
        <ele>2209.25</ele>
        <time>2012-08-15T09:39:22Z</time>
      </trkpt>
      <trkpt lat="44.12426" lon="7.32321">
        <ele>2211.17</ele>
        <time>2012-08-15T09:39:35Z</time>
      </trkpt>
      <trkpt lat="44.12432" lon="7.32312">
        <ele>2213.09</ele>
        <time>2012-08-15T09:39:51Z</time>
      </trkpt>
      <trkpt lat="44.12436" lon="7.32307">
        <ele>2215.98</ele>
        <time>2012-08-15T09:40:04Z</time>
      </trkpt>
      <trkpt lat="44.12437" lon="7.32306">
        <ele>2217.42</ele>
        <time>2012-08-15T09:40:17Z</time>
      </trkpt>
      <trkpt lat="44.1245" lon="7.323">
        <ele>2219.34</ele>
        <time>2012-08-15T09:40:32Z</time>
      </trkpt>
      <trkpt lat="44.12459" lon="7.32289">
        <ele>2219.82</ele>
        <time>2012-08-15T09:40:49Z</time>
      </trkpt>
      <trkpt lat="44.12467" lon="7.32276">
        <ele>2220.3</ele>
        <time>2012-08-15T09:41:06Z</time>
      </trkpt>
      <trkpt lat="44.12471" lon="7.32266">
        <ele>2218.38</ele>
        <time>2012-08-15T09:41:22Z</time>
      </trkpt>
      <trkpt lat="44.12472" lon="7.32265">
        <ele>2218.38</ele>
        <time>2012-08-15T09:41:24Z</time>
      </trkpt>
      <trkpt lat="44.12478" lon="7.32259">
        <ele>2217.9</ele>
        <time>2012-08-15T09:41:36Z</time>
      </trkpt>
      <trkpt lat="44.12481" lon="7.32257">
        <ele>2217.9</ele>
        <time>2012-08-15T09:41:55Z</time>
      </trkpt>
      <trkpt lat="44.12484" lon="7.32252">
        <ele>2217.9</ele>
        <time>2012-08-15T09:42:08Z</time>
      </trkpt>
      <trkpt lat="44.12492" lon="7.32241">
        <ele>2216.94</ele>
        <time>2012-08-15T09:42:22Z</time>
      </trkpt>
      <trkpt lat="44.12499" lon="7.32234">
        <ele>2216.94</ele>
        <time>2012-08-15T09:42:35Z</time>
      </trkpt>
      <trkpt lat="44.125" lon="7.32232">
        <ele>2216.94</ele>
        <time>2012-08-15T09:42:38Z</time>
      </trkpt>
      <trkpt lat="44.1251" lon="7.3222">
        <ele>2216.94</ele>
        <time>2012-08-15T09:42:53Z</time>
      </trkpt>
      <trkpt lat="44.12519" lon="7.32209">
        <ele>2217.42</ele>
        <time>2012-08-15T09:43:09Z</time>
      </trkpt>
      <trkpt lat="44.12525" lon="7.32202">
        <ele>2217.42</ele>
        <time>2012-08-15T09:43:24Z</time>
      </trkpt>
      <trkpt lat="44.12525" lon="7.32202">
        <ele>2218.86</ele>
        <time>2012-08-15T09:43:37Z</time>
      </trkpt>
      <trkpt lat="44.12525" lon="7.32202">
        <ele>2218.86</ele>
        <time>2012-08-15T09:43:51Z</time>
      </trkpt>
      <trkpt lat="44.12526" lon="7.32201">
        <ele>2218.86</ele>
        <time>2012-08-15T09:44:20Z</time>
      </trkpt>
      <trkpt lat="44.12526" lon="7.32201">
        <ele>2216.94</ele>
        <time>2012-08-15T09:44:32Z</time>
      </trkpt>
      <trkpt lat="44.12535" lon="7.32189">
        <ele>2215.98</ele>
        <time>2012-08-15T09:44:43Z</time>
      </trkpt>
      <trkpt lat="44.12537" lon="7.32188">
        <ele>2215.5</ele>
        <time>2012-08-15T09:44:46Z</time>
      </trkpt>
      <trkpt lat="44.12546" lon="7.32175">
        <ele>2214.53</ele>
        <time>2012-08-15T09:44:59Z</time>
      </trkpt>
      <trkpt lat="44.12547" lon="7.32171">
        <ele>2214.05</ele>
        <time>2012-08-15T09:45:03Z</time>
      </trkpt>
      <trkpt lat="44.12551" lon="7.3216">
        <ele>2212.61</ele>
        <time>2012-08-15T09:45:19Z</time>
      </trkpt>
      <trkpt lat="44.12554" lon="7.32157">
        <ele>2212.13</ele>
        <time>2012-08-15T09:45:23Z</time>
      </trkpt>
      <trkpt lat="44.12562" lon="7.32147">
        <ele>2211.65</ele>
        <time>2012-08-15T09:45:37Z</time>
      </trkpt>
      <trkpt lat="44.12563" lon="7.32146">
        <ele>2211.65</ele>
        <time>2012-08-15T09:45:51Z</time>
      </trkpt>
      <trkpt lat="44.12563" lon="7.32146">
        <ele>2211.65</ele>
        <time>2012-08-15T09:46:07Z</time>
      </trkpt>
      <trkpt lat="44.12565" lon="7.32145">
        <ele>2211.65</ele>
        <time>2012-08-15T09:46:24Z</time>
      </trkpt>
      <trkpt lat="44.12565" lon="7.32145">
        <ele>2211.65</ele>
        <time>2012-08-15T09:46:44Z</time>
      </trkpt>
      <trkpt lat="44.12566" lon="7.32142">
        <ele>2211.65</ele>
        <time>2012-08-15T09:46:58Z</time>
      </trkpt>
      <trkpt lat="44.12569" lon="7.32124">
        <ele>2211.65</ele>
        <time>2012-08-15T09:47:13Z</time>
      </trkpt>
      <trkpt lat="44.12575" lon="7.32109">
        <ele>2213.09</ele>
        <time>2012-08-15T09:47:28Z</time>
      </trkpt>
      <trkpt lat="44.12578" lon="7.32104">
        <ele>2215.01</ele>
        <time>2012-08-15T09:47:39Z</time>
      </trkpt>
      <trkpt lat="44.12583" lon="7.32095">
        <ele>2216.46</ele>
        <time>2012-08-15T09:47:53Z</time>
      </trkpt>
      <trkpt lat="44.12594" lon="7.32085">
        <ele>2217.9</ele>
        <time>2012-08-15T09:48:08Z</time>
      </trkpt>
      <trkpt lat="44.12603" lon="7.32079">
        <ele>2219.34</ele>
        <time>2012-08-15T09:48:22Z</time>
      </trkpt>
      <trkpt lat="44.12612" lon="7.32071">
        <ele>2220.78</ele>
        <time>2012-08-15T09:48:37Z</time>
      </trkpt>
      <trkpt lat="44.1262" lon="7.32061">
        <ele>2222.71</ele>
        <time>2012-08-15T09:48:54Z</time>
      </trkpt>
      <trkpt lat="44.1263" lon="7.3205">
        <ele>2224.15</ele>
        <time>2012-08-15T09:49:10Z</time>
      </trkpt>
      <trkpt lat="44.12635" lon="7.32044">
        <ele>2225.11</ele>
        <time>2012-08-15T09:49:22Z</time>
      </trkpt>
      <trkpt lat="44.12638" lon="7.32035">
        <ele>2225.59</ele>
        <time>2012-08-15T09:49:34Z</time>
      </trkpt>
      <trkpt lat="44.12644" lon="7.32031">
        <ele>2227.03</ele>
        <time>2012-08-15T09:49:48Z</time>
      </trkpt>
      <trkpt lat="44.1265" lon="7.32028">
        <ele>2229.43</ele>
        <time>2012-08-15T09:50:01Z</time>
      </trkpt>
      <trkpt lat="44.12657" lon="7.32022">
        <ele>2231.36</ele>
        <time>2012-08-15T09:50:16Z</time>
      </trkpt>
      <trkpt lat="44.12659" lon="7.32017">
        <ele>2232.8</ele>
        <time>2012-08-15T09:50:29Z</time>
      </trkpt>
      <trkpt lat="44.12662" lon="7.32012">
        <ele>2235.2</ele>
        <time>2012-08-15T09:50:43Z</time>
      </trkpt>
      <trkpt lat="44.12672" lon="7.32005">
        <ele>2238.09</ele>
        <time>2012-08-15T09:51:01Z</time>
      </trkpt>
      <trkpt lat="44.12679" lon="7.31999">
        <ele>2240.49</ele>
        <time>2012-08-15T09:51:16Z</time>
      </trkpt>
      <trkpt lat="44.12687" lon="7.31995">
        <ele>2241.93</ele>
        <time>2012-08-15T09:51:30Z</time>
      </trkpt>
      <trkpt lat="44.12691" lon="7.31992">
        <ele>2244.33</ele>
        <time>2012-08-15T09:51:47Z</time>
      </trkpt>
      <trkpt lat="44.12693" lon="7.3199">
        <ele>2245.78</ele>
        <time>2012-08-15T09:52:01Z</time>
      </trkpt>
      <trkpt lat="44.12695" lon="7.31987">
        <ele>2247.7</ele>
        <time>2012-08-15T09:52:15Z</time>
      </trkpt>
      <trkpt lat="44.12701" lon="7.31983">
        <ele>2249.14</ele>
        <time>2012-08-15T09:52:29Z</time>
      </trkpt>
      <trkpt lat="44.12707" lon="7.31981">
        <ele>2250.58</ele>
        <time>2012-08-15T09:52:41Z</time>
      </trkpt>
      <trkpt lat="44.1271" lon="7.31982">
        <ele>2251.54</ele>
        <time>2012-08-15T09:52:59Z</time>
      </trkpt>
      <trkpt lat="44.1272" lon="7.3198">
        <ele>2251.54</ele>
        <time>2012-08-15T09:53:14Z</time>
      </trkpt>
      <trkpt lat="44.12724" lon="7.31978">
        <ele>2253.47</ele>
        <time>2012-08-15T09:53:29Z</time>
      </trkpt>
      <trkpt lat="44.12732" lon="7.31975">
        <ele>2255.87</ele>
        <time>2012-08-15T09:53:46Z</time>
      </trkpt>
      <trkpt lat="44.12736" lon="7.31972">
        <ele>2258.27</ele>
        <time>2012-08-15T09:54:01Z</time>
      </trkpt>
      <trkpt lat="44.12737" lon="7.3197">
        <ele>2259.72</ele>
        <time>2012-08-15T09:54:14Z</time>
      </trkpt>
      <trkpt lat="44.1274" lon="7.31965">
        <ele>2262.6</ele>
        <time>2012-08-15T09:54:28Z</time>
      </trkpt>
      <trkpt lat="44.12743" lon="7.31964">
        <ele>2266.45</ele>
        <time>2012-08-15T09:54:35Z</time>
      </trkpt>
      <trkpt lat="44.12749" lon="7.31955">
        <ele>2267.89</ele>
        <time>2012-08-15T09:54:50Z</time>
      </trkpt>
      <trkpt lat="44.1275" lon="7.31953">
        <ele>2266.93</ele>
        <time>2012-08-15T09:55:06Z</time>
      </trkpt>
      <trkpt lat="44.12755" lon="7.31948">
        <ele>2265.96</ele>
        <time>2012-08-15T09:55:23Z</time>
      </trkpt>
      <trkpt lat="44.12765" lon="7.31941">
        <ele>2266.45</ele>
        <time>2012-08-15T09:55:37Z</time>
      </trkpt>
      <trkpt lat="44.12774" lon="7.31933">
        <ele>2265.96</ele>
        <time>2012-08-15T09:55:50Z</time>
      </trkpt>
      <trkpt lat="44.1278" lon="7.31925">
        <ele>2265.96</ele>
        <time>2012-08-15T09:56:04Z</time>
      </trkpt>
      <trkpt lat="44.12788" lon="7.31926">
        <ele>2266.45</ele>
        <time>2012-08-15T09:56:16Z</time>
      </trkpt>
      <trkpt lat="44.12798" lon="7.31919">
        <ele>2266.45</ele>
        <time>2012-08-15T09:56:30Z</time>
      </trkpt>
      <trkpt lat="44.12801" lon="7.31915">
        <ele>2266.45</ele>
        <time>2012-08-15T09:56:43Z</time>
      </trkpt>
      <trkpt lat="44.12805" lon="7.31911">
        <ele>2266.45</ele>
        <time>2012-08-15T09:56:56Z</time>
      </trkpt>
      <trkpt lat="44.12811" lon="7.3191">
        <ele>2266.45</ele>
        <time>2012-08-15T09:57:09Z</time>
      </trkpt>
      <trkpt lat="44.12821" lon="7.31902">
        <ele>2266.93</ele>
        <time>2012-08-15T09:57:23Z</time>
      </trkpt>
      <trkpt lat="44.12829" lon="7.31897">
        <ele>2267.89</ele>
        <time>2012-08-15T09:57:36Z</time>
      </trkpt>
      <trkpt lat="44.12837" lon="7.31889">
        <ele>2268.85</ele>
        <time>2012-08-15T09:57:48Z</time>
      </trkpt>
      <trkpt lat="44.12844" lon="7.31883">
        <ele>2269.33</ele>
        <time>2012-08-15T09:58:02Z</time>
      </trkpt>
      <trkpt lat="44.12854" lon="7.31881">
        <ele>2269.81</ele>
        <time>2012-08-15T09:58:17Z</time>
      </trkpt>
      <trkpt lat="44.12863" lon="7.31878">
        <ele>2270.77</ele>
        <time>2012-08-15T09:58:32Z</time>
      </trkpt>
      <trkpt lat="44.12863" lon="7.31877">
        <ele>2270.77</ele>
        <time>2012-08-15T09:58:46Z</time>
      </trkpt>
      <trkpt lat="44.12864" lon="7.31878">
        <ele>2270.77</ele>
        <time>2012-08-15T09:59:13Z</time>
      </trkpt>
      <trkpt lat="44.12864" lon="7.31878">
        <ele>2270.77</ele>
        <time>2012-08-15T09:59:28Z</time>
      </trkpt>
      <trkpt lat="44.12864" lon="7.31879">
        <ele>2270.77</ele>
        <time>2012-08-15T09:59:57Z</time>
      </trkpt>
      <trkpt lat="44.12864" lon="7.31879">
        <ele>2270.77</ele>
        <time>2012-08-15T10:00:20Z</time>
      </trkpt>
      <trkpt lat="44.12864" lon="7.31879">
        <ele>2270.77</ele>
        <time>2012-08-15T10:00:47Z</time>
      </trkpt>
      <trkpt lat="44.12864" lon="7.31879">
        <ele>2270.77</ele>
        <time>2012-08-15T10:01:24Z</time>
      </trkpt>
      <trkpt lat="44.12864" lon="7.31879">
        <ele>2270.77</ele>
        <time>2012-08-15T10:01:53Z</time>
      </trkpt>
      <trkpt lat="44.12864" lon="7.31879">
        <ele>2270.77</ele>
        <time>2012-08-15T10:02:28Z</time>
      </trkpt>
      <trkpt lat="44.12864" lon="7.31879">
        <ele>2270.77</ele>
        <time>2012-08-15T10:02:59Z</time>
      </trkpt>
      <trkpt lat="44.12864" lon="7.31879">
        <ele>2270.77</ele>
        <time>2012-08-15T10:03:31Z</time>
      </trkpt>
      <trkpt lat="44.12864" lon="7.31878">
        <ele>2270.77</ele>
        <time>2012-08-15T10:04:08Z</time>
      </trkpt>
      <trkpt lat="44.12864" lon="7.31878">
        <ele>2271.25</ele>
        <time>2012-08-15T10:04:47Z</time>
      </trkpt>
      <trkpt lat="44.12864" lon="7.31878">
        <ele>2271.25</ele>
        <time>2012-08-15T10:05:25Z</time>
      </trkpt>
      <trkpt lat="44.12864" lon="7.31878">
        <ele>2272.21</ele>
        <time>2012-08-15T10:06:09Z</time>
      </trkpt>
      <trkpt lat="44.12865" lon="7.31879">
        <ele>2272.21</ele>
        <time>2012-08-15T10:06:47Z</time>
      </trkpt>
      <trkpt lat="44.12865" lon="7.31879">
        <ele>2272.21</ele>
        <time>2012-08-15T10:07:26Z</time>
      </trkpt>
      <trkpt lat="44.12865" lon="7.31879">
        <ele>2272.21</ele>
        <time>2012-08-15T10:08:01Z</time>
      </trkpt>
      <trkpt lat="44.12865" lon="7.31879">
        <ele>2272.21</ele>
        <time>2012-08-15T10:08:42Z</time>
      </trkpt>
      <trkpt lat="44.12865" lon="7.31879">
        <ele>2270.77</ele>
        <time>2012-08-15T10:09:09Z</time>
      </trkpt>
      <trkpt lat="44.12865" lon="7.31878">
        <ele>2270.77</ele>
        <time>2012-08-15T10:09:50Z</time>
      </trkpt>
      <trkpt lat="44.12864" lon="7.31879">
        <ele>2270.77</ele>
        <time>2012-08-15T10:10:41Z</time>
      </trkpt>
      <trkpt lat="44.12864" lon="7.31879">
        <ele>2270.77</ele>
        <time>2012-08-15T10:11:33Z</time>
      </trkpt>
      <trkpt lat="44.12865" lon="7.31879">
        <ele>2270.77</ele>
        <time>2012-08-15T10:12:13Z</time>
      </trkpt>
      <trkpt lat="44.12864" lon="7.31878">
        <ele>2272.21</ele>
        <time>2012-08-15T10:12:34Z</time>
      </trkpt>
      <trkpt lat="44.12864" lon="7.31878">
        <ele>2273.17</ele>
        <time>2012-08-15T10:12:59Z</time>
      </trkpt>
      <trkpt lat="44.12866" lon="7.3188">
        <ele>2273.17</ele>
        <time>2012-08-15T10:13:14Z</time>
      </trkpt>
      <trkpt lat="44.12867" lon="7.31884">
        <ele>2273.17</ele>
        <time>2012-08-15T10:13:34Z</time>
      </trkpt>
      <trkpt lat="44.12865" lon="7.31893">
        <ele>2273.66</ele>
        <time>2012-08-15T10:13:50Z</time>
      </trkpt>
      <trkpt lat="44.12868" lon="7.31897">
        <ele>2274.62</ele>
        <time>2012-08-15T10:14:06Z</time>
      </trkpt>
      <trkpt lat="44.1287" lon="7.31903">
        <ele>2276.06</ele>
        <time>2012-08-15T10:14:18Z</time>
      </trkpt>
      <trkpt lat="44.12872" lon="7.31906">
        <ele>2277.5</ele>
        <time>2012-08-15T10:14:32Z</time>
      </trkpt>
      <trkpt lat="44.12875" lon="7.31909">
        <ele>2278.94</ele>
        <time>2012-08-15T10:14:47Z</time>
      </trkpt>
      <trkpt lat="44.12878" lon="7.31916">
        <ele>2280.87</ele>
        <time>2012-08-15T10:15:02Z</time>
      </trkpt>
      <trkpt lat="44.1288" lon="7.31919">
        <ele>2282.31</ele>
        <time>2012-08-15T10:15:15Z</time>
      </trkpt>
      <trkpt lat="44.12884" lon="7.3192">
        <ele>2284.23</ele>
        <time>2012-08-15T10:15:27Z</time>
      </trkpt>
      <trkpt lat="44.12884" lon="7.31923">
        <ele>2285.67</ele>
        <time>2012-08-15T10:15:41Z</time>
      </trkpt>
      <trkpt lat="44.12891" lon="7.31924">
        <ele>2287.11</ele>
        <time>2012-08-15T10:15:55Z</time>
      </trkpt>
      <trkpt lat="44.12892" lon="7.31923">
        <ele>2288.56</ele>
        <time>2012-08-15T10:16:09Z</time>
      </trkpt>
      <trkpt lat="44.12893" lon="7.31924">
        <ele>2289.52</ele>
        <time>2012-08-15T10:16:21Z</time>
      </trkpt>
      <trkpt lat="44.12893" lon="7.31924">
        <ele>2290</ele>
        <time>2012-08-15T10:16:45Z</time>
      </trkpt>
      <trkpt lat="44.12896" lon="7.31925">
        <ele>2290</ele>
        <time>2012-08-15T10:16:52Z</time>
      </trkpt>
      <trkpt lat="44.12898" lon="7.31926">
        <ele>2290</ele>
        <time>2012-08-15T10:16:54Z</time>
      </trkpt>
      <trkpt lat="44.129" lon="7.31926">
        <ele>2290</ele>
        <time>2012-08-15T10:16:56Z</time>
      </trkpt>
      <trkpt lat="44.12915" lon="7.3192">
        <ele>2290</ele>
        <time>2012-08-15T10:17:11Z</time>
      </trkpt>
      <trkpt lat="44.12921" lon="7.31918">
        <ele>2290</ele>
        <time>2012-08-15T10:17:16Z</time>
      </trkpt>
      <trkpt lat="44.12932" lon="7.31909">
        <ele>2290.48</ele>
        <time>2012-08-15T10:17:30Z</time>
      </trkpt>
      <trkpt lat="44.12936" lon="7.31909">
        <ele>2291.44</ele>
        <time>2012-08-15T10:17:34Z</time>
      </trkpt>
      <trkpt lat="44.12952" lon="7.31908">
        <ele>2291.92</ele>
        <time>2012-08-15T10:17:49Z</time>
      </trkpt>
      <trkpt lat="44.12958" lon="7.31909">
        <ele>2292.4</ele>
        <time>2012-08-15T10:17:55Z</time>
      </trkpt>
      <trkpt lat="44.12969" lon="7.31902">
        <ele>2292.88</ele>
        <time>2012-08-15T10:18:07Z</time>
      </trkpt>
      <trkpt lat="44.12982" lon="7.31895">
        <ele>2293.36</ele>
        <time>2012-08-15T10:18:21Z</time>
      </trkpt>
      <trkpt lat="44.12983" lon="7.31895">
        <ele>2293.84</ele>
        <time>2012-08-15T10:18:22Z</time>
      </trkpt>
      <trkpt lat="44.12996" lon="7.31894">
        <ele>2294.8</ele>
        <time>2012-08-15T10:18:38Z</time>
      </trkpt>
      <trkpt lat="44.13003" lon="7.31887">
        <ele>2295.28</ele>
        <time>2012-08-15T10:18:48Z</time>
      </trkpt>
      <trkpt lat="44.13014" lon="7.31885">
        <ele>2296.73</ele>
        <time>2012-08-15T10:19:03Z</time>
      </trkpt>
      <trkpt lat="44.13015" lon="7.31884">
        <ele>2296.73</ele>
        <time>2012-08-15T10:19:05Z</time>
      </trkpt>
      <trkpt lat="44.13019" lon="7.3188">
        <ele>2296.73</ele>
        <time>2012-08-15T10:19:10Z</time>
      </trkpt>
      <trkpt lat="44.13023" lon="7.31883">
        <ele>2297.21</ele>
        <time>2012-08-15T10:19:16Z</time>
      </trkpt>
      <trkpt lat="44.13034" lon="7.31881">
        <ele>2298.17</ele>
        <time>2012-08-15T10:19:30Z</time>
      </trkpt>
      <trkpt lat="44.1304" lon="7.31873">
        <ele>2299.13</ele>
        <time>2012-08-15T10:19:40Z</time>
      </trkpt>
      <trkpt lat="44.13049" lon="7.31871">
        <ele>2300.09</ele>
        <time>2012-08-15T10:19:53Z</time>
      </trkpt>
      <trkpt lat="44.13055" lon="7.31868">
        <ele>2301.53</ele>
        <time>2012-08-15T10:20:06Z</time>
      </trkpt>
      <trkpt lat="44.13058" lon="7.31864">
        <ele>2303.46</ele>
        <time>2012-08-15T10:20:20Z</time>
      </trkpt>
      <trkpt lat="44.13062" lon="7.31857">
        <ele>2305.38</ele>
        <time>2012-08-15T10:20:35Z</time>
      </trkpt>
      <trkpt lat="44.13062" lon="7.31856">
        <ele>2306.82</ele>
        <time>2012-08-15T10:20:48Z</time>
      </trkpt>
      <trkpt lat="44.13066" lon="7.31855">
        <ele>2308.74</ele>
        <time>2012-08-15T10:21:01Z</time>
      </trkpt>
      <trkpt lat="44.13073" lon="7.31855">
        <ele>2309.7</ele>
        <time>2012-08-15T10:21:14Z</time>
      </trkpt>
      <trkpt lat="44.13079" lon="7.31854">
        <ele>2311.15</ele>
        <time>2012-08-15T10:21:28Z</time>
      </trkpt>
      <trkpt lat="44.13086" lon="7.31858">
        <ele>2312.11</ele>
        <time>2012-08-15T10:21:42Z</time>
      </trkpt>
      <trkpt lat="44.1309" lon="7.31861">
        <ele>2314.03</ele>
        <time>2012-08-15T10:21:54Z</time>
      </trkpt>
      <trkpt lat="44.13094" lon="7.31863">
        <ele>2315.47</ele>
        <time>2012-08-15T10:22:09Z</time>
      </trkpt>
      <trkpt lat="44.13101" lon="7.31863">
        <ele>2317.88</ele>
        <time>2012-08-15T10:22:26Z</time>
      </trkpt>
      <trkpt lat="44.13105" lon="7.31864">
        <ele>2319.8</ele>
        <time>2012-08-15T10:22:42Z</time>
      </trkpt>
      <trkpt lat="44.13105" lon="7.31861">
        <ele>2321.72</ele>
        <time>2012-08-15T10:22:56Z</time>
      </trkpt>
      <trkpt lat="44.13108" lon="7.31856">
        <ele>2324.12</ele>
        <time>2012-08-15T10:23:12Z</time>
      </trkpt>
      <trkpt lat="44.13109" lon="7.31852">
        <ele>2325.57</ele>
        <time>2012-08-15T10:23:26Z</time>
      </trkpt>
      <trkpt lat="44.13111" lon="7.31852">
        <ele>2327.97</ele>
        <time>2012-08-15T10:23:41Z</time>
      </trkpt>
      <trkpt lat="44.13119" lon="7.31854">
        <ele>2329.41</ele>
        <time>2012-08-15T10:23:54Z</time>
      </trkpt>
      <trkpt lat="44.13124" lon="7.31857">
        <ele>2330.37</ele>
        <time>2012-08-15T10:24:07Z</time>
      </trkpt>
      <trkpt lat="44.13127" lon="7.31855">
        <ele>2332.78</ele>
        <time>2012-08-15T10:24:23Z</time>
      </trkpt>
      <trkpt lat="44.13131" lon="7.31853">
        <ele>2334.7</ele>
        <time>2012-08-15T10:24:37Z</time>
      </trkpt>
      <trkpt lat="44.13132" lon="7.31854">
        <ele>2336.14</ele>
        <time>2012-08-15T10:24:49Z</time>
      </trkpt>
      <trkpt lat="44.13136" lon="7.31855">
        <ele>2338.54</ele>
        <time>2012-08-15T10:25:03Z</time>
      </trkpt>
      <trkpt lat="44.1314" lon="7.31849">
        <ele>2340.47</ele>
        <time>2012-08-15T10:25:19Z</time>
      </trkpt>
      <trkpt lat="44.13146" lon="7.31851">
        <ele>2342.39</ele>
        <time>2012-08-15T10:25:32Z</time>
      </trkpt>
      <trkpt lat="44.1315" lon="7.31854">
        <ele>2344.79</ele>
        <time>2012-08-15T10:25:47Z</time>
      </trkpt>
      <trkpt lat="44.13153" lon="7.31852">
        <ele>2346.23</ele>
        <time>2012-08-15T10:26:01Z</time>
      </trkpt>
      <trkpt lat="44.13159" lon="7.31855">
        <ele>2348.64</ele>
        <time>2012-08-15T10:26:18Z</time>
      </trkpt>
      <trkpt lat="44.13165" lon="7.31861">
        <ele>2350.08</ele>
        <time>2012-08-15T10:26:32Z</time>
      </trkpt>
      <trkpt lat="44.13171" lon="7.31864">
        <ele>2351.52</ele>
        <time>2012-08-15T10:26:45Z</time>
      </trkpt>
      <trkpt lat="44.13178" lon="7.31875">
        <ele>2352</ele>
        <time>2012-08-15T10:27:00Z</time>
      </trkpt>
      <trkpt lat="44.13183" lon="7.31876">
        <ele>2352</ele>
        <time>2012-08-15T10:27:14Z</time>
      </trkpt>
      <trkpt lat="44.13185" lon="7.31877">
        <ele>2352.96</ele>
        <time>2012-08-15T10:27:31Z</time>
      </trkpt>
      <trkpt lat="44.13191" lon="7.31879">
        <ele>2353.93</ele>
        <time>2012-08-15T10:27:44Z</time>
      </trkpt>
      <trkpt lat="44.13199" lon="7.31885">
        <ele>2354.41</ele>
        <time>2012-08-15T10:27:58Z</time>
      </trkpt>
      <trkpt lat="44.13205" lon="7.31889">
        <ele>2356.33</ele>
        <time>2012-08-15T10:28:10Z</time>
      </trkpt>
      <trkpt lat="44.13206" lon="7.31905">
        <ele>2357.29</ele>
        <time>2012-08-15T10:28:26Z</time>
      </trkpt>
      <trkpt lat="44.13208" lon="7.31915">
        <ele>2357.29</ele>
        <time>2012-08-15T10:28:41Z</time>
      </trkpt>
      <trkpt lat="44.13213" lon="7.31918">
        <ele>2357.77</ele>
        <time>2012-08-15T10:28:56Z</time>
      </trkpt>
      <trkpt lat="44.13219" lon="7.31928">
        <ele>2359.69</ele>
        <time>2012-08-15T10:29:10Z</time>
      </trkpt>
      <trkpt lat="44.13222" lon="7.31939">
        <ele>2360.17</ele>
        <time>2012-08-15T10:29:22Z</time>
      </trkpt>
      <trkpt lat="44.13222" lon="7.31941">
        <ele>2360.17</ele>
        <time>2012-08-15T10:29:31Z</time>
      </trkpt>
      <trkpt lat="44.13232" lon="7.31941">
        <ele>2361.14</ele>
        <time>2012-08-15T10:29:44Z</time>
      </trkpt>
      <trkpt lat="44.13238" lon="7.31939">
        <ele>2362.58</ele>
        <time>2012-08-15T10:29:58Z</time>
      </trkpt>
      <trkpt lat="44.13245" lon="7.31935">
        <ele>2363.54</ele>
        <time>2012-08-15T10:30:11Z</time>
      </trkpt>
      <trkpt lat="44.13251" lon="7.31938">
        <ele>2364.02</ele>
        <time>2012-08-15T10:30:23Z</time>
      </trkpt>
      <trkpt lat="44.13253" lon="7.31944">
        <ele>2364.02</ele>
        <time>2012-08-15T10:30:37Z</time>
      </trkpt>
      <trkpt lat="44.13254" lon="7.31952">
        <ele>2364.02</ele>
        <time>2012-08-15T10:30:49Z</time>
      </trkpt>
      <trkpt lat="44.13255" lon="7.31956">
        <ele>2365.46</ele>
        <time>2012-08-15T10:31:02Z</time>
      </trkpt>
      <trkpt lat="44.13255" lon="7.31957">
        <ele>2366.9</ele>
        <time>2012-08-15T10:31:21Z</time>
      </trkpt>
      <trkpt lat="44.13255" lon="7.31957">
        <ele>2366.9</ele>
        <time>2012-08-15T10:31:35Z</time>
      </trkpt>
      <trkpt lat="44.13257" lon="7.31959">
        <ele>2367.86</ele>
        <time>2012-08-15T10:31:49Z</time>
      </trkpt>
      <trkpt lat="44.13257" lon="7.31959">
        <ele>2368.83</ele>
        <time>2012-08-15T10:32:10Z</time>
      </trkpt>
      <trkpt lat="44.13261" lon="7.31966">
        <ele>2369.79</ele>
        <time>2012-08-15T10:32:23Z</time>
      </trkpt>
      <trkpt lat="44.13269" lon="7.31975">
        <ele>2371.23</ele>
        <time>2012-08-15T10:32:36Z</time>
      </trkpt>
      <trkpt lat="44.13275" lon="7.31985">
        <ele>2372.19</ele>
        <time>2012-08-15T10:32:48Z</time>
      </trkpt>
      <trkpt lat="44.13284" lon="7.3199">
        <ele>2373.15</ele>
        <time>2012-08-15T10:33:01Z</time>
      </trkpt>
      <trkpt lat="44.13289" lon="7.31991">
        <ele>2374.11</ele>
        <time>2012-08-15T10:33:14Z</time>
      </trkpt>
      <trkpt lat="44.13293" lon="7.31998">
        <ele>2375.55</ele>
        <time>2012-08-15T10:33:27Z</time>
      </trkpt>
      <trkpt lat="44.13297" lon="7.32007">
        <ele>2376.52</ele>
        <time>2012-08-15T10:33:42Z</time>
      </trkpt>
      <trkpt lat="44.133" lon="7.32016">
        <ele>2378.92</ele>
        <time>2012-08-15T10:33:59Z</time>
      </trkpt>
      <trkpt lat="44.13301" lon="7.32018">
        <ele>2381.32</ele>
        <time>2012-08-15T10:34:12Z</time>
      </trkpt>
      <trkpt lat="44.133" lon="7.32025">
        <ele>2382.76</ele>
        <time>2012-08-15T10:34:27Z</time>
      </trkpt>
      <trkpt lat="44.133" lon="7.32025">
        <ele>2385.17</ele>
        <time>2012-08-15T10:34:40Z</time>
      </trkpt>
      <trkpt lat="44.133" lon="7.32025">
        <ele>2387.57</ele>
        <time>2012-08-15T10:34:54Z</time>
      </trkpt>
      <trkpt lat="44.13299" lon="7.32026">
        <ele>2389.49</ele>
        <time>2012-08-15T10:35:09Z</time>
      </trkpt>
      <trkpt lat="44.13299" lon="7.32026">
        <ele>2390.94</ele>
        <time>2012-08-15T10:35:22Z</time>
      </trkpt>
      <trkpt lat="44.13299" lon="7.32026">
        <ele>2392.86</ele>
        <time>2012-08-15T10:35:34Z</time>
      </trkpt>
      <trkpt lat="44.13299" lon="7.32028">
        <ele>2394.78</ele>
        <time>2012-08-15T10:35:48Z</time>
      </trkpt>
      <trkpt lat="44.13299" lon="7.32028">
        <ele>2396.7</ele>
        <time>2012-08-15T10:36:04Z</time>
      </trkpt>
      <trkpt lat="44.13299" lon="7.32028">
        <ele>2399.11</ele>
        <time>2012-08-15T10:36:19Z</time>
      </trkpt>
      <trkpt lat="44.133" lon="7.32033">
        <ele>2401.03</ele>
        <time>2012-08-15T10:36:32Z</time>
      </trkpt>
      <trkpt lat="44.133" lon="7.32033">
        <ele>2402.47</ele>
        <time>2012-08-15T10:36:48Z</time>
      </trkpt>
      <trkpt lat="44.13301" lon="7.32037">
        <ele>2403.91</ele>
        <time>2012-08-15T10:37:05Z</time>
      </trkpt>
      <trkpt lat="44.13301" lon="7.32037">
        <ele>2405.36</ele>
        <time>2012-08-15T10:37:19Z</time>
      </trkpt>
      <trkpt lat="44.13301" lon="7.32037">
        <ele>2407.76</ele>
        <time>2012-08-15T10:37:36Z</time>
      </trkpt>
      <trkpt lat="44.13301" lon="7.32039">
        <ele>2409.2</ele>
        <time>2012-08-15T10:37:51Z</time>
      </trkpt>
      <trkpt lat="44.13301" lon="7.32039">
        <ele>2411.6</ele>
        <time>2012-08-15T10:38:06Z</time>
      </trkpt>
      <trkpt lat="44.13301" lon="7.32043">
        <ele>2413.53</ele>
        <time>2012-08-15T10:38:22Z</time>
      </trkpt>
      <trkpt lat="44.13301" lon="7.32043">
        <ele>2414.97</ele>
        <time>2012-08-15T10:38:36Z</time>
      </trkpt>
      <trkpt lat="44.13308" lon="7.32052">
        <ele>2416.89</ele>
        <time>2012-08-15T10:38:51Z</time>
      </trkpt>
      <trkpt lat="44.1331" lon="7.32061">
        <ele>2417.85</ele>
        <time>2012-08-15T10:39:04Z</time>
      </trkpt>
      <trkpt lat="44.13312" lon="7.32066">
        <ele>2419.3</ele>
        <time>2012-08-15T10:39:18Z</time>
      </trkpt>
      <trkpt lat="44.13315" lon="7.32071">
        <ele>2420.74</ele>
        <time>2012-08-15T10:39:32Z</time>
      </trkpt>
      <trkpt lat="44.13324" lon="7.32086">
        <ele>2422.66</ele>
        <time>2012-08-15T10:39:46Z</time>
      </trkpt>
      <trkpt lat="44.1334" lon="7.32107">
        <ele>2423.62</ele>
        <time>2012-08-15T10:40:00Z</time>
      </trkpt>
      <trkpt lat="44.13345" lon="7.32117">
        <ele>2424.58</ele>
        <time>2012-08-15T10:40:13Z</time>
      </trkpt>
      <trkpt lat="44.13346" lon="7.32117">
        <ele>2426.02</ele>
        <time>2012-08-15T10:40:25Z</time>
      </trkpt>
      <trkpt lat="44.13351" lon="7.32123">
        <ele>2427.47</ele>
        <time>2012-08-15T10:40:37Z</time>
      </trkpt>
      <trkpt lat="44.13353" lon="7.32128">
        <ele>2429.39</ele>
        <time>2012-08-15T10:40:52Z</time>
      </trkpt>
      <trkpt lat="44.13354" lon="7.32134">
        <ele>2430.83</ele>
        <time>2012-08-15T10:41:04Z</time>
      </trkpt>
      <trkpt lat="44.13352" lon="7.32138">
        <ele>2432.75</ele>
        <time>2012-08-15T10:41:19Z</time>
      </trkpt>
      <trkpt lat="44.13356" lon="7.32148">
        <ele>2434.68</ele>
        <time>2012-08-15T10:41:31Z</time>
      </trkpt>
      <trkpt lat="44.13358" lon="7.32151">
        <ele>2436.6</ele>
        <time>2012-08-15T10:41:45Z</time>
      </trkpt>
      <trkpt lat="44.13358" lon="7.32155">
        <ele>2439</ele>
        <time>2012-08-15T10:41:58Z</time>
      </trkpt>
      <trkpt lat="44.13358" lon="7.32155">
        <ele>2440.44</ele>
        <time>2012-08-15T10:42:12Z</time>
      </trkpt>
      <trkpt lat="44.13358" lon="7.32161">
        <ele>2441.89</ele>
        <time>2012-08-15T10:42:25Z</time>
      </trkpt>
      <trkpt lat="44.13358" lon="7.32163">
        <ele>2443.81</ele>
        <time>2012-08-15T10:42:40Z</time>
      </trkpt>
      <trkpt lat="44.13354" lon="7.32166">
        <ele>2446.21</ele>
        <time>2012-08-15T10:42:55Z</time>
      </trkpt>
      <trkpt lat="44.13357" lon="7.32173">
        <ele>2448.13</ele>
        <time>2012-08-15T10:43:13Z</time>
      </trkpt>
      <trkpt lat="44.13357" lon="7.32174">
        <ele>2449.58</ele>
        <time>2012-08-15T10:43:27Z</time>
      </trkpt>
      <trkpt lat="44.13361" lon="7.32179">
        <ele>2451.98</ele>
        <time>2012-08-15T10:43:44Z</time>
      </trkpt>
      <trkpt lat="44.13368" lon="7.32178">
        <ele>2453.9</ele>
        <time>2012-08-15T10:43:56Z</time>
      </trkpt>
      <trkpt lat="44.13376" lon="7.32187">
        <ele>2455.34</ele>
        <time>2012-08-15T10:44:10Z</time>
      </trkpt>
      <trkpt lat="44.13381" lon="7.32192">
        <ele>2456.79</ele>
        <time>2012-08-15T10:44:26Z</time>
      </trkpt>
      <trkpt lat="44.13385" lon="7.32192">
        <ele>2457.75</ele>
        <time>2012-08-15T10:44:39Z</time>
      </trkpt>
      <trkpt lat="44.13388" lon="7.32187">
        <ele>2459.19</ele>
        <time>2012-08-15T10:44:50Z</time>
      </trkpt>
      <trkpt lat="44.13394" lon="7.32187">
        <ele>2459.19</ele>
        <time>2012-08-15T10:45:03Z</time>
      </trkpt>
      <trkpt lat="44.13395" lon="7.32187">
        <ele>2459.67</ele>
        <time>2012-08-15T10:45:21Z</time>
      </trkpt>
      <trkpt lat="44.13395" lon="7.32193">
        <ele>2460.15</ele>
        <time>2012-08-15T10:45:37Z</time>
      </trkpt>
      <trkpt lat="44.13393" lon="7.32202">
        <ele>2462.55</ele>
        <time>2012-08-15T10:45:51Z</time>
      </trkpt>
      <trkpt lat="44.13392" lon="7.32207">
        <ele>2464</ele>
        <time>2012-08-15T10:46:02Z</time>
      </trkpt>
      <trkpt lat="44.13395" lon="7.32209">
        <ele>2466.4</ele>
        <time>2012-08-15T10:46:16Z</time>
      </trkpt>
      <trkpt lat="44.13398" lon="7.3221">
        <ele>2468.8</ele>
        <time>2012-08-15T10:46:31Z</time>
      </trkpt>
      <trkpt lat="44.13405" lon="7.32207">
        <ele>2470.73</ele>
        <time>2012-08-15T10:46:49Z</time>
      </trkpt>
      <trkpt lat="44.13413" lon="7.32198">
        <ele>2471.69</ele>
        <time>2012-08-15T10:47:04Z</time>
      </trkpt>
      <trkpt lat="44.13419" lon="7.32194">
        <ele>2473.13</ele>
        <time>2012-08-15T10:47:17Z</time>
      </trkpt>
      <trkpt lat="44.13424" lon="7.32196">
        <ele>2474.09</ele>
        <time>2012-08-15T10:47:32Z</time>
      </trkpt>
      <trkpt lat="44.13428" lon="7.32203">
        <ele>2476.01</ele>
        <time>2012-08-15T10:47:47Z</time>
      </trkpt>
      <trkpt lat="44.13431" lon="7.32203">
        <ele>2478.9</ele>
        <time>2012-08-15T10:48:04Z</time>
      </trkpt>
      <trkpt lat="44.13435" lon="7.32202">
        <ele>2480.82</ele>
        <time>2012-08-15T10:48:18Z</time>
      </trkpt>
      <trkpt lat="44.13438" lon="7.32202">
        <ele>2482.74</ele>
        <time>2012-08-15T10:48:30Z</time>
      </trkpt>
      <trkpt lat="44.13443" lon="7.32204">
        <ele>2484.66</ele>
        <time>2012-08-15T10:48:46Z</time>
      </trkpt>
      <trkpt lat="44.13447" lon="7.32202">
        <ele>2486.11</ele>
        <time>2012-08-15T10:49:00Z</time>
      </trkpt>
      <trkpt lat="44.13443" lon="7.32197">
        <ele>2486.59</ele>
        <time>2012-08-15T10:49:17Z</time>
      </trkpt>
      <trkpt lat="44.13445" lon="7.32191">
        <ele>2485.63</ele>
        <time>2012-08-15T10:49:31Z</time>
      </trkpt>
      <trkpt lat="44.13445" lon="7.32191">
        <ele>2485.63</ele>
        <time>2012-08-15T10:49:43Z</time>
      </trkpt>
      <trkpt lat="44.13447" lon="7.32189">
        <ele>2485.63</ele>
        <time>2012-08-15T10:49:55Z</time>
      </trkpt>
      <trkpt lat="44.13454" lon="7.32185">
        <ele>2487.07</ele>
        <time>2012-08-15T10:50:10Z</time>
      </trkpt>
      <trkpt lat="44.13459" lon="7.3219">
        <ele>2489.47</ele>
        <time>2012-08-15T10:50:22Z</time>
      </trkpt>
      <trkpt lat="44.13462" lon="7.32184">
        <ele>2490.43</ele>
        <time>2012-08-15T10:50:35Z</time>
      </trkpt>
      <trkpt lat="44.13467" lon="7.32187">
        <ele>2492.36</ele>
        <time>2012-08-15T10:50:49Z</time>
      </trkpt>
      <trkpt lat="44.13467" lon="7.32197">
        <ele>2493.8</ele>
        <time>2012-08-15T10:51:03Z</time>
      </trkpt>
      <trkpt lat="44.13466" lon="7.32201">
        <ele>2495.24</ele>
        <time>2012-08-15T10:51:18Z</time>
      </trkpt>
      <trkpt lat="44.13463" lon="7.32206">
        <ele>2496.68</ele>
        <time>2012-08-15T10:51:30Z</time>
      </trkpt>
      <trkpt lat="44.13467" lon="7.32213">
        <ele>2498.6</ele>
        <time>2012-08-15T10:51:48Z</time>
      </trkpt>
      <trkpt lat="44.13471" lon="7.3221">
        <ele>2500.53</ele>
        <time>2012-08-15T10:52:04Z</time>
      </trkpt>
      <trkpt lat="44.13473" lon="7.32206">
        <ele>2500.53</ele>
        <time>2012-08-15T10:52:09Z</time>
      </trkpt>
      <trkpt lat="44.13478" lon="7.32192">
        <ele>2500.53</ele>
        <time>2012-08-15T10:52:24Z</time>
      </trkpt>
      <trkpt lat="44.13482" lon="7.32188">
        <ele>2501.97</ele>
        <time>2012-08-15T10:52:36Z</time>
      </trkpt>
      <trkpt lat="44.13486" lon="7.32181">
        <ele>2504.37</ele>
        <time>2012-08-15T10:52:51Z</time>
      </trkpt>
      <trkpt lat="44.13491" lon="7.32172">
        <ele>2505.33</ele>
        <time>2012-08-15T10:53:05Z</time>
      </trkpt>
      <trkpt lat="44.13493" lon="7.32171">
        <ele>2506.29</ele>
        <time>2012-08-15T10:53:17Z</time>
      </trkpt>
      <trkpt lat="44.13496" lon="7.32165">
        <ele>2507.74</ele>
        <time>2012-08-15T10:53:31Z</time>
      </trkpt>
      <trkpt lat="44.135" lon="7.32156">
        <ele>2510.14</ele>
        <time>2012-08-15T10:53:45Z</time>
      </trkpt>
      <trkpt lat="44.13505" lon="7.32151">
        <ele>2513.02</ele>
        <time>2012-08-15T10:53:57Z</time>
      </trkpt>
      <trkpt lat="44.13508" lon="7.32142">
        <ele>2514.95</ele>
        <time>2012-08-15T10:54:11Z</time>
      </trkpt>
      <trkpt lat="44.13513" lon="7.32134">
        <ele>2517.35</ele>
        <time>2012-08-15T10:54:24Z</time>
      </trkpt>
      <trkpt lat="44.13518" lon="7.32128">
        <ele>2519.27</ele>
        <time>2012-08-15T10:54:37Z</time>
      </trkpt>
      <trkpt lat="44.13523" lon="7.3212">
        <ele>2520.71</ele>
        <time>2012-08-15T10:54:50Z</time>
      </trkpt>
      <trkpt lat="44.13529" lon="7.32114">
        <ele>2522.64</ele>
        <time>2012-08-15T10:55:04Z</time>
      </trkpt>
      <trkpt lat="44.13534" lon="7.32108">
        <ele>2524.08</ele>
        <time>2012-08-15T10:55:18Z</time>
      </trkpt>
      <trkpt lat="44.13537" lon="7.32102">
        <ele>2526</ele>
        <time>2012-08-15T10:55:31Z</time>
      </trkpt>
      <trkpt lat="44.13541" lon="7.32096">
        <ele>2528.4</ele>
        <time>2012-08-15T10:55:45Z</time>
      </trkpt>
      <trkpt lat="44.13543" lon="7.32094">
        <ele>2528.89</ele>
        <time>2012-08-15T10:55:48Z</time>
      </trkpt>
      <trkpt lat="44.13554" lon="7.3208">
        <ele>2528.89</ele>
        <time>2012-08-15T10:56:05Z</time>
      </trkpt>
      <trkpt lat="44.13557" lon="7.32076">
        <ele>2529.37</ele>
        <time>2012-08-15T10:56:18Z</time>
      </trkpt>
      <trkpt lat="44.13561" lon="7.3207">
        <ele>2527.92</ele>
        <time>2012-08-15T10:56:33Z</time>
      </trkpt>
      <trkpt lat="44.13563" lon="7.32064">
        <ele>2527.92</ele>
        <time>2012-08-15T10:56:47Z</time>
      </trkpt>
      <trkpt lat="44.13566" lon="7.32057">
        <ele>2527.44</ele>
        <time>2012-08-15T10:57:01Z</time>
      </trkpt>
      <trkpt lat="44.13566" lon="7.32057">
        <ele>2526.96</ele>
        <time>2012-08-15T10:57:21Z</time>
      </trkpt>
      <trkpt lat="44.13566" lon="7.3206">
        <ele>2526.96</ele>
        <time>2012-08-15T10:57:39Z</time>
      </trkpt>
      <trkpt lat="44.13566" lon="7.3206">
        <ele>2526.96</ele>
        <time>2012-08-15T10:58:06Z</time>
      </trkpt>
      <trkpt lat="44.13566" lon="7.32055">
        <ele>2527.44</ele>
        <time>2012-08-15T10:58:19Z</time>
      </trkpt>
      <trkpt lat="44.13566" lon="7.32054">
        <ele>2527.44</ele>
        <time>2012-08-15T10:58:36Z</time>
      </trkpt>
      <trkpt lat="44.13566" lon="7.3206">
        <ele>2527.44</ele>
        <time>2012-08-15T10:58:49Z</time>
      </trkpt>
      <trkpt lat="44.13564" lon="7.32072">
        <ele>2528.89</ele>
        <time>2012-08-15T10:59:04Z</time>
      </trkpt>
      <trkpt lat="44.13571" lon="7.32076">
        <ele>2529.37</ele>
        <time>2012-08-15T10:59:17Z</time>
      </trkpt>
      <trkpt lat="44.13572" lon="7.32076">
        <ele>2529.37</ele>
        <time>2012-08-15T10:59:19Z</time>
      </trkpt>
      <trkpt lat="44.13578" lon="7.32076">
        <ele>2530.33</ele>
        <time>2012-08-15T10:59:32Z</time>
      </trkpt>
      <trkpt lat="44.13578" lon="7.32074">
        <ele>2528.89</ele>
        <time>2012-08-15T10:59:53Z</time>
      </trkpt>
      <trkpt lat="44.13578" lon="7.32074">
        <ele>2528.89</ele>
        <time>2012-08-15T10:59:54Z</time>
      </trkpt>
      <trkpt lat="44.13576" lon="7.32066">
        <ele>2529.37</ele>
        <time>2012-08-15T11:00:08Z</time>
      </trkpt>
      <trkpt lat="44.13572" lon="7.32074">
        <ele>2531.77</ele>
        <time>2012-08-15T11:00:21Z</time>
      </trkpt>
      <trkpt lat="44.13572" lon="7.32075">
        <ele>2531.77</ele>
        <time>2012-08-15T11:00:22Z</time>
      </trkpt>
      <trkpt lat="44.13568" lon="7.32077">
        <ele>2531.77</ele>
        <time>2012-08-15T11:00:27Z</time>
      </trkpt>
      <trkpt lat="44.13566" lon="7.32075">
        <ele>2530.33</ele>
        <time>2012-08-15T11:00:30Z</time>
      </trkpt>
      <trkpt lat="44.13562" lon="7.32069">
        <ele>2529.85</ele>
        <time>2012-08-15T11:00:36Z</time>
      </trkpt>
      <trkpt lat="44.13566" lon="7.32056">
        <ele>2528.89</ele>
        <time>2012-08-15T11:00:51Z</time>
      </trkpt>
      <trkpt lat="44.13566" lon="7.32049">
        <ele>2527.92</ele>
        <time>2012-08-15T11:01:04Z</time>
      </trkpt>
      <trkpt lat="44.13571" lon="7.32042">
        <ele>2526</ele>
        <time>2012-08-15T11:01:18Z</time>
      </trkpt>
      <trkpt lat="44.13572" lon="7.32036">
        <ele>2523.6</ele>
        <time>2012-08-15T11:01:26Z</time>
      </trkpt>
      <trkpt lat="44.13571" lon="7.32032">
        <ele>2521.19</ele>
        <time>2012-08-15T11:01:40Z</time>
      </trkpt>
      <trkpt lat="44.13571" lon="7.32032">
        <ele>2521.19</ele>
        <time>2012-08-15T11:01:58Z</time>
      </trkpt>
      <trkpt lat="44.13571" lon="7.32033">
        <ele>2521.19</ele>
        <time>2012-08-15T11:02:15Z</time>
      </trkpt>
      <trkpt lat="44.13571" lon="7.32033">
        <ele>2521.19</ele>
        <time>2012-08-15T11:02:47Z</time>
      </trkpt>
      <trkpt lat="44.13572" lon="7.32034">
        <ele>2521.19</ele>
        <time>2012-08-15T11:03:17Z</time>
      </trkpt>
      <trkpt lat="44.13572" lon="7.32033">
        <ele>2521.19</ele>
        <time>2012-08-15T11:03:51Z</time>
      </trkpt>
      <trkpt lat="44.13571" lon="7.32032">
        <ele>2521.19</ele>
        <time>2012-08-15T11:04:07Z</time>
      </trkpt>
      <trkpt lat="44.13571" lon="7.32032">
        <ele>2521.19</ele>
        <time>2012-08-15T11:04:28Z</time>
      </trkpt>
      <trkpt lat="44.13571" lon="7.32032">
        <ele>2521.19</ele>
        <time>2012-08-15T11:04:48Z</time>
      </trkpt>
      <trkpt lat="44.13571" lon="7.32033">
        <ele>2522.16</ele>
        <time>2012-08-15T11:05:08Z</time>
      </trkpt>
      <trkpt lat="44.13571" lon="7.32033">
        <ele>2522.16</ele>
        <time>2012-08-15T11:05:33Z</time>
      </trkpt>
      <trkpt lat="44.13572" lon="7.32033">
        <ele>2522.64</ele>
        <time>2012-08-15T11:05:50Z</time>
      </trkpt>
      <trkpt lat="44.13572" lon="7.32033">
        <ele>2522.64</ele>
        <time>2012-08-15T11:06:10Z</time>
      </trkpt>
      <trkpt lat="44.13572" lon="7.32033">
        <ele>2522.64</ele>
        <time>2012-08-15T11:06:15Z</time>
      </trkpt>
      <trkpt lat="44.13578" lon="7.3205">
        <ele>2493.8</ele>
        <time>2012-08-15T11:42:49Z</time>
      </trkpt>
      <trkpt lat="44.13576" lon="7.32046">
        <ele>2493.8</ele>
        <time>2012-08-15T11:42:50Z</time>
      </trkpt>
      <trkpt lat="44.13572" lon="7.32028">
        <ele>2499.08</ele>
        <time>2012-08-15T11:43:02Z</time>
      </trkpt>
      <trkpt lat="44.13572" lon="7.32027">
        <ele>2499.08</ele>
        <time>2012-08-15T11:43:03Z</time>
      </trkpt>
      <trkpt lat="44.13572" lon="7.32026">
        <ele>2502.45</ele>
        <time>2012-08-15T11:43:06Z</time>
      </trkpt>
      <trkpt lat="44.13572" lon="7.32025">
        <ele>2505.81</ele>
        <time>2012-08-15T11:43:10Z</time>
      </trkpt>
      <trkpt lat="44.13571" lon="7.32026">
        <ele>2509.18</ele>
        <time>2012-08-15T11:43:15Z</time>
      </trkpt>
      <trkpt lat="44.1357" lon="7.32027">
        <ele>2512.54</ele>
        <time>2012-08-15T11:43:21Z</time>
      </trkpt>
      <trkpt lat="44.13569" lon="7.32027">
        <ele>2515.91</ele>
        <time>2012-08-15T11:43:27Z</time>
      </trkpt>
      <trkpt lat="44.13569" lon="7.32031">
        <ele>2519.27</ele>
        <time>2012-08-15T11:43:36Z</time>
      </trkpt>
      <trkpt lat="44.13568" lon="7.32032">
        <ele>2522.64</ele>
        <time>2012-08-15T11:43:44Z</time>
      </trkpt>
      <trkpt lat="44.13569" lon="7.32033">
        <ele>2525.52</ele>
        <time>2012-08-15T11:44:02Z</time>
      </trkpt>
      <trkpt lat="44.1357" lon="7.32035">
        <ele>2527.44</ele>
        <time>2012-08-15T11:44:18Z</time>
      </trkpt>
      <trkpt lat="44.13571" lon="7.32034">
        <ele>2529.37</ele>
        <time>2012-08-15T11:44:22Z</time>
      </trkpt>
      <trkpt lat="44.13571" lon="7.32034">
        <ele>2532.25</ele>
        <time>2012-08-15T11:44:35Z</time>
      </trkpt>
      <trkpt lat="44.13571" lon="7.32041">
        <ele>2533.21</ele>
        <time>2012-08-15T11:44:47Z</time>
      </trkpt>
      <trkpt lat="44.13571" lon="7.32045">
        <ele>2534.65</ele>
        <time>2012-08-15T11:45:02Z</time>
      </trkpt>
      <trkpt lat="44.1357" lon="7.32046">
        <ele>2535.61</ele>
        <time>2012-08-15T11:45:26Z</time>
      </trkpt>
      <trkpt lat="44.13567" lon="7.32049">
        <ele>2536.58</ele>
        <time>2012-08-15T11:45:40Z</time>
      </trkpt>
      <trkpt lat="44.13566" lon="7.32052">
        <ele>2538.98</ele>
        <time>2012-08-15T11:45:46Z</time>
      </trkpt>
      <trkpt lat="44.13563" lon="7.32064">
        <ele>2540.42</ele>
        <time>2012-08-15T11:46:01Z</time>
      </trkpt>
      <trkpt lat="44.13566" lon="7.32074">
        <ele>2540.9</ele>
        <time>2012-08-15T11:46:15Z</time>
      </trkpt>
      <trkpt lat="44.13577" lon="7.32077">
        <ele>2541.38</ele>
        <time>2012-08-15T11:46:29Z</time>
      </trkpt>
      <trkpt lat="44.13582" lon="7.32085">
        <ele>2541.86</ele>
        <time>2012-08-15T11:46:42Z</time>
      </trkpt>
      <trkpt lat="44.13587" lon="7.32089">
        <ele>2543.31</ele>
        <time>2012-08-15T11:46:56Z</time>
      </trkpt>
      <trkpt lat="44.13587" lon="7.32089">
        <ele>2544.27</ele>
        <time>2012-08-15T11:47:17Z</time>
      </trkpt>
      <trkpt lat="44.13589" lon="7.32092">
        <ele>2543.79</ele>
        <time>2012-08-15T11:47:42Z</time>
      </trkpt>
      <trkpt lat="44.13591" lon="7.321">
        <ele>2544.75</ele>
        <time>2012-08-15T11:47:57Z</time>
      </trkpt>
      <trkpt lat="44.13593" lon="7.321">
        <ele>2545.23</ele>
        <time>2012-08-15T11:48:10Z</time>
      </trkpt>
      <trkpt lat="44.13598" lon="7.32102">
        <ele>2545.23</ele>
        <time>2012-08-15T11:48:23Z</time>
      </trkpt>
      <trkpt lat="44.13601" lon="7.32107">
        <ele>2545.23</ele>
        <time>2012-08-15T11:48:33Z</time>
      </trkpt>
      <trkpt lat="44.13608" lon="7.32105">
        <ele>2545.23</ele>
        <time>2012-08-15T11:48:46Z</time>
      </trkpt>
      <trkpt lat="44.13616" lon="7.32105">
        <ele>2545.23</ele>
        <time>2012-08-15T11:49:02Z</time>
      </trkpt>
      <trkpt lat="44.13618" lon="7.32108">
        <ele>2546.67</ele>
        <time>2012-08-15T11:49:14Z</time>
      </trkpt>
      <trkpt lat="44.13621" lon="7.32111">
        <ele>2549.07</ele>
        <time>2012-08-15T11:49:29Z</time>
      </trkpt>
      <trkpt lat="44.13623" lon="7.32115">
        <ele>2550.51</ele>
        <time>2012-08-15T11:49:42Z</time>
      </trkpt>
      <trkpt lat="44.13632" lon="7.32117">
        <ele>2554.36</ele>
        <time>2012-08-15T11:49:56Z</time>
      </trkpt>
      <trkpt lat="44.13633" lon="7.32118">
        <ele>2558.21</ele>
        <time>2012-08-15T11:49:59Z</time>
      </trkpt>
      <trkpt lat="44.13634" lon="7.32118">
        <ele>2558.21</ele>
        <time>2012-08-15T11:50:00Z</time>
      </trkpt>
      <trkpt lat="44.1364" lon="7.32117">
        <ele>2555.32</ele>
        <time>2012-08-15T11:50:08Z</time>
      </trkpt>
      <trkpt lat="44.13643" lon="7.32117">
        <ele>2551.96</ele>
        <time>2012-08-15T11:50:12Z</time>
      </trkpt>
      <trkpt lat="44.13644" lon="7.32117">
        <ele>2555.32</ele>
        <time>2012-08-15T11:50:19Z</time>
      </trkpt>
      <trkpt lat="44.13644" lon="7.32116">
        <ele>2551.96</ele>
        <time>2012-08-15T11:50:34Z</time>
      </trkpt>
      <trkpt lat="44.13644" lon="7.32116">
        <ele>2553.4</ele>
        <time>2012-08-15T11:50:42Z</time>
      </trkpt>
      <trkpt lat="44.13644" lon="7.32117">
        <ele>2554.84</ele>
        <time>2012-08-15T11:51:07Z</time>
      </trkpt>
      <trkpt lat="44.13645" lon="7.32119">
        <ele>2553.88</ele>
        <time>2012-08-15T11:51:22Z</time>
      </trkpt>
      <trkpt lat="44.13651" lon="7.32121">
        <ele>2553.4</ele>
        <time>2012-08-15T11:51:35Z</time>
      </trkpt>
      <trkpt lat="44.13651" lon="7.32121">
        <ele>2551</ele>
        <time>2012-08-15T11:51:49Z</time>
      </trkpt>
      <trkpt lat="44.13652" lon="7.32119">
        <ele>2550.03</ele>
        <time>2012-08-15T11:52:11Z</time>
      </trkpt>
      <trkpt lat="44.13652" lon="7.32119">
        <ele>2549.55</ele>
        <time>2012-08-15T11:52:35Z</time>
      </trkpt>
      <trkpt lat="44.13652" lon="7.32119">
        <ele>2549.55</ele>
        <time>2012-08-15T11:52:47Z</time>
      </trkpt>
      <trkpt lat="44.13653" lon="7.3212">
        <ele>2549.07</ele>
        <time>2012-08-15T11:52:48Z</time>
      </trkpt>
      <trkpt lat="44.1367" lon="7.32117">
        <ele>2548.11</ele>
        <time>2012-08-15T11:53:04Z</time>
      </trkpt>
      <trkpt lat="44.13676" lon="7.32114">
        <ele>2547.63</ele>
        <time>2012-08-15T11:53:21Z</time>
      </trkpt>
      <trkpt lat="44.13676" lon="7.32114">
        <ele>2546.67</ele>
        <time>2012-08-15T11:53:35Z</time>
      </trkpt>
      <trkpt lat="44.13676" lon="7.32114">
        <ele>2544.75</ele>
        <time>2012-08-15T11:53:48Z</time>
      </trkpt>
      <trkpt lat="44.13676" lon="7.32114">
        <ele>2544.27</ele>
        <time>2012-08-15T11:53:51Z</time>
      </trkpt>
      <trkpt lat="44.13683" lon="7.3212">
        <ele>2543.79</ele>
        <time>2012-08-15T11:54:05Z</time>
      </trkpt>
      <trkpt lat="44.13695" lon="7.32127">
        <ele>2543.79</ele>
        <time>2012-08-15T11:54:19Z</time>
      </trkpt>
      <trkpt lat="44.13696" lon="7.32128">
        <ele>2544.75</ele>
        <time>2012-08-15T11:54:38Z</time>
      </trkpt>
      <trkpt lat="44.13691" lon="7.32127">
        <ele>2544.75</ele>
        <time>2012-08-15T11:54:54Z</time>
      </trkpt>
      <trkpt lat="44.13684" lon="7.32115">
        <ele>2545.23</ele>
        <time>2012-08-15T11:55:07Z</time>
      </trkpt>
      <trkpt lat="44.13684" lon="7.32115">
        <ele>2545.23</ele>
        <time>2012-08-15T11:55:22Z</time>
      </trkpt>
      <trkpt lat="44.13684" lon="7.32115">
        <ele>2543.31</ele>
        <time>2012-08-15T11:55:26Z</time>
      </trkpt>
      <trkpt lat="44.13684" lon="7.32115">
        <ele>2542.34</ele>
        <time>2012-08-15T11:55:41Z</time>
      </trkpt>
      <trkpt lat="44.13686" lon="7.32112">
        <ele>2540.9</ele>
        <time>2012-08-15T11:55:55Z</time>
      </trkpt>
      <trkpt lat="44.13694" lon="7.32086">
        <ele>2540.42</ele>
        <time>2012-08-15T11:56:11Z</time>
      </trkpt>
      <trkpt lat="44.13699" lon="7.3208">
        <ele>2541.38</ele>
        <time>2012-08-15T11:56:26Z</time>
      </trkpt>
      <trkpt lat="44.13703" lon="7.32075">
        <ele>2542.34</ele>
        <time>2012-08-15T11:56:42Z</time>
      </trkpt>
      <trkpt lat="44.13704" lon="7.32075">
        <ele>2542.82</ele>
        <time>2012-08-15T11:57:02Z</time>
      </trkpt>
      <trkpt lat="44.13704" lon="7.32075">
        <ele>2542.82</ele>
        <time>2012-08-15T11:57:19Z</time>
      </trkpt>
      <trkpt lat="44.13704" lon="7.32074">
        <ele>2542.82</ele>
        <time>2012-08-15T11:57:41Z</time>
      </trkpt>
      <trkpt lat="44.13704" lon="7.32074">
        <ele>2542.82</ele>
        <time>2012-08-15T11:58:01Z</time>
      </trkpt>
      <trkpt lat="44.13701" lon="7.32074">
        <ele>2542.82</ele>
        <time>2012-08-15T11:58:16Z</time>
      </trkpt>
      <trkpt lat="44.13697" lon="7.32077">
        <ele>2542.82</ele>
        <time>2012-08-15T11:58:30Z</time>
      </trkpt>
      <trkpt lat="44.13697" lon="7.32077">
        <ele>2541.38</ele>
        <time>2012-08-15T11:58:48Z</time>
      </trkpt>
      <trkpt lat="44.13697" lon="7.32077">
        <ele>2541.38</ele>
        <time>2012-08-15T11:58:52Z</time>
      </trkpt>
      <trkpt lat="44.13708" lon="7.32089">
        <ele>2539.94</ele>
        <time>2012-08-15T11:59:08Z</time>
      </trkpt>
      <trkpt lat="44.13709" lon="7.32099">
        <ele>2539.94</ele>
        <time>2012-08-15T11:59:22Z</time>
      </trkpt>
      <trkpt lat="44.13717" lon="7.321">
        <ele>2541.86</ele>
        <time>2012-08-15T11:59:36Z</time>
      </trkpt>
      <trkpt lat="44.13717" lon="7.321">
        <ele>2542.34</ele>
        <time>2012-08-15T11:59:54Z</time>
      </trkpt>
      <trkpt lat="44.13718" lon="7.321">
        <ele>2542.82</ele>
        <time>2012-08-15T12:00:24Z</time>
      </trkpt>
      <trkpt lat="44.13718" lon="7.32097">
        <ele>2542.82</ele>
        <time>2012-08-15T12:00:52Z</time>
      </trkpt>
      <trkpt lat="44.13718" lon="7.32097">
        <ele>2542.82</ele>
        <time>2012-08-15T12:01:16Z</time>
      </trkpt>
      <trkpt lat="44.13718" lon="7.32098">
        <ele>2542.82</ele>
        <time>2012-08-15T12:01:42Z</time>
      </trkpt>
      <trkpt lat="44.13716" lon="7.32101">
        <ele>2542.82</ele>
        <time>2012-08-15T12:01:45Z</time>
      </trkpt>
      <trkpt lat="44.13706" lon="7.32116">
        <ele>2542.82</ele>
        <time>2012-08-15T12:02:01Z</time>
      </trkpt>
      <trkpt lat="44.137" lon="7.32117">
        <ele>2544.75</ele>
        <time>2012-08-15T12:02:14Z</time>
      </trkpt>
      <trkpt lat="44.13698" lon="7.32122">
        <ele>2548.59</ele>
        <time>2012-08-15T12:02:24Z</time>
      </trkpt>
      <trkpt lat="44.13698" lon="7.32122">
        <ele>2549.07</ele>
        <time>2012-08-15T12:02:26Z</time>
      </trkpt>
      <trkpt lat="44.13698" lon="7.32122">
        <ele>2547.63</ele>
        <time>2012-08-15T12:02:48Z</time>
      </trkpt>
      <trkpt lat="44.13698" lon="7.32124">
        <ele>2547.63</ele>
        <time>2012-08-15T12:03:03Z</time>
      </trkpt>
      <trkpt lat="44.13692" lon="7.32125">
        <ele>2547.15</ele>
        <time>2012-08-15T12:03:15Z</time>
      </trkpt>
      <trkpt lat="44.13683" lon="7.32136">
        <ele>2547.15</ele>
        <time>2012-08-15T12:03:30Z</time>
      </trkpt>
      <trkpt lat="44.13678" lon="7.32139">
        <ele>2548.11</ele>
        <time>2012-08-15T12:03:45Z</time>
      </trkpt>
      <trkpt lat="44.13672" lon="7.32139">
        <ele>2550.03</ele>
        <time>2012-08-15T12:04:00Z</time>
      </trkpt>
      <trkpt lat="44.13663" lon="7.32144">
        <ele>2552.44</ele>
        <time>2012-08-15T12:04:15Z</time>
      </trkpt>
      <trkpt lat="44.13663" lon="7.32149">
        <ele>2554.84</ele>
        <time>2012-08-15T12:04:29Z</time>
      </trkpt>
      <trkpt lat="44.13665" lon="7.32162">
        <ele>2556.76</ele>
        <time>2012-08-15T12:04:45Z</time>
      </trkpt>
      <trkpt lat="44.13671" lon="7.32166">
        <ele>2558.21</ele>
        <time>2012-08-15T12:04:59Z</time>
      </trkpt>
      <trkpt lat="44.13671" lon="7.32166">
        <ele>2557.73</ele>
        <time>2012-08-15T12:05:06Z</time>
      </trkpt>
      <trkpt lat="44.13679" lon="7.32176">
        <ele>2559.17</ele>
        <time>2012-08-15T12:05:21Z</time>
      </trkpt>
      <trkpt lat="44.13685" lon="7.32188">
        <ele>2560.61</ele>
        <time>2012-08-15T12:05:36Z</time>
      </trkpt>
      <trkpt lat="44.13684" lon="7.32187">
        <ele>2561.09</ele>
        <time>2012-08-15T12:06:01Z</time>
      </trkpt>
      <trkpt lat="44.13685" lon="7.32187">
        <ele>2561.09</ele>
        <time>2012-08-15T12:06:24Z</time>
      </trkpt>
      <trkpt lat="44.13685" lon="7.32187">
        <ele>2561.09</ele>
        <time>2012-08-15T12:06:50Z</time>
      </trkpt>
      <trkpt lat="44.13684" lon="7.32186">
        <ele>2561.09</ele>
        <time>2012-08-15T12:07:18Z</time>
      </trkpt>
      <trkpt lat="44.13671" lon="7.32177">
        <ele>2561.09</ele>
        <time>2012-08-15T12:07:34Z</time>
      </trkpt>
      <trkpt lat="44.13666" lon="7.32174">
        <ele>2561.09</ele>
        <time>2012-08-15T12:07:45Z</time>
      </trkpt>
      <trkpt lat="44.13658" lon="7.32178">
        <ele>2561.09</ele>
        <time>2012-08-15T12:08:02Z</time>
      </trkpt>
      <trkpt lat="44.13653" lon="7.32189">
        <ele>2562.53</ele>
        <time>2012-08-15T12:08:17Z</time>
      </trkpt>
      <trkpt lat="44.13646" lon="7.32187">
        <ele>2562.53</ele>
        <time>2012-08-15T12:08:30Z</time>
      </trkpt>
      <trkpt lat="44.13638" lon="7.32174">
        <ele>2562.53</ele>
        <time>2012-08-15T12:08:44Z</time>
      </trkpt>
      <trkpt lat="44.13636" lon="7.32172">
        <ele>2562.53</ele>
        <time>2012-08-15T12:08:57Z</time>
      </trkpt>
      <trkpt lat="44.13633" lon="7.32183">
        <ele>2563.49</ele>
        <time>2012-08-15T12:09:12Z</time>
      </trkpt>
      <trkpt lat="44.13629" lon="7.32189">
        <ele>2564.45</ele>
        <time>2012-08-15T12:09:20Z</time>
      </trkpt>
      <trkpt lat="44.13625" lon="7.32191">
        <ele>2564.93</ele>
        <time>2012-08-15T12:09:25Z</time>
      </trkpt>
      <trkpt lat="44.13615" lon="7.32196">
        <ele>2565.42</ele>
        <time>2012-08-15T12:09:39Z</time>
      </trkpt>
      <trkpt lat="44.13612" lon="7.32199">
        <ele>2565.9</ele>
        <time>2012-08-15T12:09:44Z</time>
      </trkpt>
      <trkpt lat="44.13607" lon="7.32206">
        <ele>2566.38</ele>
        <time>2012-08-15T12:09:52Z</time>
      </trkpt>
      <trkpt lat="44.13597" lon="7.32212">
        <ele>2566.38</ele>
        <time>2012-08-15T12:10:04Z</time>
      </trkpt>
      <trkpt lat="44.13593" lon="7.32211">
        <ele>2567.82</ele>
        <time>2012-08-15T12:10:18Z</time>
      </trkpt>
      <trkpt lat="44.13588" lon="7.32204">
        <ele>2569.74</ele>
        <time>2012-08-15T12:10:30Z</time>
      </trkpt>
      <trkpt lat="44.13586" lon="7.32206">
        <ele>2572.14</ele>
        <time>2012-08-15T12:10:36Z</time>
      </trkpt>
      <trkpt lat="44.1358" lon="7.32214">
        <ele>2574.55</ele>
        <time>2012-08-15T12:10:50Z</time>
      </trkpt>
      <trkpt lat="44.13577" lon="7.32216">
        <ele>2573.59</ele>
        <time>2012-08-15T12:11:05Z</time>
      </trkpt>
      <trkpt lat="44.13577" lon="7.32216">
        <ele>2573.59</ele>
        <time>2012-08-15T12:11:29Z</time>
      </trkpt>
      <trkpt lat="44.13577" lon="7.32217">
        <ele>2573.59</ele>
        <time>2012-08-15T12:11:50Z</time>
      </trkpt>
      <trkpt lat="44.13572" lon="7.32217">
        <ele>2572.63</ele>
        <time>2012-08-15T12:12:03Z</time>
      </trkpt>
      <trkpt lat="44.13563" lon="7.32219">
        <ele>2571.66</ele>
        <time>2012-08-15T12:12:16Z</time>
      </trkpt>
      <trkpt lat="44.13563" lon="7.32219">
        <ele>2569.26</ele>
        <time>2012-08-15T12:12:38Z</time>
      </trkpt>
      <trkpt lat="44.13563" lon="7.32219">
        <ele>2569.26</ele>
        <time>2012-08-15T12:12:44Z</time>
      </trkpt>
      <trkpt lat="44.13562" lon="7.32227">
        <ele>2569.26</ele>
        <time>2012-08-15T12:12:50Z</time>
      </trkpt>
      <trkpt lat="44.13554" lon="7.3224">
        <ele>2568.3</ele>
        <time>2012-08-15T12:13:08Z</time>
      </trkpt>
      <trkpt lat="44.13554" lon="7.32244">
        <ele>2566.86</ele>
        <time>2012-08-15T12:13:31Z</time>
      </trkpt>
      <trkpt lat="44.13554" lon="7.32244">
        <ele>2566.86</ele>
        <time>2012-08-15T12:13:49Z</time>
      </trkpt>
      <trkpt lat="44.13554" lon="7.32244">
        <ele>2566.86</ele>
        <time>2012-08-15T12:14:14Z</time>
      </trkpt>
      <trkpt lat="44.13554" lon="7.32244">
        <ele>2566.86</ele>
        <time>2012-08-15T12:14:39Z</time>
      </trkpt>
      <trkpt lat="44.13555" lon="7.32244">
        <ele>2564.45</ele>
        <time>2012-08-15T12:14:50Z</time>
      </trkpt>
      <trkpt lat="44.13555" lon="7.32244">
        <ele>2567.34</ele>
        <time>2012-08-15T12:14:57Z</time>
      </trkpt>
      <trkpt lat="44.13557" lon="7.3225">
        <ele>2569.26</ele>
        <time>2012-08-15T12:15:11Z</time>
      </trkpt>
      <trkpt lat="44.13556" lon="7.32251">
        <ele>2567.34</ele>
        <time>2012-08-15T12:15:13Z</time>
      </trkpt>
      <trkpt lat="44.13554" lon="7.32257">
        <ele>2565.42</ele>
        <time>2012-08-15T12:15:30Z</time>
      </trkpt>
      <trkpt lat="44.1355" lon="7.32258">
        <ele>2564.93</ele>
        <time>2012-08-15T12:15:45Z</time>
      </trkpt>
      <trkpt lat="44.13547" lon="7.32259">
        <ele>2563.97</ele>
        <time>2012-08-15T12:15:57Z</time>
      </trkpt>
      <trkpt lat="44.13545" lon="7.3226">
        <ele>2562.05</ele>
        <time>2012-08-15T12:16:13Z</time>
      </trkpt>
      <trkpt lat="44.13541" lon="7.32262">
        <ele>2561.09</ele>
        <time>2012-08-15T12:16:25Z</time>
      </trkpt>
      <trkpt lat="44.13541" lon="7.32262">
        <ele>2559.17</ele>
        <time>2012-08-15T12:16:40Z</time>
      </trkpt>
      <trkpt lat="44.13538" lon="7.32267">
        <ele>2556.76</ele>
        <time>2012-08-15T12:16:55Z</time>
      </trkpt>
      <trkpt lat="44.13538" lon="7.32269">
        <ele>2555.8</ele>
        <time>2012-08-15T12:17:07Z</time>
      </trkpt>
      <trkpt lat="44.13535" lon="7.32272">
        <ele>2554.84</ele>
        <time>2012-08-15T12:17:18Z</time>
      </trkpt>
      <trkpt lat="44.13532" lon="7.32276">
        <ele>2552.44</ele>
        <time>2012-08-15T12:17:31Z</time>
      </trkpt>
      <trkpt lat="44.1353" lon="7.32277">
        <ele>2551</ele>
        <time>2012-08-15T12:17:45Z</time>
      </trkpt>
      <trkpt lat="44.13529" lon="7.32286">
        <ele>2550.03</ele>
        <time>2012-08-15T12:17:57Z</time>
      </trkpt>
      <trkpt lat="44.13525" lon="7.32292">
        <ele>2549.55</ele>
        <time>2012-08-15T12:18:03Z</time>
      </trkpt>
      <trkpt lat="44.13522" lon="7.32294">
        <ele>2549.55</ele>
        <time>2012-08-15T12:18:06Z</time>
      </trkpt>
      <trkpt lat="44.1352" lon="7.32293">
        <ele>2549.07</ele>
        <time>2012-08-15T12:18:08Z</time>
      </trkpt>
      <trkpt lat="44.13513" lon="7.32292">
        <ele>2548.59</ele>
        <time>2012-08-15T12:18:25Z</time>
      </trkpt>
      <trkpt lat="44.13513" lon="7.32291">
        <ele>2548.59</ele>
        <time>2012-08-15T12:18:37Z</time>
      </trkpt>
      <trkpt lat="44.13513" lon="7.3229">
        <ele>2548.59</ele>
        <time>2012-08-15T12:18:58Z</time>
      </trkpt>
      <trkpt lat="44.13517" lon="7.32291">
        <ele>2548.59</ele>
        <time>2012-08-15T12:19:04Z</time>
      </trkpt>
      <trkpt lat="44.13518" lon="7.32303">
        <ele>2549.55</ele>
        <time>2012-08-15T12:19:16Z</time>
      </trkpt>
      <trkpt lat="44.13517" lon="7.32311">
        <ele>2550.51</ele>
        <time>2012-08-15T12:19:32Z</time>
      </trkpt>
      <trkpt lat="44.13512" lon="7.32323">
        <ele>2552.44</ele>
        <time>2012-08-15T12:19:48Z</time>
      </trkpt>
      <trkpt lat="44.13511" lon="7.32326">
        <ele>2552.92</ele>
        <time>2012-08-15T12:20:02Z</time>
      </trkpt>
      <trkpt lat="44.13511" lon="7.32326">
        <ele>2552.92</ele>
        <time>2012-08-15T12:20:29Z</time>
      </trkpt>
      <trkpt lat="44.1351" lon="7.32327">
        <ele>2552.92</ele>
        <time>2012-08-15T12:20:43Z</time>
      </trkpt>
      <trkpt lat="44.13505" lon="7.32331">
        <ele>2552.92</ele>
        <time>2012-08-15T12:20:57Z</time>
      </trkpt>
      <trkpt lat="44.13503" lon="7.32334">
        <ele>2551.96</ele>
        <time>2012-08-15T12:21:02Z</time>
      </trkpt>
      <trkpt lat="44.13498" lon="7.32338">
        <ele>2550.51</ele>
        <time>2012-08-15T12:21:15Z</time>
      </trkpt>
      <trkpt lat="44.13498" lon="7.32338">
        <ele>2550.03</ele>
        <time>2012-08-15T12:21:44Z</time>
      </trkpt>
      <trkpt lat="44.13496" lon="7.32341">
        <ele>2550.03</ele>
        <time>2012-08-15T12:22:05Z</time>
      </trkpt>
      <trkpt lat="44.13491" lon="7.32347">
        <ele>2549.55</ele>
        <time>2012-08-15T12:22:18Z</time>
      </trkpt>
      <trkpt lat="44.13488" lon="7.32349">
        <ele>2547.15</ele>
        <time>2012-08-15T12:22:33Z</time>
      </trkpt>
      <trkpt lat="44.13484" lon="7.32354">
        <ele>2545.23</ele>
        <time>2012-08-15T12:22:50Z</time>
      </trkpt>
      <trkpt lat="44.13482" lon="7.32355">
        <ele>2541.38</ele>
        <time>2012-08-15T12:22:54Z</time>
      </trkpt>
      <trkpt lat="44.13478" lon="7.32358">
        <ele>2539.46</ele>
        <time>2012-08-15T12:23:05Z</time>
      </trkpt>
      <trkpt lat="44.13471" lon="7.3236">
        <ele>2539.46</ele>
        <time>2012-08-15T12:23:19Z</time>
      </trkpt>
      <trkpt lat="44.13468" lon="7.32366">
        <ele>2538.02</ele>
        <time>2012-08-15T12:23:33Z</time>
      </trkpt>
      <trkpt lat="44.13464" lon="7.3237">
        <ele>2536.1</ele>
        <time>2012-08-15T12:23:47Z</time>
      </trkpt>
      <trkpt lat="44.13461" lon="7.32374">
        <ele>2534.17</ele>
        <time>2012-08-15T12:23:59Z</time>
      </trkpt>
      <trkpt lat="44.13456" lon="7.32378">
        <ele>2531.29</ele>
        <time>2012-08-15T12:24:14Z</time>
      </trkpt>
      <trkpt lat="44.13456" lon="7.32383">
        <ele>2529.85</ele>
        <time>2012-08-15T12:24:28Z</time>
      </trkpt>
      <trkpt lat="44.13453" lon="7.32386">
        <ele>2527.92</ele>
        <time>2012-08-15T12:24:41Z</time>
      </trkpt>
      <trkpt lat="44.13449" lon="7.32385">
        <ele>2526.48</ele>
        <time>2012-08-15T12:24:54Z</time>
      </trkpt>
      <trkpt lat="44.13449" lon="7.32387">
        <ele>2524.08</ele>
        <time>2012-08-15T12:25:08Z</time>
      </trkpt>
      <trkpt lat="44.13448" lon="7.32389">
        <ele>2522.64</ele>
        <time>2012-08-15T12:25:33Z</time>
      </trkpt>
      <trkpt lat="44.13443" lon="7.32393">
        <ele>2521.19</ele>
        <time>2012-08-15T12:25:46Z</time>
      </trkpt>
      <trkpt lat="44.1344" lon="7.32397">
        <ele>2519.75</ele>
        <time>2012-08-15T12:25:57Z</time>
      </trkpt>
      <trkpt lat="44.13431" lon="7.32399">
        <ele>2518.79</ele>
        <time>2012-08-15T12:26:09Z</time>
      </trkpt>
      <trkpt lat="44.13427" lon="7.324">
        <ele>2517.83</ele>
        <time>2012-08-15T12:26:23Z</time>
      </trkpt>
      <trkpt lat="44.13422" lon="7.32399">
        <ele>2517.83</ele>
        <time>2012-08-15T12:26:40Z</time>
      </trkpt>
      <trkpt lat="44.13422" lon="7.32398">
        <ele>2517.35</ele>
        <time>2012-08-15T12:27:00Z</time>
      </trkpt>
      <trkpt lat="44.13422" lon="7.32398">
        <ele>2516.39</ele>
        <time>2012-08-15T12:27:23Z</time>
      </trkpt>
      <trkpt lat="44.13422" lon="7.32398">
        <ele>2515.91</ele>
        <time>2012-08-15T12:27:54Z</time>
      </trkpt>
      <trkpt lat="44.13422" lon="7.32399">
        <ele>2515.91</ele>
        <time>2012-08-15T12:28:22Z</time>
      </trkpt>
      <trkpt lat="44.13418" lon="7.32399">
        <ele>2515.91</ele>
        <time>2012-08-15T12:28:35Z</time>
      </trkpt>
      <trkpt lat="44.13411" lon="7.32408">
        <ele>2516.39</ele>
        <time>2012-08-15T12:28:49Z</time>
      </trkpt>
      <trkpt lat="44.13407" lon="7.3241">
        <ele>2515.43</ele>
        <time>2012-08-15T12:28:55Z</time>
      </trkpt>
      <trkpt lat="44.13405" lon="7.32412">
        <ele>2515.43</ele>
        <time>2012-08-15T12:28:58Z</time>
      </trkpt>
      <trkpt lat="44.13399" lon="7.32418">
        <ele>2515.91</ele>
        <time>2012-08-15T12:29:07Z</time>
      </trkpt>
      <trkpt lat="44.13394" lon="7.32426">
        <ele>2515.43</ele>
        <time>2012-08-15T12:29:21Z</time>
      </trkpt>
      <trkpt lat="44.1339" lon="7.32437">
        <ele>2515.43</ele>
        <time>2012-08-15T12:29:36Z</time>
      </trkpt>
      <trkpt lat="44.13389" lon="7.32438">
        <ele>2514.95</ele>
        <time>2012-08-15T12:29:53Z</time>
      </trkpt>
      <trkpt lat="44.13389" lon="7.32438">
        <ele>2514.95</ele>
        <time>2012-08-15T12:30:14Z</time>
      </trkpt>
      <trkpt lat="44.13389" lon="7.32438">
        <ele>2513.5</ele>
        <time>2012-08-15T12:30:42Z</time>
      </trkpt>
      <trkpt lat="44.13388" lon="7.32438">
        <ele>2513.02</ele>
        <time>2012-08-15T12:31:13Z</time>
      </trkpt>
      <trkpt lat="44.13385" lon="7.32448">
        <ele>2513.02</ele>
        <time>2012-08-15T12:31:24Z</time>
      </trkpt>
      <trkpt lat="44.13383" lon="7.32454">
        <ele>2513.5</ele>
        <time>2012-08-15T12:31:33Z</time>
      </trkpt>
      <trkpt lat="44.13376" lon="7.32472">
        <ele>2513.5</ele>
        <time>2012-08-15T12:31:51Z</time>
      </trkpt>
      <trkpt lat="44.13372" lon="7.32482">
        <ele>2514.95</ele>
        <time>2012-08-15T12:32:03Z</time>
      </trkpt>
      <trkpt lat="44.1337" lon="7.32487">
        <ele>2514.95</ele>
        <time>2012-08-15T12:32:17Z</time>
      </trkpt>
      <trkpt lat="44.13365" lon="7.32497">
        <ele>2514.95</ele>
        <time>2012-08-15T12:32:30Z</time>
      </trkpt>
      <trkpt lat="44.13365" lon="7.32508">
        <ele>2514.95</ele>
        <time>2012-08-15T12:32:41Z</time>
      </trkpt>
      <trkpt lat="44.13365" lon="7.32513">
        <ele>2513.5</ele>
        <time>2012-08-15T12:32:54Z</time>
      </trkpt>
      <trkpt lat="44.13363" lon="7.32518">
        <ele>2513.5</ele>
        <time>2012-08-15T12:33:10Z</time>
      </trkpt>
      <trkpt lat="44.13352" lon="7.32521">
        <ele>2513.02</ele>
        <time>2012-08-15T12:33:24Z</time>
      </trkpt>
      <trkpt lat="44.13348" lon="7.32525">
        <ele>2513.02</ele>
        <time>2012-08-15T12:33:40Z</time>
      </trkpt>
      <trkpt lat="44.13346" lon="7.32526">
        <ele>2513.02</ele>
        <time>2012-08-15T12:33:42Z</time>
      </trkpt>
      <trkpt lat="44.13343" lon="7.32529">
        <ele>2513.02</ele>
        <time>2012-08-15T12:33:46Z</time>
      </trkpt>
      <trkpt lat="44.13337" lon="7.32533">
        <ele>2512.54</ele>
        <time>2012-08-15T12:34:00Z</time>
      </trkpt>
      <trkpt lat="44.13333" lon="7.32533">
        <ele>2512.06</ele>
        <time>2012-08-15T12:34:15Z</time>
      </trkpt>
      <trkpt lat="44.13331" lon="7.32532">
        <ele>2511.58</ele>
        <time>2012-08-15T12:34:46Z</time>
      </trkpt>
      <trkpt lat="44.13329" lon="7.32529">
        <ele>2511.1</ele>
        <time>2012-08-15T12:35:02Z</time>
      </trkpt>
      <trkpt lat="44.13329" lon="7.32529">
        <ele>2510.62</ele>
        <time>2012-08-15T12:35:21Z</time>
      </trkpt>
      <trkpt lat="44.13327" lon="7.32537">
        <ele>2510.62</ele>
        <time>2012-08-15T12:35:34Z</time>
      </trkpt>
      <trkpt lat="44.13326" lon="7.32539">
        <ele>2509.18</ele>
        <time>2012-08-15T12:35:57Z</time>
      </trkpt>
      <trkpt lat="44.13326" lon="7.32539">
        <ele>2509.18</ele>
        <time>2012-08-15T12:36:15Z</time>
      </trkpt>
      <trkpt lat="44.13326" lon="7.32539">
        <ele>2508.7</ele>
        <time>2012-08-15T12:36:36Z</time>
      </trkpt>
      <trkpt lat="44.13326" lon="7.32539">
        <ele>2508.7</ele>
        <time>2012-08-15T12:36:55Z</time>
      </trkpt>
      <trkpt lat="44.13326" lon="7.32538">
        <ele>2508.7</ele>
        <time>2012-08-15T12:37:10Z</time>
      </trkpt>
      <trkpt lat="44.13326" lon="7.32538">
        <ele>2508.7</ele>
        <time>2012-08-15T12:37:49Z</time>
      </trkpt>
      <trkpt lat="44.13326" lon="7.3254">
        <ele>2508.7</ele>
        <time>2012-08-15T12:38:18Z</time>
      </trkpt>
      <trkpt lat="44.13326" lon="7.32539">
        <ele>2508.22</ele>
        <time>2012-08-15T12:38:42Z</time>
      </trkpt>
      <trkpt lat="44.13325" lon="7.32542">
        <ele>2508.22</ele>
        <time>2012-08-15T12:39:01Z</time>
      </trkpt>
      <trkpt lat="44.13316" lon="7.32547">
        <ele>2508.22</ele>
        <time>2012-08-15T12:39:16Z</time>
      </trkpt>
      <trkpt lat="44.13313" lon="7.3256">
        <ele>2507.26</ele>
        <time>2012-08-15T12:39:30Z</time>
      </trkpt>
      <trkpt lat="44.13306" lon="7.32567">
        <ele>2505.33</ele>
        <time>2012-08-15T12:39:43Z</time>
      </trkpt>
      <trkpt lat="44.133" lon="7.3257">
        <ele>2502.93</ele>
        <time>2012-08-15T12:39:59Z</time>
      </trkpt>
      <trkpt lat="44.13299" lon="7.32574">
        <ele>2499.57</ele>
        <time>2012-08-15T12:40:04Z</time>
      </trkpt>
      <trkpt lat="44.13294" lon="7.3258">
        <ele>2497.16</ele>
        <time>2012-08-15T12:40:18Z</time>
      </trkpt>
      <trkpt lat="44.13291" lon="7.32585">
        <ele>2497.64</ele>
        <time>2012-08-15T12:40:30Z</time>
      </trkpt>
      <trkpt lat="44.13291" lon="7.32586">
        <ele>2497.64</ele>
        <time>2012-08-15T12:40:31Z</time>
      </trkpt>
      <trkpt lat="44.1329" lon="7.32588">
        <ele>2497.64</ele>
        <time>2012-08-15T12:40:33Z</time>
      </trkpt>
      <trkpt lat="44.13278" lon="7.32597">
        <ele>2495.72</ele>
        <time>2012-08-15T12:40:49Z</time>
      </trkpt>
      <trkpt lat="44.13274" lon="7.32604">
        <ele>2494.76</ele>
        <time>2012-08-15T12:41:01Z</time>
      </trkpt>
      <trkpt lat="44.13271" lon="7.32617">
        <ele>2494.28</ele>
        <time>2012-08-15T12:41:15Z</time>
      </trkpt>
      <trkpt lat="44.13267" lon="7.32624">
        <ele>2493.32</ele>
        <time>2012-08-15T12:41:28Z</time>
      </trkpt>
      <trkpt lat="44.13266" lon="7.32629">
        <ele>2491.39</ele>
        <time>2012-08-15T12:41:39Z</time>
      </trkpt>
      <trkpt lat="44.13263" lon="7.32639">
        <ele>2489.47</ele>
        <time>2012-08-15T12:41:51Z</time>
      </trkpt>
      <trkpt lat="44.13259" lon="7.32644">
        <ele>2488.03</ele>
        <time>2012-08-15T12:42:04Z</time>
      </trkpt>
      <trkpt lat="44.13251" lon="7.32655">
        <ele>2486.11</ele>
        <time>2012-08-15T12:42:18Z</time>
      </trkpt>
      <trkpt lat="44.13245" lon="7.32657">
        <ele>2485.63</ele>
        <time>2012-08-15T12:42:30Z</time>
      </trkpt>
      <trkpt lat="44.13241" lon="7.32668">
        <ele>2485.15</ele>
        <time>2012-08-15T12:42:43Z</time>
      </trkpt>
      <trkpt lat="44.13239" lon="7.32678">
        <ele>2483.22</ele>
        <time>2012-08-15T12:42:56Z</time>
      </trkpt>
      <trkpt lat="44.13238" lon="7.32687">
        <ele>2479.86</ele>
        <time>2012-08-15T12:43:06Z</time>
      </trkpt>
      <trkpt lat="44.13237" lon="7.3269">
        <ele>2476.49</ele>
        <time>2012-08-15T12:43:10Z</time>
      </trkpt>
      <trkpt lat="44.13233" lon="7.32699">
        <ele>2475.53</ele>
        <time>2012-08-15T12:43:25Z</time>
      </trkpt>
      <trkpt lat="44.13231" lon="7.32707">
        <ele>2474.09</ele>
        <time>2012-08-15T12:43:40Z</time>
      </trkpt>
      <trkpt lat="44.13231" lon="7.32709">
        <ele>2472.17</ele>
        <time>2012-08-15T12:43:43Z</time>
      </trkpt>
      <trkpt lat="44.13232" lon="7.32713">
        <ele>2468.32</ele>
        <time>2012-08-15T12:43:48Z</time>
      </trkpt>
      <trkpt lat="44.13228" lon="7.32717">
        <ele>2467.84</ele>
        <time>2012-08-15T12:44:02Z</time>
      </trkpt>
      <trkpt lat="44.13221" lon="7.32717">
        <ele>2466.4</ele>
        <time>2012-08-15T12:44:16Z</time>
      </trkpt>
      <trkpt lat="44.13216" lon="7.32722">
        <ele>2464</ele>
        <time>2012-08-15T12:44:31Z</time>
      </trkpt>
      <trkpt lat="44.13214" lon="7.32727">
        <ele>2461.59</ele>
        <time>2012-08-15T12:44:45Z</time>
      </trkpt>
      <trkpt lat="44.13208" lon="7.32733">
        <ele>2458.71</ele>
        <time>2012-08-15T12:44:59Z</time>
      </trkpt>
      <trkpt lat="44.13205" lon="7.32739">
        <ele>2455.82</ele>
        <time>2012-08-15T12:45:12Z</time>
      </trkpt>
      <trkpt lat="44.132" lon="7.32747">
        <ele>2452.94</ele>
        <time>2012-08-15T12:45:28Z</time>
      </trkpt>
      <trkpt lat="44.13196" lon="7.3275">
        <ele>2451.02</ele>
        <time>2012-08-15T12:45:43Z</time>
      </trkpt>
      <trkpt lat="44.1319" lon="7.32754">
        <ele>2449.1</ele>
        <time>2012-08-15T12:45:58Z</time>
      </trkpt>
      <trkpt lat="44.13183" lon="7.32752">
        <ele>2446.69</ele>
        <time>2012-08-15T12:46:11Z</time>
      </trkpt>
      <trkpt lat="44.1318" lon="7.32751">
        <ele>2443.33</ele>
        <time>2012-08-15T12:46:17Z</time>
      </trkpt>
      <trkpt lat="44.13176" lon="7.32753">
        <ele>2441.89</ele>
        <time>2012-08-15T12:46:32Z</time>
      </trkpt>
      <trkpt lat="44.13176" lon="7.32752">
        <ele>2440.92</ele>
        <time>2012-08-15T12:46:43Z</time>
      </trkpt>
      <trkpt lat="44.13176" lon="7.32753">
        <ele>2439.96</ele>
        <time>2012-08-15T12:47:22Z</time>
      </trkpt>
      <trkpt lat="44.13176" lon="7.32753">
        <ele>2439</ele>
        <time>2012-08-15T12:47:47Z</time>
      </trkpt>
      <trkpt lat="44.13176" lon="7.32753">
        <ele>2439</ele>
        <time>2012-08-15T12:47:59Z</time>
      </trkpt>
      <trkpt lat="44.13176" lon="7.32753">
        <ele>2439</ele>
        <time>2012-08-15T12:48:25Z</time>
      </trkpt>
      <trkpt lat="44.13175" lon="7.32752">
        <ele>2439</ele>
        <time>2012-08-15T12:48:47Z</time>
      </trkpt>
      <trkpt lat="44.13174" lon="7.32757">
        <ele>2439</ele>
        <time>2012-08-15T12:49:05Z</time>
      </trkpt>
      <trkpt lat="44.13172" lon="7.32764">
        <ele>2438.04</ele>
        <time>2012-08-15T12:49:19Z</time>
      </trkpt>
      <trkpt lat="44.13168" lon="7.32771">
        <ele>2436.12</ele>
        <time>2012-08-15T12:49:33Z</time>
      </trkpt>
      <trkpt lat="44.13168" lon="7.32781">
        <ele>2434.2</ele>
        <time>2012-08-15T12:49:46Z</time>
      </trkpt>
      <trkpt lat="44.13166" lon="7.32788">
        <ele>2432.27</ele>
        <time>2012-08-15T12:50:00Z</time>
      </trkpt>
      <trkpt lat="44.13165" lon="7.32794">
        <ele>2428.91</ele>
        <time>2012-08-15T12:50:14Z</time>
      </trkpt>
      <trkpt lat="44.13162" lon="7.32796">
        <ele>2426.99</ele>
        <time>2012-08-15T12:50:25Z</time>
      </trkpt>
      <trkpt lat="44.13161" lon="7.32802">
        <ele>2425.06</ele>
        <time>2012-08-15T12:50:39Z</time>
      </trkpt>
      <trkpt lat="44.13165" lon="7.32808">
        <ele>2423.62</ele>
        <time>2012-08-15T12:50:47Z</time>
      </trkpt>
      <trkpt lat="44.1317" lon="7.32818">
        <ele>2423.62</ele>
        <time>2012-08-15T12:51:03Z</time>
      </trkpt>
      <trkpt lat="44.13175" lon="7.32826">
        <ele>2422.18</ele>
        <time>2012-08-15T12:51:20Z</time>
      </trkpt>
      <trkpt lat="44.13188" lon="7.32832">
        <ele>2420.74</ele>
        <time>2012-08-15T12:51:35Z</time>
      </trkpt>
      <trkpt lat="44.13197" lon="7.32835">
        <ele>2420.26</ele>
        <time>2012-08-15T12:51:48Z</time>
      </trkpt>
      <trkpt lat="44.13202" lon="7.32843">
        <ele>2419.78</ele>
        <time>2012-08-15T12:52:04Z</time>
      </trkpt>
      <trkpt lat="44.13207" lon="7.32841">
        <ele>2419.78</ele>
        <time>2012-08-15T12:52:17Z</time>
      </trkpt>
      <trkpt lat="44.1321" lon="7.32837">
        <ele>2419.3</ele>
        <time>2012-08-15T12:52:28Z</time>
      </trkpt>
      <trkpt lat="44.13219" lon="7.32837">
        <ele>2419.78</ele>
        <time>2012-08-15T12:52:42Z</time>
      </trkpt>
      <trkpt lat="44.13217" lon="7.32842">
        <ele>2418.81</ele>
        <time>2012-08-15T12:52:55Z</time>
      </trkpt>
      <trkpt lat="44.1322" lon="7.32844">
        <ele>2417.85</ele>
        <time>2012-08-15T12:53:06Z</time>
      </trkpt>
      <trkpt lat="44.13217" lon="7.32848">
        <ele>2416.41</ele>
        <time>2012-08-15T12:53:21Z</time>
      </trkpt>
      <trkpt lat="44.13217" lon="7.32853">
        <ele>2414.97</ele>
        <time>2012-08-15T12:53:34Z</time>
      </trkpt>
      <trkpt lat="44.13219" lon="7.32859">
        <ele>2413.53</ele>
        <time>2012-08-15T12:53:47Z</time>
      </trkpt>
      <trkpt lat="44.13218" lon="7.32871">
        <ele>2412.57</ele>
        <time>2012-08-15T12:53:59Z</time>
      </trkpt>
      <trkpt lat="44.13219" lon="7.32883">
        <ele>2408.72</ele>
        <time>2012-08-15T12:54:11Z</time>
      </trkpt>
      <trkpt lat="44.13219" lon="7.32888">
        <ele>2406.8</ele>
        <time>2012-08-15T12:54:16Z</time>
      </trkpt>
      <trkpt lat="44.13217" lon="7.32901">
        <ele>2406.32</ele>
        <time>2012-08-15T12:54:29Z</time>
      </trkpt>
      <trkpt lat="44.13214" lon="7.32915">
        <ele>2406.32</ele>
        <time>2012-08-15T12:54:46Z</time>
      </trkpt>
      <trkpt lat="44.13216" lon="7.32922">
        <ele>2403.43</ele>
        <time>2012-08-15T12:55:01Z</time>
      </trkpt>
      <trkpt lat="44.13216" lon="7.32924">
        <ele>2403.43</ele>
        <time>2012-08-15T12:55:03Z</time>
      </trkpt>
      <trkpt lat="44.13215" lon="7.32932">
        <ele>2400.55</ele>
        <time>2012-08-15T12:55:18Z</time>
      </trkpt>
      <trkpt lat="44.13215" lon="7.32932">
        <ele>2399.11</ele>
        <time>2012-08-15T12:55:39Z</time>
      </trkpt>
      <trkpt lat="44.13215" lon="7.32932">
        <ele>2399.11</ele>
        <time>2012-08-15T12:56:02Z</time>
      </trkpt>
      <trkpt lat="44.13215" lon="7.32932">
        <ele>2399.11</ele>
        <time>2012-08-15T12:56:26Z</time>
      </trkpt>
      <trkpt lat="44.13216" lon="7.32932">
        <ele>2399.11</ele>
        <time>2012-08-15T12:56:42Z</time>
      </trkpt>
      <trkpt lat="44.13216" lon="7.32932">
        <ele>2399.11</ele>
        <time>2012-08-15T12:57:04Z</time>
      </trkpt>
      <trkpt lat="44.13213" lon="7.32934">
        <ele>2399.11</ele>
        <time>2012-08-15T12:57:25Z</time>
      </trkpt>
      <trkpt lat="44.13213" lon="7.3294">
        <ele>2397.18</ele>
        <time>2012-08-15T12:57:40Z</time>
      </trkpt>
      <trkpt lat="44.13214" lon="7.32943">
        <ele>2395.26</ele>
        <time>2012-08-15T12:57:52Z</time>
      </trkpt>
      <trkpt lat="44.13212" lon="7.32947">
        <ele>2393.34</ele>
        <time>2012-08-15T12:58:07Z</time>
      </trkpt>
      <trkpt lat="44.13211" lon="7.32951">
        <ele>2391.42</ele>
        <time>2012-08-15T12:58:21Z</time>
      </trkpt>
      <trkpt lat="44.13214" lon="7.32953">
        <ele>2389.01</ele>
        <time>2012-08-15T12:58:34Z</time>
      </trkpt>
      <trkpt lat="44.13219" lon="7.32958">
        <ele>2387.57</ele>
        <time>2012-08-15T12:58:47Z</time>
      </trkpt>
      <trkpt lat="44.13218" lon="7.3296">
        <ele>2385.65</ele>
        <time>2012-08-15T12:59:02Z</time>
      </trkpt>
      <trkpt lat="44.13219" lon="7.32966">
        <ele>2384.69</ele>
        <time>2012-08-15T12:59:17Z</time>
      </trkpt>
      <trkpt lat="44.13215" lon="7.32971">
        <ele>2382.76</ele>
        <time>2012-08-15T12:59:33Z</time>
      </trkpt>
      <trkpt lat="44.13212" lon="7.32977">
        <ele>2379.88</ele>
        <time>2012-08-15T12:59:48Z</time>
      </trkpt>
      <trkpt lat="44.13209" lon="7.32981">
        <ele>2377</ele>
        <time>2012-08-15T13:00:02Z</time>
      </trkpt>
      <trkpt lat="44.13206" lon="7.32983">
        <ele>2375.07</ele>
        <time>2012-08-15T13:00:15Z</time>
      </trkpt>
      <trkpt lat="44.13204" lon="7.32985">
        <ele>2373.15</ele>
        <time>2012-08-15T13:00:29Z</time>
      </trkpt>
      <trkpt lat="44.13201" lon="7.32991">
        <ele>2370.75</ele>
        <time>2012-08-15T13:00:44Z</time>
      </trkpt>
      <trkpt lat="44.13198" lon="7.32997">
        <ele>2368.35</ele>
        <time>2012-08-15T13:00:58Z</time>
      </trkpt>
      <trkpt lat="44.13193" lon="7.33">
        <ele>2365.46</ele>
        <time>2012-08-15T13:01:13Z</time>
      </trkpt>
      <trkpt lat="44.1319" lon="7.33004">
        <ele>2364.02</ele>
        <time>2012-08-15T13:01:27Z</time>
      </trkpt>
      <trkpt lat="44.13187" lon="7.33003">
        <ele>2360.17</ele>
        <time>2012-08-15T13:01:35Z</time>
      </trkpt>
      <trkpt lat="44.13186" lon="7.33005">
        <ele>2356.81</ele>
        <time>2012-08-15T13:01:40Z</time>
      </trkpt>
      <trkpt lat="44.13182" lon="7.33008">
        <ele>2356.33</ele>
        <time>2012-08-15T13:01:53Z</time>
      </trkpt>
      <trkpt lat="44.13178" lon="7.33012">
        <ele>2355.37</ele>
        <time>2012-08-15T13:02:08Z</time>
      </trkpt>
      <trkpt lat="44.13176" lon="7.33017">
        <ele>2352.48</ele>
        <time>2012-08-15T13:02:22Z</time>
      </trkpt>
      <trkpt lat="44.13173" lon="7.33018">
        <ele>2350.08</ele>
        <time>2012-08-15T13:02:35Z</time>
      </trkpt>
      <trkpt lat="44.1317" lon="7.33019">
        <ele>2347.2</ele>
        <time>2012-08-15T13:02:48Z</time>
      </trkpt>
      <trkpt lat="44.13169" lon="7.33024">
        <ele>2345.75</ele>
        <time>2012-08-15T13:02:59Z</time>
      </trkpt>
      <trkpt lat="44.13166" lon="7.33034">
        <ele>2343.35</ele>
        <time>2012-08-15T13:03:12Z</time>
      </trkpt>
      <trkpt lat="44.1316" lon="7.33042">
        <ele>2340.95</ele>
        <time>2012-08-15T13:03:26Z</time>
      </trkpt>
      <trkpt lat="44.13155" lon="7.33046">
        <ele>2338.54</ele>
        <time>2012-08-15T13:03:41Z</time>
      </trkpt>
      <trkpt lat="44.13152" lon="7.33051">
        <ele>2336.62</ele>
        <time>2012-08-15T13:03:54Z</time>
      </trkpt>
      <trkpt lat="44.1315" lon="7.33054">
        <ele>2334.7</ele>
        <time>2012-08-15T13:04:04Z</time>
      </trkpt>
      <trkpt lat="44.13145" lon="7.33058">
        <ele>2332.3</ele>
        <time>2012-08-15T13:04:17Z</time>
      </trkpt>
      <trkpt lat="44.13143" lon="7.33065">
        <ele>2329.89</ele>
        <time>2012-08-15T13:04:32Z</time>
      </trkpt>
      <trkpt lat="44.1314" lon="7.33071">
        <ele>2327.97</ele>
        <time>2012-08-15T13:04:44Z</time>
      </trkpt>
      <trkpt lat="44.13137" lon="7.33078">
        <ele>2325.57</ele>
        <time>2012-08-15T13:04:57Z</time>
      </trkpt>
      <trkpt lat="44.13136" lon="7.33086">
        <ele>2322.68</ele>
        <time>2012-08-15T13:05:12Z</time>
      </trkpt>
      <trkpt lat="44.13134" lon="7.33086">
        <ele>2321.24</ele>
        <time>2012-08-15T13:05:31Z</time>
      </trkpt>
      <trkpt lat="44.13134" lon="7.33085">
        <ele>2321.24</ele>
        <time>2012-08-15T13:05:57Z</time>
      </trkpt>
      <trkpt lat="44.13134" lon="7.33085">
        <ele>2321.24</ele>
        <time>2012-08-15T13:06:35Z</time>
      </trkpt>
      <trkpt lat="44.13134" lon="7.33085">
        <ele>2321.24</ele>
        <time>2012-08-15T13:06:54Z</time>
      </trkpt>
      <trkpt lat="44.13134" lon="7.33085">
        <ele>2320.76</ele>
        <time>2012-08-15T13:07:25Z</time>
      </trkpt>
      <trkpt lat="44.13134" lon="7.33085">
        <ele>2320.76</ele>
        <time>2012-08-15T13:07:40Z</time>
      </trkpt>
      <trkpt lat="44.13134" lon="7.33085">
        <ele>2320.76</ele>
        <time>2012-08-15T13:07:59Z</time>
      </trkpt>
      <trkpt lat="44.13134" lon="7.33086">
        <ele>2320.28</ele>
        <time>2012-08-15T13:08:30Z</time>
      </trkpt>
      <trkpt lat="44.13134" lon="7.33086">
        <ele>2320.28</ele>
        <time>2012-08-15T13:08:59Z</time>
      </trkpt>
      <trkpt lat="44.13134" lon="7.33086">
        <ele>2320.28</ele>
        <time>2012-08-15T13:09:36Z</time>
      </trkpt>
      <trkpt lat="44.13134" lon="7.33087">
        <ele>2320.28</ele>
        <time>2012-08-15T13:10:04Z</time>
      </trkpt>
      <trkpt lat="44.13135" lon="7.3309">
        <ele>2320.28</ele>
        <time>2012-08-15T13:10:21Z</time>
      </trkpt>
      <trkpt lat="44.13132" lon="7.33092">
        <ele>2319.32</ele>
        <time>2012-08-15T13:10:34Z</time>
      </trkpt>
      <trkpt lat="44.1313" lon="7.33093">
        <ele>2317.4</ele>
        <time>2012-08-15T13:10:47Z</time>
      </trkpt>
      <trkpt lat="44.1313" lon="7.33093">
        <ele>2315.47</ele>
        <time>2012-08-15T13:11:00Z</time>
      </trkpt>
      <trkpt lat="44.13127" lon="7.33096">
        <ele>2314.03</ele>
        <time>2012-08-15T13:11:14Z</time>
      </trkpt>
      <trkpt lat="44.13126" lon="7.33098">
        <ele>2311.63</ele>
        <time>2012-08-15T13:11:27Z</time>
      </trkpt>
      <trkpt lat="44.1312" lon="7.33102">
        <ele>2310.19</ele>
        <time>2012-08-15T13:11:39Z</time>
      </trkpt>
      <trkpt lat="44.13112" lon="7.33109">
        <ele>2306.34</ele>
        <time>2012-08-15T13:11:54Z</time>
      </trkpt>
      <trkpt lat="44.13111" lon="7.33113">
        <ele>2304.42</ele>
        <time>2012-08-15T13:12:06Z</time>
      </trkpt>
      <trkpt lat="44.13109" lon="7.33117">
        <ele>2302.98</ele>
        <time>2012-08-15T13:12:29Z</time>
      </trkpt>
      <trkpt lat="44.13106" lon="7.33119">
        <ele>2301.05</ele>
        <time>2012-08-15T13:12:44Z</time>
      </trkpt>
      <trkpt lat="44.13103" lon="7.33124">
        <ele>2299.13</ele>
        <time>2012-08-15T13:12:58Z</time>
      </trkpt>
      <trkpt lat="44.13103" lon="7.33128">
        <ele>2296.73</ele>
        <time>2012-08-15T13:13:14Z</time>
      </trkpt>
      <trkpt lat="44.13101" lon="7.33129">
        <ele>2294.8</ele>
        <time>2012-08-15T13:13:26Z</time>
      </trkpt>
      <trkpt lat="44.131" lon="7.33134">
        <ele>2292.4</ele>
        <time>2012-08-15T13:13:38Z</time>
      </trkpt>
      <trkpt lat="44.13099" lon="7.33142">
        <ele>2290.48</ele>
        <time>2012-08-15T13:13:50Z</time>
      </trkpt>
      <trkpt lat="44.13097" lon="7.33148">
        <ele>2287.59</ele>
        <time>2012-08-15T13:14:05Z</time>
      </trkpt>
      <trkpt lat="44.13097" lon="7.33154">
        <ele>2285.19</ele>
        <time>2012-08-15T13:14:20Z</time>
      </trkpt>
      <trkpt lat="44.13093" lon="7.33154">
        <ele>2282.31</ele>
        <time>2012-08-15T13:14:36Z</time>
      </trkpt>
      <trkpt lat="44.13089" lon="7.33155">
        <ele>2279.42</ele>
        <time>2012-08-15T13:14:50Z</time>
      </trkpt>
      <trkpt lat="44.13085" lon="7.33157">
        <ele>2277.5</ele>
        <time>2012-08-15T13:15:07Z</time>
      </trkpt>
      <trkpt lat="44.13085" lon="7.33157">
        <ele>2275.1</ele>
        <time>2012-08-15T13:15:20Z</time>
      </trkpt>
      <trkpt lat="44.13084" lon="7.33157">
        <ele>2273.17</ele>
        <time>2012-08-15T13:15:36Z</time>
      </trkpt>
      <trkpt lat="44.13076" lon="7.3316">
        <ele>2270.77</ele>
        <time>2012-08-15T13:15:50Z</time>
      </trkpt>
      <trkpt lat="44.13076" lon="7.33163">
        <ele>2268.85</ele>
        <time>2012-08-15T13:16:03Z</time>
      </trkpt>
      <trkpt lat="44.13076" lon="7.33168">
        <ele>2266.45</ele>
        <time>2012-08-15T13:16:17Z</time>
      </trkpt>
      <trkpt lat="44.13076" lon="7.33173">
        <ele>2265</ele>
        <time>2012-08-15T13:16:30Z</time>
      </trkpt>
      <trkpt lat="44.13075" lon="7.33173">
        <ele>2262.6</ele>
        <time>2012-08-15T13:16:43Z</time>
      </trkpt>
      <trkpt lat="44.13074" lon="7.33176">
        <ele>2261.16</ele>
        <time>2012-08-15T13:16:59Z</time>
      </trkpt>
      <trkpt lat="44.13074" lon="7.33177">
        <ele>2258.75</ele>
        <time>2012-08-15T13:17:13Z</time>
      </trkpt>
      <trkpt lat="44.13072" lon="7.33179">
        <ele>2257.31</ele>
        <time>2012-08-15T13:17:24Z</time>
      </trkpt>
      <trkpt lat="44.13068" lon="7.33186">
        <ele>2254.91</ele>
        <time>2012-08-15T13:17:37Z</time>
      </trkpt>
      <trkpt lat="44.13068" lon="7.33186">
        <ele>2253.47</ele>
        <time>2012-08-15T13:17:52Z</time>
      </trkpt>
      <trkpt lat="44.13066" lon="7.33202">
        <ele>2251.06</ele>
        <time>2012-08-15T13:18:06Z</time>
      </trkpt>
      <trkpt lat="44.13067" lon="7.33211">
        <ele>2250.1</ele>
        <time>2012-08-15T13:18:17Z</time>
      </trkpt>
      <trkpt lat="44.13067" lon="7.33216">
        <ele>2249.14</ele>
        <time>2012-08-15T13:18:28Z</time>
      </trkpt>
      <trkpt lat="44.13065" lon="7.33219">
        <ele>2247.22</ele>
        <time>2012-08-15T13:18:42Z</time>
      </trkpt>
      <trkpt lat="44.13062" lon="7.33225">
        <ele>2244.82</ele>
        <time>2012-08-15T13:18:56Z</time>
      </trkpt>
      <trkpt lat="44.13056" lon="7.33232">
        <ele>2242.41</ele>
        <time>2012-08-15T13:19:10Z</time>
      </trkpt>
      <trkpt lat="44.13052" lon="7.33236">
        <ele>2240.01</ele>
        <time>2012-08-15T13:19:22Z</time>
      </trkpt>
      <trkpt lat="44.13052" lon="7.33236">
        <ele>2239.53</ele>
        <time>2012-08-15T13:19:25Z</time>
      </trkpt>
      <trkpt lat="44.13049" lon="7.33243">
        <ele>2238.09</ele>
        <time>2012-08-15T13:19:38Z</time>
      </trkpt>
      <trkpt lat="44.13049" lon="7.33243">
        <ele>2236.16</ele>
        <time>2012-08-15T13:19:51Z</time>
      </trkpt>
      <trkpt lat="44.13043" lon="7.33251">
        <ele>2234.72</ele>
        <time>2012-08-15T13:20:03Z</time>
      </trkpt>
      <trkpt lat="44.13033" lon="7.33263">
        <ele>2233.28</ele>
        <time>2012-08-15T13:20:19Z</time>
      </trkpt>
      <trkpt lat="44.13029" lon="7.33264">
        <ele>2231.36</ele>
        <time>2012-08-15T13:20:32Z</time>
      </trkpt>
      <trkpt lat="44.13018" lon="7.33273">
        <ele>2229.43</ele>
        <time>2012-08-15T13:20:49Z</time>
      </trkpt>
      <trkpt lat="44.13014" lon="7.33278">
        <ele>2227.51</ele>
        <time>2012-08-15T13:21:04Z</time>
      </trkpt>
      <trkpt lat="44.13012" lon="7.33277">
        <ele>2226.55</ele>
        <time>2012-08-15T13:21:19Z</time>
      </trkpt>
      <trkpt lat="44.13005" lon="7.33273">
        <ele>2226.07</ele>
        <time>2012-08-15T13:21:33Z</time>
      </trkpt>
      <trkpt lat="44.13005" lon="7.33273">
        <ele>2226.07</ele>
        <time>2012-08-15T13:21:54Z</time>
      </trkpt>
      <trkpt lat="44.13006" lon="7.33275">
        <ele>2226.07</ele>
        <time>2012-08-15T13:22:12Z</time>
      </trkpt>
      <trkpt lat="44.13006" lon="7.33275">
        <ele>2226.07</ele>
        <time>2012-08-15T13:22:38Z</time>
      </trkpt>
      <trkpt lat="44.13005" lon="7.33275">
        <ele>2226.07</ele>
        <time>2012-08-15T13:23:04Z</time>
      </trkpt>
      <trkpt lat="44.13005" lon="7.33275">
        <ele>2226.07</ele>
        <time>2012-08-15T13:23:27Z</time>
      </trkpt>
      <trkpt lat="44.13005" lon="7.33275">
        <ele>2226.07</ele>
        <time>2012-08-15T13:23:51Z</time>
      </trkpt>
      <trkpt lat="44.13009" lon="7.33275">
        <ele>2226.07</ele>
        <time>2012-08-15T13:24:14Z</time>
      </trkpt>
      <trkpt lat="44.13009" lon="7.33276">
        <ele>2226.07</ele>
        <time>2012-08-15T13:24:35Z</time>
      </trkpt>
      <trkpt lat="44.13009" lon="7.33276">
        <ele>2226.07</ele>
        <time>2012-08-15T13:25:09Z</time>
      </trkpt>
      <trkpt lat="44.1301" lon="7.33277">
        <ele>2226.07</ele>
        <time>2012-08-15T13:25:28Z</time>
      </trkpt>
      <trkpt lat="44.1301" lon="7.33277">
        <ele>2226.07</ele>
        <time>2012-08-15T13:25:52Z</time>
      </trkpt>
      <trkpt lat="44.13008" lon="7.33282">
        <ele>2225.59</ele>
        <time>2012-08-15T13:26:14Z</time>
      </trkpt>
      <trkpt lat="44.13006" lon="7.33285">
        <ele>2224.15</ele>
        <time>2012-08-15T13:26:29Z</time>
      </trkpt>
      <trkpt lat="44.13006" lon="7.33285">
        <ele>2224.15</ele>
        <time>2012-08-15T13:26:58Z</time>
      </trkpt>
      <trkpt lat="44.13008" lon="7.33287">
        <ele>2224.15</ele>
        <time>2012-08-15T13:27:15Z</time>
      </trkpt>
      <trkpt lat="44.13011" lon="7.33294">
        <ele>2223.19</ele>
        <time>2012-08-15T13:27:36Z</time>
      </trkpt>
      <trkpt lat="44.13015" lon="7.33306">
        <ele>2222.71</ele>
        <time>2012-08-15T13:27:47Z</time>
      </trkpt>
      <trkpt lat="44.13015" lon="7.33323">
        <ele>2222.71</ele>
        <time>2012-08-15T13:28:02Z</time>
      </trkpt>
      <trkpt lat="44.1301" lon="7.33337">
        <ele>2224.15</ele>
        <time>2012-08-15T13:28:17Z</time>
      </trkpt>
      <trkpt lat="44.12998" lon="7.33352">
        <ele>2223.19</ele>
        <time>2012-08-15T13:28:34Z</time>
      </trkpt>
      <trkpt lat="44.12989" lon="7.33352">
        <ele>2223.19</ele>
        <time>2012-08-15T13:28:48Z</time>
      </trkpt>
      <trkpt lat="44.12985" lon="7.33347">
        <ele>2223.19</ele>
        <time>2012-08-15T13:29:02Z</time>
      </trkpt>
      <trkpt lat="44.12979" lon="7.33351">
        <ele>2222.71</ele>
        <time>2012-08-15T13:29:14Z</time>
      </trkpt>
      <trkpt lat="44.12975" lon="7.33354">
        <ele>2221.74</ele>
        <time>2012-08-15T13:29:27Z</time>
      </trkpt>
      <trkpt lat="44.12974" lon="7.33361">
        <ele>2221.26</ele>
        <time>2012-08-15T13:29:44Z</time>
      </trkpt>
      <trkpt lat="44.12968" lon="7.33368">
        <ele>2220.78</ele>
        <time>2012-08-15T13:29:55Z</time>
      </trkpt>
      <trkpt lat="44.1296" lon="7.33373">
        <ele>2219.34</ele>
        <time>2012-08-15T13:30:08Z</time>
      </trkpt>
      <trkpt lat="44.12953" lon="7.33377">
        <ele>2217.42</ele>
        <time>2012-08-15T13:30:21Z</time>
      </trkpt>
      <trkpt lat="44.12947" lon="7.33383">
        <ele>2215.01</ele>
        <time>2012-08-15T13:30:34Z</time>
      </trkpt>
      <trkpt lat="44.12941" lon="7.3339">
        <ele>2214.53</ele>
        <time>2012-08-15T13:30:49Z</time>
      </trkpt>
      <trkpt lat="44.12934" lon="7.33388">
        <ele>2212.61</ele>
        <time>2012-08-15T13:31:03Z</time>
      </trkpt>
      <trkpt lat="44.12934" lon="7.33382">
        <ele>2210.69</ele>
        <time>2012-08-15T13:31:16Z</time>
      </trkpt>
      <trkpt lat="44.12929" lon="7.33384">
        <ele>2209.25</ele>
        <time>2012-08-15T13:31:29Z</time>
      </trkpt>
      <trkpt lat="44.12925" lon="7.33387">
        <ele>2207.32</ele>
        <time>2012-08-15T13:31:45Z</time>
      </trkpt>
      <trkpt lat="44.12922" lon="7.33384">
        <ele>2205.88</ele>
        <time>2012-08-15T13:31:58Z</time>
      </trkpt>
      <trkpt lat="44.12921" lon="7.33382">
        <ele>2204.92</ele>
        <time>2012-08-15T13:32:10Z</time>
      </trkpt>
      <trkpt lat="44.12923" lon="7.33375">
        <ele>2203.96</ele>
        <time>2012-08-15T13:32:26Z</time>
      </trkpt>
      <trkpt lat="44.12922" lon="7.33371">
        <ele>2203</ele>
        <time>2012-08-15T13:32:43Z</time>
      </trkpt>
      <trkpt lat="44.1292" lon="7.33367">
        <ele>2202.04</ele>
        <time>2012-08-15T13:32:58Z</time>
      </trkpt>
      <trkpt lat="44.12922" lon="7.3336">
        <ele>2200.59</ele>
        <time>2012-08-15T13:33:11Z</time>
      </trkpt>
      <trkpt lat="44.1292" lon="7.33352">
        <ele>2197.23</ele>
        <time>2012-08-15T13:33:24Z</time>
      </trkpt>
      <trkpt lat="44.12918" lon="7.33347">
        <ele>2195.31</ele>
        <time>2012-08-15T13:33:37Z</time>
      </trkpt>
      <trkpt lat="44.12917" lon="7.33341">
        <ele>2193.87</ele>
        <time>2012-08-15T13:33:49Z</time>
      </trkpt>
      <trkpt lat="44.12918" lon="7.33334">
        <ele>2191.94</ele>
        <time>2012-08-15T13:34:01Z</time>
      </trkpt>
      <trkpt lat="44.12918" lon="7.33326">
        <ele>2190.5</ele>
        <time>2012-08-15T13:34:14Z</time>
      </trkpt>
      <trkpt lat="44.12917" lon="7.33311">
        <ele>2189.54</ele>
        <time>2012-08-15T13:34:29Z</time>
      </trkpt>
      <trkpt lat="44.12915" lon="7.33306">
        <ele>2188.1</ele>
        <time>2012-08-15T13:34:40Z</time>
      </trkpt>
      <trkpt lat="44.12915" lon="7.333">
        <ele>2187.14</ele>
        <time>2012-08-15T13:34:53Z</time>
      </trkpt>
      <trkpt lat="44.12918" lon="7.33293">
        <ele>2185.21</ele>
        <time>2012-08-15T13:35:07Z</time>
      </trkpt>
      <trkpt lat="44.12914" lon="7.33287">
        <ele>2182.33</ele>
        <time>2012-08-15T13:35:23Z</time>
      </trkpt>
      <trkpt lat="44.12918" lon="7.33279">
        <ele>2180.41</ele>
        <time>2012-08-15T13:35:39Z</time>
      </trkpt>
      <trkpt lat="44.1292" lon="7.33277">
        <ele>2178.97</ele>
        <time>2012-08-15T13:35:52Z</time>
      </trkpt>
      <trkpt lat="44.12919" lon="7.33276">
        <ele>2178.48</ele>
        <time>2012-08-15T13:35:58Z</time>
      </trkpt>
      <trkpt lat="44.12921" lon="7.33267">
        <ele>2176.08</ele>
        <time>2012-08-15T13:36:13Z</time>
      </trkpt>
      <trkpt lat="44.12925" lon="7.33262">
        <ele>2174.16</ele>
        <time>2012-08-15T13:36:28Z</time>
      </trkpt>
      <trkpt lat="44.12925" lon="7.3326">
        <ele>2172.72</ele>
        <time>2012-08-15T13:36:41Z</time>
      </trkpt>
      <trkpt lat="44.12925" lon="7.33259">
        <ele>2171.27</ele>
        <time>2012-08-15T13:36:55Z</time>
      </trkpt>
      <trkpt lat="44.12926" lon="7.33246">
        <ele>2169.35</ele>
        <time>2012-08-15T13:37:09Z</time>
      </trkpt>
      <trkpt lat="44.12925" lon="7.33241">
        <ele>2167.43</ele>
        <time>2012-08-15T13:37:23Z</time>
      </trkpt>
      <trkpt lat="44.12925" lon="7.33238">
        <ele>2166.47</ele>
        <time>2012-08-15T13:37:37Z</time>
      </trkpt>
      <trkpt lat="44.12925" lon="7.33238">
        <ele>2165.03</ele>
        <time>2012-08-15T13:37:56Z</time>
      </trkpt>
      <trkpt lat="44.12926" lon="7.33238">
        <ele>2165.03</ele>
        <time>2012-08-15T13:38:22Z</time>
      </trkpt>
      <trkpt lat="44.12926" lon="7.33238">
        <ele>2165.03</ele>
        <time>2012-08-15T13:38:40Z</time>
      </trkpt>
      <trkpt lat="44.12926" lon="7.33238">
        <ele>2165.99</ele>
        <time>2012-08-15T13:38:58Z</time>
      </trkpt>
      <trkpt lat="44.12926" lon="7.33238">
        <ele>2166.47</ele>
        <time>2012-08-15T13:39:24Z</time>
      </trkpt>
      <trkpt lat="44.12926" lon="7.33239">
        <ele>2166.47</ele>
        <time>2012-08-15T13:39:50Z</time>
      </trkpt>
      <trkpt lat="44.12926" lon="7.33239">
        <ele>2166.47</ele>
        <time>2012-08-15T13:40:18Z</time>
      </trkpt>
      <trkpt lat="44.12926" lon="7.33239">
        <ele>2166.47</ele>
        <time>2012-08-15T13:40:52Z</time>
      </trkpt>
      <trkpt lat="44.12926" lon="7.33239">
        <ele>2166.47</ele>
        <time>2012-08-15T13:41:20Z</time>
      </trkpt>
      <trkpt lat="44.12925" lon="7.33241">
        <ele>2165.51</ele>
        <time>2012-08-15T13:41:35Z</time>
      </trkpt>
      <trkpt lat="44.12923" lon="7.33236">
        <ele>2164.55</ele>
        <time>2012-08-15T13:41:47Z</time>
      </trkpt>
      <trkpt lat="44.1292" lon="7.33231">
        <ele>2163.1</ele>
        <time>2012-08-15T13:42:02Z</time>
      </trkpt>
      <trkpt lat="44.12916" lon="7.33229">
        <ele>2161.18</ele>
        <time>2012-08-15T13:42:14Z</time>
      </trkpt>
      <trkpt lat="44.12912" lon="7.33228">
        <ele>2159.26</ele>
        <time>2012-08-15T13:42:27Z</time>
      </trkpt>
      <trkpt lat="44.1291" lon="7.33223">
        <ele>2156.86</ele>
        <time>2012-08-15T13:42:39Z</time>
      </trkpt>
      <trkpt lat="44.12905" lon="7.33217">
        <ele>2154.45</ele>
        <time>2012-08-15T13:42:52Z</time>
      </trkpt>
      <trkpt lat="44.12901" lon="7.33215">
        <ele>2151.57</ele>
        <time>2012-08-15T13:43:04Z</time>
      </trkpt>
      <trkpt lat="44.12898" lon="7.33204">
        <ele>2148.68</ele>
        <time>2012-08-15T13:43:16Z</time>
      </trkpt>
      <trkpt lat="44.12891" lon="7.332">
        <ele>2146.76</ele>
        <time>2012-08-15T13:43:29Z</time>
      </trkpt>
      <trkpt lat="44.12887" lon="7.33199">
        <ele>2146.28</ele>
        <time>2012-08-15T13:43:36Z</time>
      </trkpt>
      <trkpt lat="44.12883" lon="7.33196">
        <ele>2145.32</ele>
        <time>2012-08-15T13:43:41Z</time>
      </trkpt>
      <trkpt lat="44.12878" lon="7.3319">
        <ele>2144.36</ele>
        <time>2012-08-15T13:43:48Z</time>
      </trkpt>
      <trkpt lat="44.12872" lon="7.33183">
        <ele>2143.88</ele>
        <time>2012-08-15T13:43:55Z</time>
      </trkpt>
      <trkpt lat="44.1287" lon="7.33179">
        <ele>2142.92</ele>
        <time>2012-08-15T13:43:59Z</time>
      </trkpt>
      <trkpt lat="44.12864" lon="7.33171">
        <ele>2142.44</ele>
        <time>2012-08-15T13:44:07Z</time>
      </trkpt>
      <trkpt lat="44.12851" lon="7.33162">
        <ele>2141.47</ele>
        <time>2012-08-15T13:44:24Z</time>
      </trkpt>
      <trkpt lat="44.12834" lon="7.33152">
        <ele>2140.51</ele>
        <time>2012-08-15T13:44:42Z</time>
      </trkpt>
      <trkpt lat="44.12825" lon="7.33135">
        <ele>2140.03</ele>
        <time>2012-08-15T13:44:57Z</time>
      </trkpt>
      <trkpt lat="44.12817" lon="7.33127">
        <ele>2139.55</ele>
        <time>2012-08-15T13:45:12Z</time>
      </trkpt>
      <trkpt lat="44.12811" lon="7.33124">
        <ele>2139.07</ele>
        <time>2012-08-15T13:45:24Z</time>
      </trkpt>
      <trkpt lat="44.12804" lon="7.33124">
        <ele>2139.07</ele>
        <time>2012-08-15T13:45:33Z</time>
      </trkpt>
      <trkpt lat="44.12792" lon="7.33125">
        <ele>2138.59</ele>
        <time>2012-08-15T13:45:49Z</time>
      </trkpt>
      <trkpt lat="44.12788" lon="7.33126">
        <ele>2138.59</ele>
        <time>2012-08-15T13:45:58Z</time>
      </trkpt>
      <trkpt lat="44.12778" lon="7.33128">
        <ele>2138.59</ele>
        <time>2012-08-15T13:46:10Z</time>
      </trkpt>
      <trkpt lat="44.12772" lon="7.33129">
        <ele>2138.11</ele>
        <time>2012-08-15T13:46:17Z</time>
      </trkpt>
      <trkpt lat="44.12769" lon="7.33127">
        <ele>2139.07</ele>
        <time>2012-08-15T13:46:21Z</time>
      </trkpt>
      <trkpt lat="44.12752" lon="7.33129">
        <ele>2139.07</ele>
        <time>2012-08-15T13:46:38Z</time>
      </trkpt>
      <trkpt lat="44.12747" lon="7.33129">
        <ele>2139.07</ele>
        <time>2012-08-15T13:46:44Z</time>
      </trkpt>
      <trkpt lat="44.12736" lon="7.33135">
        <ele>2139.07</ele>
        <time>2012-08-15T13:46:55Z</time>
      </trkpt>
      <trkpt lat="44.12734" lon="7.33135">
        <ele>2137.63</ele>
        <time>2012-08-15T13:46:58Z</time>
      </trkpt>
      <trkpt lat="44.12727" lon="7.33136">
        <ele>2137.63</ele>
        <time>2012-08-15T13:47:05Z</time>
      </trkpt>
      <trkpt lat="44.12725" lon="7.33135">
        <ele>2137.63</ele>
        <time>2012-08-15T13:47:07Z</time>
      </trkpt>
      <trkpt lat="44.12711" lon="7.33129">
        <ele>2136.19</ele>
        <time>2012-08-15T13:47:23Z</time>
      </trkpt>
      <trkpt lat="44.127" lon="7.33118">
        <ele>2137.63</ele>
        <time>2012-08-15T13:47:38Z</time>
      </trkpt>
      <trkpt lat="44.127" lon="7.33118">
        <ele>2137.63</ele>
        <time>2012-08-15T13:48:00Z</time>
      </trkpt>
      <trkpt lat="44.12691" lon="7.3312">
        <ele>2137.15</ele>
        <time>2012-08-15T13:48:16Z</time>
      </trkpt>
      <trkpt lat="44.12688" lon="7.33121">
        <ele>2135.71</ele>
        <time>2012-08-15T13:48:20Z</time>
      </trkpt>
      <trkpt lat="44.12676" lon="7.3311">
        <ele>2134.26</ele>
        <time>2012-08-15T13:48:35Z</time>
      </trkpt>
      <trkpt lat="44.12662" lon="7.33101">
        <ele>2133.78</ele>
        <time>2012-08-15T13:48:50Z</time>
      </trkpt>
      <trkpt lat="44.1266" lon="7.33101">
        <ele>2133.3</ele>
        <time>2012-08-15T13:48:52Z</time>
      </trkpt>
      <trkpt lat="44.12658" lon="7.33099">
        <ele>2133.3</ele>
        <time>2012-08-15T13:48:55Z</time>
      </trkpt>
      <trkpt lat="44.12647" lon="7.33097">
        <ele>2133.3</ele>
        <time>2012-08-15T13:49:09Z</time>
      </trkpt>
      <trkpt lat="44.12633" lon="7.33093">
        <ele>2132.82</ele>
        <time>2012-08-15T13:49:25Z</time>
      </trkpt>
      <trkpt lat="44.12629" lon="7.33093">
        <ele>2134.26</ele>
        <time>2012-08-15T13:49:39Z</time>
      </trkpt>
      <trkpt lat="44.12629" lon="7.33093">
        <ele>2134.26</ele>
        <time>2012-08-15T13:50:02Z</time>
      </trkpt>
      <trkpt lat="44.12629" lon="7.33093">
        <ele>2134.74</ele>
        <time>2012-08-15T13:50:17Z</time>
      </trkpt>
      <trkpt lat="44.12629" lon="7.33093">
        <ele>2135.23</ele>
        <time>2012-08-15T13:50:31Z</time>
      </trkpt>
      <trkpt lat="44.12627" lon="7.33088">
        <ele>2135.23</ele>
        <time>2012-08-15T13:50:45Z</time>
      </trkpt>
      <trkpt lat="44.12626" lon="7.33086">
        <ele>2135.23</ele>
        <time>2012-08-15T13:51:08Z</time>
      </trkpt>
      <trkpt lat="44.12626" lon="7.33085">
        <ele>2135.23</ele>
        <time>2012-08-15T13:51:30Z</time>
      </trkpt>
      <trkpt lat="44.12625" lon="7.33085">
        <ele>2135.23</ele>
        <time>2012-08-15T13:51:52Z</time>
      </trkpt>
      <trkpt lat="44.12625" lon="7.33084">
        <ele>2135.23</ele>
        <time>2012-08-15T13:52:15Z</time>
      </trkpt>
      <trkpt lat="44.12624" lon="7.33085">
        <ele>2135.23</ele>
        <time>2012-08-15T13:52:41Z</time>
      </trkpt>
      <trkpt lat="44.12624" lon="7.33084">
        <ele>2135.23</ele>
        <time>2012-08-15T13:53:24Z</time>
      </trkpt>
      <trkpt lat="44.12623" lon="7.33083">
        <ele>2135.23</ele>
        <time>2012-08-15T13:54:03Z</time>
      </trkpt>
      <trkpt lat="44.12623" lon="7.33083">
        <ele>2135.23</ele>
        <time>2012-08-15T13:54:37Z</time>
      </trkpt>
      <trkpt lat="44.12623" lon="7.33083">
        <ele>2135.23</ele>
        <time>2012-08-15T13:55:20Z</time>
      </trkpt>
      <trkpt lat="44.12623" lon="7.33083">
        <ele>2135.23</ele>
        <time>2012-08-15T13:55:38Z</time>
      </trkpt>
      <trkpt lat="44.12622" lon="7.33082">
        <ele>2135.23</ele>
        <time>2012-08-15T13:56:11Z</time>
      </trkpt>
      <trkpt lat="44.12622" lon="7.33082">
        <ele>2135.23</ele>
        <time>2012-08-15T13:56:47Z</time>
      </trkpt>
      <trkpt lat="44.12621" lon="7.33082">
        <ele>2135.23</ele>
        <time>2012-08-15T13:57:14Z</time>
      </trkpt>
      <trkpt lat="44.12621" lon="7.33081">
        <ele>2135.23</ele>
        <time>2012-08-15T13:57:41Z</time>
      </trkpt>
      <trkpt lat="44.12621" lon="7.33081">
        <ele>2135.23</ele>
        <time>2012-08-15T13:58:11Z</time>
      </trkpt>
      <trkpt lat="44.12621" lon="7.33081">
        <ele>2135.23</ele>
        <time>2012-08-15T13:58:39Z</time>
      </trkpt>
      <trkpt lat="44.12621" lon="7.33081">
        <ele>2135.23</ele>
        <time>2012-08-15T13:59:05Z</time>
      </trkpt>
      <trkpt lat="44.12621" lon="7.33081">
        <ele>2135.23</ele>
        <time>2012-08-15T13:59:27Z</time>
      </trkpt>
      <trkpt lat="44.12621" lon="7.3308">
        <ele>2135.23</ele>
        <time>2012-08-15T13:59:58Z</time>
      </trkpt>
      <trkpt lat="44.12621" lon="7.3308">
        <ele>2135.23</ele>
        <time>2012-08-15T14:00:40Z</time>
      </trkpt>
      <trkpt lat="44.12621" lon="7.33079">
        <ele>2135.23</ele>
        <time>2012-08-15T14:01:12Z</time>
      </trkpt>
      <trkpt lat="44.12621" lon="7.33078">
        <ele>2135.23</ele>
        <time>2012-08-15T14:01:48Z</time>
      </trkpt>
      <trkpt lat="44.12621" lon="7.33077">
        <ele>2135.23</ele>
        <time>2012-08-15T14:02:27Z</time>
      </trkpt>
      <trkpt lat="44.12621" lon="7.33077">
        <ele>2135.23</ele>
        <time>2012-08-15T14:03:05Z</time>
      </trkpt>
      <trkpt lat="44.12621" lon="7.33077">
        <ele>2135.23</ele>
        <time>2012-08-15T14:03:41Z</time>
      </trkpt>
      <trkpt lat="44.12621" lon="7.33078">
        <ele>2135.23</ele>
        <time>2012-08-15T14:04:18Z</time>
      </trkpt>
      <trkpt lat="44.12621" lon="7.33078">
        <ele>2135.23</ele>
        <time>2012-08-15T14:04:51Z</time>
      </trkpt>
      <trkpt lat="44.12621" lon="7.33078">
        <ele>2135.23</ele>
        <time>2012-08-15T14:05:30Z</time>
      </trkpt>
      <trkpt lat="44.12621" lon="7.33078">
        <ele>2135.23</ele>
        <time>2012-08-15T14:05:58Z</time>
      </trkpt>
      <trkpt lat="44.12621" lon="7.33078">
        <ele>2135.23</ele>
        <time>2012-08-15T14:06:16Z</time>
      </trkpt>
      <trkpt lat="44.1262" lon="7.33078">
        <ele>2135.23</ele>
        <time>2012-08-15T14:06:31Z</time>
      </trkpt>
      <trkpt lat="44.1262" lon="7.33083">
        <ele>2135.71</ele>
        <time>2012-08-15T14:06:49Z</time>
      </trkpt>
      <trkpt lat="44.1262" lon="7.33085">
        <ele>2136.19</ele>
        <time>2012-08-15T14:07:07Z</time>
      </trkpt>
      <trkpt lat="44.1262" lon="7.33085">
        <ele>2136.19</ele>
        <time>2012-08-15T14:07:26Z</time>
      </trkpt>
      <trkpt lat="44.1262" lon="7.33085">
        <ele>2136.19</ele>
        <time>2012-08-15T14:07:52Z</time>
      </trkpt>
      <trkpt lat="44.12622" lon="7.33098">
        <ele>2135.23</ele>
        <time>2012-08-15T14:08:02Z</time>
      </trkpt>
      <trkpt lat="44.12626" lon="7.33119">
        <ele>2133.3</ele>
        <time>2012-08-15T14:08:17Z</time>
      </trkpt>
      <trkpt lat="44.12632" lon="7.33133">
        <ele>2132.34</ele>
        <time>2012-08-15T14:08:29Z</time>
      </trkpt>
      <trkpt lat="44.12632" lon="7.33147">
        <ele>2130.9</ele>
        <time>2012-08-15T14:08:41Z</time>
      </trkpt>
      <trkpt lat="44.12624" lon="7.33142">
        <ele>2129.94</ele>
        <time>2012-08-15T14:08:56Z</time>
      </trkpt>
      <trkpt lat="44.12614" lon="7.33143">
        <ele>2129.46</ele>
        <time>2012-08-15T14:09:10Z</time>
      </trkpt>
      <trkpt lat="44.12606" lon="7.33142">
        <ele>2128.02</ele>
        <time>2012-08-15T14:09:24Z</time>
      </trkpt>
      <trkpt lat="44.12601" lon="7.33147">
        <ele>2126.09</ele>
        <time>2012-08-15T14:09:38Z</time>
      </trkpt>
      <trkpt lat="44.12592" lon="7.33151">
        <ele>2123.69</ele>
        <time>2012-08-15T14:09:52Z</time>
      </trkpt>
      <trkpt lat="44.12577" lon="7.33154">
        <ele>2122.73</ele>
        <time>2012-08-15T14:10:07Z</time>
      </trkpt>
      <trkpt lat="44.1257" lon="7.33153">
        <ele>2121.29</ele>
        <time>2012-08-15T14:10:21Z</time>
      </trkpt>
      <trkpt lat="44.12563" lon="7.33151">
        <ele>2118.88</ele>
        <time>2012-08-15T14:10:34Z</time>
      </trkpt>
      <trkpt lat="44.12559" lon="7.33155">
        <ele>2116.48</ele>
        <time>2012-08-15T14:10:47Z</time>
      </trkpt>
      <trkpt lat="44.12549" lon="7.3316">
        <ele>2114.08</ele>
        <time>2012-08-15T14:11:02Z</time>
      </trkpt>
      <trkpt lat="44.12539" lon="7.33166">
        <ele>2111.19</ele>
        <time>2012-08-15T14:11:18Z</time>
      </trkpt>
      <trkpt lat="44.12531" lon="7.33166">
        <ele>2109.75</ele>
        <time>2012-08-15T14:11:32Z</time>
      </trkpt>
      <trkpt lat="44.12527" lon="7.33168">
        <ele>2107.83</ele>
        <time>2012-08-15T14:11:47Z</time>
      </trkpt>
      <trkpt lat="44.12527" lon="7.33167">
        <ele>2107.35</ele>
        <time>2012-08-15T14:12:02Z</time>
      </trkpt>
      <trkpt lat="44.12527" lon="7.33167">
        <ele>2107.35</ele>
        <time>2012-08-15T14:12:16Z</time>
      </trkpt>
      <trkpt lat="44.12528" lon="7.33168">
        <ele>2107.35</ele>
        <time>2012-08-15T14:12:48Z</time>
      </trkpt>
      <trkpt lat="44.12528" lon="7.33168">
        <ele>2107.35</ele>
        <time>2012-08-15T14:13:21Z</time>
      </trkpt>
      <trkpt lat="44.12528" lon="7.33168">
        <ele>2107.35</ele>
        <time>2012-08-15T14:13:42Z</time>
      </trkpt>
      <trkpt lat="44.12522" lon="7.33174">
        <ele>2106.39</ele>
        <time>2012-08-15T14:13:55Z</time>
      </trkpt>
      <trkpt lat="44.12515" lon="7.33168">
        <ele>2104.46</ele>
        <time>2012-08-15T14:14:09Z</time>
      </trkpt>
      <trkpt lat="44.12511" lon="7.33166">
        <ele>2102.06</ele>
        <time>2012-08-15T14:14:23Z</time>
      </trkpt>
      <trkpt lat="44.12505" lon="7.33168">
        <ele>2099.18</ele>
        <time>2012-08-15T14:14:38Z</time>
      </trkpt>
      <trkpt lat="44.125" lon="7.33173">
        <ele>2096.29</ele>
        <time>2012-08-15T14:14:52Z</time>
      </trkpt>
      <trkpt lat="44.12497" lon="7.33167">
        <ele>2094.85</ele>
        <time>2012-08-15T14:15:05Z</time>
      </trkpt>
      <trkpt lat="44.12496" lon="7.33166">
        <ele>2092.93</ele>
        <time>2012-08-15T14:15:27Z</time>
      </trkpt>
      <trkpt lat="44.12496" lon="7.33166">
        <ele>2092.93</ele>
        <time>2012-08-15T14:15:43Z</time>
      </trkpt>
      <trkpt lat="44.12496" lon="7.33165">
        <ele>2092.93</ele>
        <time>2012-08-15T14:16:01Z</time>
      </trkpt>
      <trkpt lat="44.12495" lon="7.33164">
        <ele>2092.93</ele>
        <time>2012-08-15T14:16:18Z</time>
      </trkpt>
      <trkpt lat="44.12495" lon="7.33164">
        <ele>2092.93</ele>
        <time>2012-08-15T14:16:43Z</time>
      </trkpt>
      <trkpt lat="44.12496" lon="7.33151">
        <ele>2092.93</ele>
        <time>2012-08-15T14:16:56Z</time>
      </trkpt>
      <trkpt lat="44.12496" lon="7.3315">
        <ele>2092.93</ele>
        <time>2012-08-15T14:16:57Z</time>
      </trkpt>
      <trkpt lat="44.12502" lon="7.33141">
        <ele>2092.45</ele>
        <time>2012-08-15T14:17:11Z</time>
      </trkpt>
      <trkpt lat="44.12508" lon="7.3313">
        <ele>2090.52</ele>
        <time>2012-08-15T14:17:26Z</time>
      </trkpt>
      <trkpt lat="44.12508" lon="7.3312">
        <ele>2088.6</ele>
        <time>2012-08-15T14:17:39Z</time>
      </trkpt>
      <trkpt lat="44.12508" lon="7.33107">
        <ele>2087.16</ele>
        <time>2012-08-15T14:17:51Z</time>
      </trkpt>
      <trkpt lat="44.12513" lon="7.33092">
        <ele>2086.68</ele>
        <time>2012-08-15T14:18:07Z</time>
      </trkpt>
      <trkpt lat="44.1252" lon="7.33082">
        <ele>2086.2</ele>
        <time>2012-08-15T14:18:22Z</time>
      </trkpt>
      <trkpt lat="44.12526" lon="7.3307">
        <ele>2087.16</ele>
        <time>2012-08-15T14:18:36Z</time>
      </trkpt>
      <trkpt lat="44.12526" lon="7.33053">
        <ele>2087.16</ele>
        <time>2012-08-15T14:18:51Z</time>
      </trkpt>
      <trkpt lat="44.12525" lon="7.33046">
        <ele>2087.16</ele>
        <time>2012-08-15T14:18:58Z</time>
      </trkpt>
      <trkpt lat="44.12521" lon="7.33038">
        <ele>2086.68</ele>
        <time>2012-08-15T14:19:13Z</time>
      </trkpt>
      <trkpt lat="44.12519" lon="7.33034">
        <ele>2085.24</ele>
        <time>2012-08-15T14:19:19Z</time>
      </trkpt>
      <trkpt lat="44.12517" lon="7.33024">
        <ele>2084.28</ele>
        <time>2012-08-15T14:19:32Z</time>
      </trkpt>
      <trkpt lat="44.12513" lon="7.33015">
        <ele>2081.87</ele>
        <time>2012-08-15T14:19:46Z</time>
      </trkpt>
      <trkpt lat="44.12508" lon="7.33004">
        <ele>2079.95</ele>
        <time>2012-08-15T14:19:59Z</time>
      </trkpt>
      <trkpt lat="44.12503" lon="7.32996">
        <ele>2078.99</ele>
        <time>2012-08-15T14:20:13Z</time>
      </trkpt>
      <trkpt lat="44.12495" lon="7.32983">
        <ele>2077.55</ele>
        <time>2012-08-15T14:20:25Z</time>
      </trkpt>
      <trkpt lat="44.12492" lon="7.32971">
        <ele>2077.55</ele>
        <time>2012-08-15T14:20:39Z</time>
      </trkpt>
      <trkpt lat="44.12485" lon="7.32967">
        <ele>2074.66</ele>
        <time>2012-08-15T14:20:55Z</time>
      </trkpt>
      <trkpt lat="44.12476" lon="7.32963">
        <ele>2070.82</ele>
        <time>2012-08-15T14:21:13Z</time>
      </trkpt>
      <trkpt lat="44.12467" lon="7.3296">
        <ele>2068.89</ele>
        <time>2012-08-15T14:21:28Z</time>
      </trkpt>
      <trkpt lat="44.12464" lon="7.32956">
        <ele>2067.45</ele>
        <time>2012-08-15T14:21:34Z</time>
      </trkpt>
      <trkpt lat="44.12462" lon="7.32954">
        <ele>2066.01</ele>
        <time>2012-08-15T14:21:47Z</time>
      </trkpt>
      <trkpt lat="44.12459" lon="7.32948">
        <ele>2065.53</ele>
        <time>2012-08-15T14:22:00Z</time>
      </trkpt>
      <trkpt lat="44.12458" lon="7.32948">
        <ele>2064.09</ele>
        <time>2012-08-15T14:22:18Z</time>
      </trkpt>
      <trkpt lat="44.12454" lon="7.32942">
        <ele>2063.61</ele>
        <time>2012-08-15T14:22:36Z</time>
      </trkpt>
      <trkpt lat="44.12446" lon="7.32934">
        <ele>2063.13</ele>
        <time>2012-08-15T14:22:52Z</time>
      </trkpt>
      <trkpt lat="44.12446" lon="7.32934">
        <ele>2062.65</ele>
        <time>2012-08-15T14:23:21Z</time>
      </trkpt>
      <trkpt lat="44.12446" lon="7.32934">
        <ele>2062.65</ele>
        <time>2012-08-15T14:23:51Z</time>
      </trkpt>
      <trkpt lat="44.12444" lon="7.32933">
        <ele>2062.65</ele>
        <time>2012-08-15T14:24:10Z</time>
      </trkpt>
      <trkpt lat="44.12439" lon="7.32929">
        <ele>2062.65</ele>
        <time>2012-08-15T14:24:23Z</time>
      </trkpt>
      <trkpt lat="44.12438" lon="7.32926">
        <ele>2062.17</ele>
        <time>2012-08-15T14:24:39Z</time>
      </trkpt>
      <trkpt lat="44.12434" lon="7.3292">
        <ele>2061.68</ele>
        <time>2012-08-15T14:24:52Z</time>
      </trkpt>
      <trkpt lat="44.12434" lon="7.32919">
        <ele>2061.68</ele>
        <time>2012-08-15T14:25:12Z</time>
      </trkpt>
      <trkpt lat="44.12433" lon="7.32919">
        <ele>2061.68</ele>
        <time>2012-08-15T14:25:48Z</time>
      </trkpt>
      <trkpt lat="44.12433" lon="7.3292">
        <ele>2061.68</ele>
        <time>2012-08-15T14:26:15Z</time>
      </trkpt>
      <trkpt lat="44.12431" lon="7.32916">
        <ele>2061.68</ele>
        <time>2012-08-15T14:26:36Z</time>
      </trkpt>
      <trkpt lat="44.12426" lon="7.32912">
        <ele>2061.2</ele>
        <time>2012-08-15T14:26:52Z</time>
      </trkpt>
      <trkpt lat="44.12424" lon="7.3291">
        <ele>2061.2</ele>
        <time>2012-08-15T14:27:05Z</time>
      </trkpt>
      <trkpt lat="44.1242" lon="7.3291">
        <ele>2060.72</ele>
        <time>2012-08-15T14:27:21Z</time>
      </trkpt>
      <trkpt lat="44.1242" lon="7.3291">
        <ele>2060.72</ele>
        <time>2012-08-15T14:27:57Z</time>
      </trkpt>
      <trkpt lat="44.1242" lon="7.3291">
        <ele>2060.72</ele>
        <time>2012-08-15T14:28:21Z</time>
      </trkpt>
      <trkpt lat="44.1242" lon="7.3291">
        <ele>2060.72</ele>
        <time>2012-08-15T14:28:50Z</time>
      </trkpt>
      <trkpt lat="44.1242" lon="7.3291">
        <ele>2060.72</ele>
        <time>2012-08-15T14:29:08Z</time>
      </trkpt>
      <trkpt lat="44.12419" lon="7.32909">
        <ele>2059.28</ele>
        <time>2012-08-15T14:29:29Z</time>
      </trkpt>
      <trkpt lat="44.12419" lon="7.32909">
        <ele>2058.8</ele>
        <time>2012-08-15T14:29:49Z</time>
      </trkpt>
      <trkpt lat="44.12413" lon="7.32912">
        <ele>2057.84</ele>
        <time>2012-08-15T14:30:02Z</time>
      </trkpt>
      <trkpt lat="44.12405" lon="7.32907">
        <ele>2055.44</ele>
        <time>2012-08-15T14:30:16Z</time>
      </trkpt>
      <trkpt lat="44.12395" lon="7.32908">
        <ele>2053.99</ele>
        <time>2012-08-15T14:30:28Z</time>
      </trkpt>
      <trkpt lat="44.12384" lon="7.32904">
        <ele>2052.07</ele>
        <time>2012-08-15T14:30:42Z</time>
      </trkpt>
      <trkpt lat="44.12379" lon="7.32901">
        <ele>2049.67</ele>
        <time>2012-08-15T14:30:57Z</time>
      </trkpt>
      <trkpt lat="44.12379" lon="7.32901">
        <ele>2048.23</ele>
        <time>2012-08-15T14:31:13Z</time>
      </trkpt>
      <trkpt lat="44.12378" lon="7.32915">
        <ele>2045.82</ele>
        <time>2012-08-15T14:31:26Z</time>
      </trkpt>
      <trkpt lat="44.12383" lon="7.32929">
        <ele>2043.42</ele>
        <time>2012-08-15T14:31:42Z</time>
      </trkpt>
      <trkpt lat="44.12389" lon="7.32943">
        <ele>2040.54</ele>
        <time>2012-08-15T14:31:58Z</time>
      </trkpt>
      <trkpt lat="44.12391" lon="7.32955">
        <ele>2039.09</ele>
        <time>2012-08-15T14:32:12Z</time>
      </trkpt>
      <trkpt lat="44.12397" lon="7.3297">
        <ele>2036.69</ele>
        <time>2012-08-15T14:32:26Z</time>
      </trkpt>
      <trkpt lat="44.12396" lon="7.32983">
        <ele>2034.77</ele>
        <time>2012-08-15T14:32:41Z</time>
      </trkpt>
      <trkpt lat="44.12387" lon="7.32983">
        <ele>2031.88</ele>
        <time>2012-08-15T14:32:54Z</time>
      </trkpt>
      <trkpt lat="44.12379" lon="7.32986">
        <ele>2029.48</ele>
        <time>2012-08-15T14:33:09Z</time>
      </trkpt>
      <trkpt lat="44.12375" lon="7.32991">
        <ele>2027.08</ele>
        <time>2012-08-15T14:33:23Z</time>
      </trkpt>
      <trkpt lat="44.12373" lon="7.32993">
        <ele>2026.12</ele>
        <time>2012-08-15T14:33:40Z</time>
      </trkpt>
      <trkpt lat="44.12367" lon="7.32995">
        <ele>2025.64</ele>
        <time>2012-08-15T14:33:46Z</time>
      </trkpt>
      <trkpt lat="44.12355" lon="7.33006">
        <ele>2023.71</ele>
        <time>2012-08-15T14:34:02Z</time>
      </trkpt>
      <trkpt lat="44.12347" lon="7.33017">
        <ele>2022.75</ele>
        <time>2012-08-15T14:34:13Z</time>
      </trkpt>
      <trkpt lat="44.1233" lon="7.33021">
        <ele>2019.39</ele>
        <time>2012-08-15T14:34:29Z</time>
      </trkpt>
      <trkpt lat="44.12316" lon="7.33024">
        <ele>2017.94</ele>
        <time>2012-08-15T14:34:43Z</time>
      </trkpt>
      <trkpt lat="44.1231" lon="7.33024">
        <ele>2016.5</ele>
        <time>2012-08-15T14:34:48Z</time>
      </trkpt>
      <trkpt lat="44.12305" lon="7.33022">
        <ele>2016.02</ele>
        <time>2012-08-15T14:34:53Z</time>
      </trkpt>
      <trkpt lat="44.123" lon="7.33021">
        <ele>2015.06</ele>
        <time>2012-08-15T14:34:57Z</time>
      </trkpt>
      <trkpt lat="44.12283" lon="7.33005">
        <ele>2013.62</ele>
        <time>2012-08-15T14:35:14Z</time>
      </trkpt>
      <trkpt lat="44.12269" lon="7.33001">
        <ele>2013.14</ele>
        <time>2012-08-15T14:35:30Z</time>
      </trkpt>
      <trkpt lat="44.12261" lon="7.33004">
        <ele>2011.7</ele>
        <time>2012-08-15T14:35:43Z</time>
      </trkpt>
      <trkpt lat="44.12256" lon="7.33013">
        <ele>2008.81</ele>
        <time>2012-08-15T14:35:58Z</time>
      </trkpt>
      <trkpt lat="44.12249" lon="7.33013">
        <ele>2005.93</ele>
        <time>2012-08-15T14:36:14Z</time>
      </trkpt>
      <trkpt lat="44.12243" lon="7.33027">
        <ele>2003.04</ele>
        <time>2012-08-15T14:36:30Z</time>
      </trkpt>
      <trkpt lat="44.12234" lon="7.33032">
        <ele>2001.6</ele>
        <time>2012-08-15T14:36:41Z</time>
      </trkpt>
      <trkpt lat="44.12217" lon="7.33047">
        <ele>1999.2</ele>
        <time>2012-08-15T14:36:59Z</time>
      </trkpt>
      <trkpt lat="44.122" lon="7.33057">
        <ele>1998.24</ele>
        <time>2012-08-15T14:37:16Z</time>
      </trkpt>
      <trkpt lat="44.12193" lon="7.33059">
        <ele>1997.28</ele>
        <time>2012-08-15T14:37:23Z</time>
      </trkpt>
      <trkpt lat="44.12176" lon="7.33059">
        <ele>1994.87</ele>
        <time>2012-08-15T14:37:42Z</time>
      </trkpt>
      <trkpt lat="44.12166" lon="7.33059">
        <ele>1992.47</ele>
        <time>2012-08-15T14:37:56Z</time>
      </trkpt>
      <trkpt lat="44.12156" lon="7.3307">
        <ele>1990.07</ele>
        <time>2012-08-15T14:38:12Z</time>
      </trkpt>
      <trkpt lat="44.1215" lon="7.33081">
        <ele>1986.7</ele>
        <time>2012-08-15T14:38:26Z</time>
      </trkpt>
      <trkpt lat="44.1215" lon="7.33092">
        <ele>1984.78</ele>
        <time>2012-08-15T14:38:38Z</time>
      </trkpt>
      <trkpt lat="44.12149" lon="7.33093">
        <ele>1984.78</ele>
        <time>2012-08-15T14:38:39Z</time>
      </trkpt>
      <trkpt lat="44.12142" lon="7.33105">
        <ele>1982.86</ele>
        <time>2012-08-15T14:38:49Z</time>
      </trkpt>
      <trkpt lat="44.12124" lon="7.33109">
        <ele>1982.38</ele>
        <time>2012-08-15T14:39:06Z</time>
      </trkpt>
      <trkpt lat="44.12122" lon="7.3311">
        <ele>1982.38</ele>
        <time>2012-08-15T14:39:09Z</time>
      </trkpt>
      <trkpt lat="44.12114" lon="7.33112">
        <ele>1981.9</ele>
        <time>2012-08-15T14:39:18Z</time>
      </trkpt>
      <trkpt lat="44.12102" lon="7.33114">
        <ele>1979.97</ele>
        <time>2012-08-15T14:39:32Z</time>
      </trkpt>
      <trkpt lat="44.12098" lon="7.33104">
        <ele>1978.05</ele>
        <time>2012-08-15T14:39:45Z</time>
      </trkpt>
      <trkpt lat="44.12096" lon="7.33097">
        <ele>1975.17</ele>
        <time>2012-08-15T14:39:59Z</time>
      </trkpt>
      <trkpt lat="44.12088" lon="7.33095">
        <ele>1971.8</ele>
        <time>2012-08-15T14:40:13Z</time>
      </trkpt>
      <trkpt lat="44.12085" lon="7.33089">
        <ele>1968.92</ele>
        <time>2012-08-15T14:40:27Z</time>
      </trkpt>
      <trkpt lat="44.12081" lon="7.33085">
        <ele>1966.99</ele>
        <time>2012-08-15T14:40:41Z</time>
      </trkpt>
      <trkpt lat="44.12073" lon="7.33082">
        <ele>1964.59</ele>
        <time>2012-08-15T14:40:54Z</time>
      </trkpt>
      <trkpt lat="44.12065" lon="7.33082">
        <ele>1962.67</ele>
        <time>2012-08-15T14:41:02Z</time>
      </trkpt>
      <trkpt lat="44.12063" lon="7.33075">
        <ele>1959.3</ele>
        <time>2012-08-15T14:41:15Z</time>
      </trkpt>
      <trkpt lat="44.12056" lon="7.3307">
        <ele>1956.42</ele>
        <time>2012-08-15T14:41:30Z</time>
      </trkpt>
      <trkpt lat="44.12047" lon="7.33067">
        <ele>1954.02</ele>
        <time>2012-08-15T14:41:43Z</time>
      </trkpt>
      <trkpt lat="44.12038" lon="7.33063">
        <ele>1951.13</ele>
        <time>2012-08-15T14:41:58Z</time>
      </trkpt>
      <trkpt lat="44.12034" lon="7.33054">
        <ele>1948.25</ele>
        <time>2012-08-15T14:42:11Z</time>
      </trkpt>
      <trkpt lat="44.12019" lon="7.33058">
        <ele>1946.33</ele>
        <time>2012-08-15T14:42:27Z</time>
      </trkpt>
      <trkpt lat="44.12016" lon="7.33057">
        <ele>1945.36</ele>
        <time>2012-08-15T14:42:43Z</time>
      </trkpt>
      <trkpt lat="44.12015" lon="7.33054">
        <ele>1945.36</ele>
        <time>2012-08-15T14:42:45Z</time>
      </trkpt>
      <trkpt lat="44.1201" lon="7.33026">
        <ele>1944.4</ele>
        <time>2012-08-15T14:43:02Z</time>
      </trkpt>
      <trkpt lat="44.12006" lon="7.33023">
        <ele>1943.92</ele>
        <time>2012-08-15T14:43:08Z</time>
      </trkpt>
      <trkpt lat="44.12002" lon="7.33019">
        <ele>1943.44</ele>
        <time>2012-08-15T14:43:13Z</time>
      </trkpt>
      <trkpt lat="44.12" lon="7.33013">
        <ele>1943.44</ele>
        <time>2012-08-15T14:43:17Z</time>
      </trkpt>
      <trkpt lat="44.11989" lon="7.33002">
        <ele>1942.48</ele>
        <time>2012-08-15T14:43:33Z</time>
      </trkpt>
      <trkpt lat="44.11985" lon="7.32994">
        <ele>1942.48</ele>
        <time>2012-08-15T14:43:47Z</time>
      </trkpt>
      <trkpt lat="44.11978" lon="7.32987">
        <ele>1940.56</ele>
        <time>2012-08-15T14:44:01Z</time>
      </trkpt>
      <trkpt lat="44.11973" lon="7.32984">
        <ele>1938.16</ele>
        <time>2012-08-15T14:44:13Z</time>
      </trkpt>
      <trkpt lat="44.11964" lon="7.32972">
        <ele>1935.75</ele>
        <time>2012-08-15T14:44:29Z</time>
      </trkpt>
      <trkpt lat="44.11957" lon="7.32965">
        <ele>1934.79</ele>
        <time>2012-08-15T14:44:43Z</time>
      </trkpt>
      <trkpt lat="44.11953" lon="7.3295">
        <ele>1933.35</ele>
        <time>2012-08-15T14:44:56Z</time>
      </trkpt>
      <trkpt lat="44.11945" lon="7.32938">
        <ele>1932.39</ele>
        <time>2012-08-15T14:45:12Z</time>
      </trkpt>
      <trkpt lat="44.11944" lon="7.32938">
        <ele>1931.91</ele>
        <time>2012-08-15T14:45:26Z</time>
      </trkpt>
      <trkpt lat="44.11941" lon="7.32938">
        <ele>1930.46</ele>
        <time>2012-08-15T14:45:39Z</time>
      </trkpt>
      <trkpt lat="44.11926" lon="7.32933">
        <ele>1930.46</ele>
        <time>2012-08-15T14:45:54Z</time>
      </trkpt>
      <trkpt lat="44.11914" lon="7.32924">
        <ele>1930.46</ele>
        <time>2012-08-15T14:46:10Z</time>
      </trkpt>
      <trkpt lat="44.11905" lon="7.32916">
        <ele>1929.98</ele>
        <time>2012-08-15T14:46:23Z</time>
      </trkpt>
      <trkpt lat="44.11898" lon="7.32912">
        <ele>1929.98</ele>
        <time>2012-08-15T14:46:36Z</time>
      </trkpt>
      <trkpt lat="44.11895" lon="7.32906">
        <ele>1929.98</ele>
        <time>2012-08-15T14:46:47Z</time>
      </trkpt>
      <trkpt lat="44.11895" lon="7.32904">
        <ele>1929.98</ele>
        <time>2012-08-15T14:47:00Z</time>
      </trkpt>
      <trkpt lat="44.11894" lon="7.32903">
        <ele>1929.98</ele>
        <time>2012-08-15T14:47:15Z</time>
      </trkpt>
      <trkpt lat="44.11881" lon="7.32895">
        <ele>1927.58</ele>
        <time>2012-08-15T14:47:30Z</time>
      </trkpt>
      <trkpt lat="44.11867" lon="7.32893">
        <ele>1926.62</ele>
        <time>2012-08-15T14:47:43Z</time>
      </trkpt>
      <trkpt lat="44.11858" lon="7.32887">
        <ele>1924.7</ele>
        <time>2012-08-15T14:47:57Z</time>
      </trkpt>
      <trkpt lat="44.11847" lon="7.32878">
        <ele>1922.29</ele>
        <time>2012-08-15T14:48:11Z</time>
      </trkpt>
      <trkpt lat="44.11838" lon="7.32876">
        <ele>1920.85</ele>
        <time>2012-08-15T14:48:27Z</time>
      </trkpt>
      <trkpt lat="44.11832" lon="7.32878">
        <ele>1918.93</ele>
        <time>2012-08-15T14:48:41Z</time>
      </trkpt>
      <trkpt lat="44.11823" lon="7.32878">
        <ele>1917.01</ele>
        <time>2012-08-15T14:48:55Z</time>
      </trkpt>
      <trkpt lat="44.11814" lon="7.32873">
        <ele>1915.08</ele>
        <time>2012-08-15T14:49:10Z</time>
      </trkpt>
      <trkpt lat="44.11804" lon="7.32868">
        <ele>1913.16</ele>
        <time>2012-08-15T14:49:25Z</time>
      </trkpt>
      <trkpt lat="44.11794" lon="7.3286">
        <ele>1912.2</ele>
        <time>2012-08-15T14:49:38Z</time>
      </trkpt>
      <trkpt lat="44.11789" lon="7.32854">
        <ele>1910.28</ele>
        <time>2012-08-15T14:49:49Z</time>
      </trkpt>
      <trkpt lat="44.1178" lon="7.32849">
        <ele>1908.83</ele>
        <time>2012-08-15T14:50:03Z</time>
      </trkpt>
      <trkpt lat="44.1178" lon="7.32849">
        <ele>1908.35</ele>
        <time>2012-08-15T14:50:16Z</time>
      </trkpt>
      <trkpt lat="44.11776" lon="7.32843">
        <ele>1906.91</ele>
        <time>2012-08-15T14:50:32Z</time>
      </trkpt>
      <trkpt lat="44.11764" lon="7.32832">
        <ele>1904.51</ele>
        <time>2012-08-15T14:50:47Z</time>
      </trkpt>
      <trkpt lat="44.1176" lon="7.32826">
        <ele>1902.59</ele>
        <time>2012-08-15T14:51:02Z</time>
      </trkpt>
      <trkpt lat="44.11756" lon="7.32822">
        <ele>1900.66</ele>
        <time>2012-08-15T14:51:17Z</time>
      </trkpt>
      <trkpt lat="44.11748" lon="7.32815">
        <ele>1900.18</ele>
        <time>2012-08-15T14:51:25Z</time>
      </trkpt>
      <trkpt lat="44.11737" lon="7.3281">
        <ele>1898.74</ele>
        <time>2012-08-15T14:51:39Z</time>
      </trkpt>
      <trkpt lat="44.11728" lon="7.32807">
        <ele>1896.82</ele>
        <time>2012-08-15T14:51:51Z</time>
      </trkpt>
      <trkpt lat="44.11721" lon="7.32792">
        <ele>1895.38</ele>
        <time>2012-08-15T14:52:06Z</time>
      </trkpt>
      <trkpt lat="44.11715" lon="7.32778">
        <ele>1893.93</ele>
        <time>2012-08-15T14:52:19Z</time>
      </trkpt>
      <trkpt lat="44.11707" lon="7.32768">
        <ele>1892.01</ele>
        <time>2012-08-15T14:52:33Z</time>
      </trkpt>
      <trkpt lat="44.11705" lon="7.32767">
        <ele>1892.49</ele>
        <time>2012-08-15T14:52:35Z</time>
      </trkpt>
      <trkpt lat="44.11702" lon="7.32763">
        <ele>1891.53</ele>
        <time>2012-08-15T14:52:41Z</time>
      </trkpt>
      <trkpt lat="44.11691" lon="7.32756">
        <ele>1891.05</ele>
        <time>2012-08-15T14:52:54Z</time>
      </trkpt>
      <trkpt lat="44.1168" lon="7.32749">
        <ele>1889.13</ele>
        <time>2012-08-15T14:53:08Z</time>
      </trkpt>
      <trkpt lat="44.11675" lon="7.32739">
        <ele>1888.65</ele>
        <time>2012-08-15T14:53:16Z</time>
      </trkpt>
      <trkpt lat="44.11662" lon="7.32739">
        <ele>1888.17</ele>
        <time>2012-08-15T14:53:27Z</time>
      </trkpt>
      <trkpt lat="44.11645" lon="7.32732">
        <ele>1886.72</ele>
        <time>2012-08-15T14:53:47Z</time>
      </trkpt>
      <trkpt lat="44.11642" lon="7.32729">
        <ele>1886.72</ele>
        <time>2012-08-15T14:53:51Z</time>
      </trkpt>
      <trkpt lat="44.11639" lon="7.32721">
        <ele>1886.24</ele>
        <time>2012-08-15T14:53:57Z</time>
      </trkpt>
      <trkpt lat="44.11629" lon="7.32702">
        <ele>1884.32</ele>
        <time>2012-08-15T14:54:14Z</time>
      </trkpt>
      <trkpt lat="44.11629" lon="7.327">
        <ele>1883.84</ele>
        <time>2012-08-15T14:54:16Z</time>
      </trkpt>
      <trkpt lat="44.11626" lon="7.3269">
        <ele>1883.36</ele>
        <time>2012-08-15T14:54:23Z</time>
      </trkpt>
      <trkpt lat="44.1162" lon="7.32678">
        <ele>1882.4</ele>
        <time>2012-08-15T14:54:36Z</time>
      </trkpt>
      <trkpt lat="44.11617" lon="7.32673">
        <ele>1881.92</ele>
        <time>2012-08-15T14:54:42Z</time>
      </trkpt>
      <trkpt lat="44.11608" lon="7.32664">
        <ele>1881.44</ele>
        <time>2012-08-15T14:54:54Z</time>
      </trkpt>
      <trkpt lat="44.11603" lon="7.32654">
        <ele>1880.48</ele>
        <time>2012-08-15T14:55:03Z</time>
      </trkpt>
      <trkpt lat="44.11595" lon="7.32639">
        <ele>1878.55</ele>
        <time>2012-08-15T14:55:18Z</time>
      </trkpt>
      <trkpt lat="44.11595" lon="7.32633">
        <ele>1878.07</ele>
        <time>2012-08-15T14:55:22Z</time>
      </trkpt>
      <trkpt lat="44.11594" lon="7.32611">
        <ele>1875.67</ele>
        <time>2012-08-15T14:55:36Z</time>
      </trkpt>
      <trkpt lat="44.11594" lon="7.32603">
        <ele>1874.71</ele>
        <time>2012-08-15T14:55:48Z</time>
      </trkpt>
      <trkpt lat="44.11592" lon="7.32589">
        <ele>1872.79</ele>
        <time>2012-08-15T14:56:02Z</time>
      </trkpt>
      <trkpt lat="44.11592" lon="7.32578">
        <ele>1872.79</ele>
        <time>2012-08-15T14:56:14Z</time>
      </trkpt>
      <trkpt lat="44.11586" lon="7.32568">
        <ele>1872.79</ele>
        <time>2012-08-15T14:56:28Z</time>
      </trkpt>
      <trkpt lat="44.11584" lon="7.32565">
        <ele>1872.3</ele>
        <time>2012-08-15T14:56:32Z</time>
      </trkpt>
      <trkpt lat="44.11581" lon="7.32561">
        <ele>1872.3</ele>
        <time>2012-08-15T14:56:35Z</time>
      </trkpt>
      <trkpt lat="44.11574" lon="7.32549">
        <ele>1871.34</ele>
        <time>2012-08-15T14:56:48Z</time>
      </trkpt>
      <trkpt lat="44.1157" lon="7.32536">
        <ele>1869.9</ele>
        <time>2012-08-15T14:56:59Z</time>
      </trkpt>
      <trkpt lat="44.11567" lon="7.3253">
        <ele>1869.42</ele>
        <time>2012-08-15T14:57:13Z</time>
      </trkpt>
      <trkpt lat="44.11557" lon="7.32511">
        <ele>1869.42</ele>
        <time>2012-08-15T14:57:27Z</time>
      </trkpt>
      <trkpt lat="44.11555" lon="7.32509">
        <ele>1869.42</ele>
        <time>2012-08-15T14:57:30Z</time>
      </trkpt>
      <trkpt lat="44.11545" lon="7.32495">
        <ele>1869.42</ele>
        <time>2012-08-15T14:57:42Z</time>
      </trkpt>
      <trkpt lat="44.11542" lon="7.32486">
        <ele>1868.46</ele>
        <time>2012-08-15T14:57:48Z</time>
      </trkpt>
      <trkpt lat="44.11528" lon="7.32475">
        <ele>1867.02</ele>
        <time>2012-08-15T14:58:06Z</time>
      </trkpt>
      <trkpt lat="44.11527" lon="7.32474">
        <ele>1867.02</ele>
        <time>2012-08-15T14:58:07Z</time>
      </trkpt>
      <trkpt lat="44.11517" lon="7.32459">
        <ele>1866.54</ele>
        <time>2012-08-15T14:58:23Z</time>
      </trkpt>
      <trkpt lat="44.11516" lon="7.32456">
        <ele>1866.54</ele>
        <time>2012-08-15T14:58:26Z</time>
      </trkpt>
      <trkpt lat="44.11506" lon="7.32448">
        <ele>1866.06</ele>
        <time>2012-08-15T14:58:36Z</time>
      </trkpt>
      <trkpt lat="44.11493" lon="7.32433">
        <ele>1865.58</ele>
        <time>2012-08-15T14:58:49Z</time>
      </trkpt>
      <trkpt lat="44.11479" lon="7.32414">
        <ele>1864.61</ele>
        <time>2012-08-15T14:59:07Z</time>
      </trkpt>
      <trkpt lat="44.11472" lon="7.32398">
        <ele>1863.65</ele>
        <time>2012-08-15T14:59:21Z</time>
      </trkpt>
      <trkpt lat="44.11472" lon="7.32397">
        <ele>1863.65</ele>
        <time>2012-08-15T14:59:22Z</time>
      </trkpt>
      <trkpt lat="44.11466" lon="7.32382">
        <ele>1863.17</ele>
        <time>2012-08-15T14:59:39Z</time>
      </trkpt>
      <trkpt lat="44.11462" lon="7.32373">
        <ele>1862.69</ele>
        <time>2012-08-15T14:59:49Z</time>
      </trkpt>
      <trkpt lat="44.11458" lon="7.32365">
        <ele>1862.21</ele>
        <time>2012-08-15T14:59:56Z</time>
      </trkpt>
      <trkpt lat="44.11451" lon="7.32352">
        <ele>1860.77</ele>
        <time>2012-08-15T15:00:09Z</time>
      </trkpt>
      <trkpt lat="44.11441" lon="7.32341">
        <ele>1858.37</ele>
        <time>2012-08-15T15:00:22Z</time>
      </trkpt>
      <trkpt lat="44.11433" lon="7.32329">
        <ele>1856.44</ele>
        <time>2012-08-15T15:00:35Z</time>
      </trkpt>
      <trkpt lat="44.11424" lon="7.32327">
        <ele>1854.52</ele>
        <time>2012-08-15T15:00:48Z</time>
      </trkpt>
      <trkpt lat="44.11419" lon="7.32319">
        <ele>1854.04</ele>
        <time>2012-08-15T15:01:04Z</time>
      </trkpt>
      <trkpt lat="44.11419" lon="7.32302">
        <ele>1853.56</ele>
        <time>2012-08-15T15:01:17Z</time>
      </trkpt>
      <trkpt lat="44.11416" lon="7.32295">
        <ele>1853.08</ele>
        <time>2012-08-15T15:01:22Z</time>
      </trkpt>
      <trkpt lat="44.11405" lon="7.32275">
        <ele>1852.6</ele>
        <time>2012-08-15T15:01:39Z</time>
      </trkpt>
      <trkpt lat="44.11396" lon="7.32257">
        <ele>1852.6</ele>
        <time>2012-08-15T15:01:54Z</time>
      </trkpt>
      <trkpt lat="44.11388" lon="7.32238">
        <ele>1852.6</ele>
        <time>2012-08-15T15:02:09Z</time>
      </trkpt>
      <trkpt lat="44.11374" lon="7.32227">
        <ele>1852.12</ele>
        <time>2012-08-15T15:02:25Z</time>
      </trkpt>
      <trkpt lat="44.11367" lon="7.32218">
        <ele>1851.16</ele>
        <time>2012-08-15T15:02:39Z</time>
      </trkpt>
      <trkpt lat="44.11356" lon="7.32207">
        <ele>1850.68</ele>
        <time>2012-08-15T15:02:53Z</time>
      </trkpt>
      <trkpt lat="44.11344" lon="7.32192">
        <ele>1849.71</ele>
        <time>2012-08-15T15:03:08Z</time>
      </trkpt>
      <trkpt lat="44.11333" lon="7.32182">
        <ele>1849.23</ele>
        <time>2012-08-15T15:03:22Z</time>
      </trkpt>
      <trkpt lat="44.11324" lon="7.32171">
        <ele>1848.75</ele>
        <time>2012-08-15T15:03:34Z</time>
      </trkpt>
      <trkpt lat="44.11309" lon="7.32169">
        <ele>1847.79</ele>
        <time>2012-08-15T15:03:51Z</time>
      </trkpt>
      <trkpt lat="44.11299" lon="7.32168">
        <ele>1846.83</ele>
        <time>2012-08-15T15:04:06Z</time>
      </trkpt>
      <trkpt lat="44.11296" lon="7.32167">
        <ele>1843.95</ele>
        <time>2012-08-15T15:04:21Z</time>
      </trkpt>
      <trkpt lat="44.11296" lon="7.32167">
        <ele>1842.02</ele>
        <time>2012-08-15T15:04:35Z</time>
      </trkpt>
      <trkpt lat="44.11296" lon="7.32167">
        <ele>1839.14</ele>
        <time>2012-08-15T15:04:50Z</time>
      </trkpt>
      <trkpt lat="44.11289" lon="7.32165">
        <ele>1836.26</ele>
        <time>2012-08-15T15:05:04Z</time>
      </trkpt>
      <trkpt lat="44.1128" lon="7.32176">
        <ele>1833.37</ele>
        <time>2012-08-15T15:05:17Z</time>
      </trkpt>
      <trkpt lat="44.11269" lon="7.32177">
        <ele>1830.97</ele>
        <time>2012-08-15T15:05:30Z</time>
      </trkpt>
      <trkpt lat="44.11267" lon="7.3219">
        <ele>1829.05</ele>
        <time>2012-08-15T15:05:44Z</time>
      </trkpt>
      <trkpt lat="44.11267" lon="7.3219">
        <ele>1826.16</ele>
        <time>2012-08-15T15:05:57Z</time>
      </trkpt>
      <trkpt lat="44.11263" lon="7.32197">
        <ele>1823.76</ele>
        <time>2012-08-15T15:06:11Z</time>
      </trkpt>
      <trkpt lat="44.11263" lon="7.32196">
        <ele>1822.32</ele>
        <time>2012-08-15T15:06:24Z</time>
      </trkpt>
      <trkpt lat="44.11254" lon="7.32191">
        <ele>1819.91</ele>
        <time>2012-08-15T15:06:40Z</time>
      </trkpt>
      <trkpt lat="44.11254" lon="7.32191">
        <ele>1817.03</ele>
        <time>2012-08-15T15:06:54Z</time>
      </trkpt>
      <trkpt lat="44.11254" lon="7.32189">
        <ele>1814.63</ele>
        <time>2012-08-15T15:07:10Z</time>
      </trkpt>
      <trkpt lat="44.11241" lon="7.32183">
        <ele>1812.22</ele>
        <time>2012-08-15T15:07:24Z</time>
      </trkpt>
      <trkpt lat="44.1123" lon="7.32186">
        <ele>1810.78</ele>
        <time>2012-08-15T15:07:37Z</time>
      </trkpt>
      <trkpt lat="44.11222" lon="7.32186">
        <ele>1807.9</ele>
        <time>2012-08-15T15:07:53Z</time>
      </trkpt>
      <trkpt lat="44.11222" lon="7.32186">
        <ele>1805.49</ele>
        <time>2012-08-15T15:08:07Z</time>
      </trkpt>
      <trkpt lat="44.11222" lon="7.32186">
        <ele>1803.57</ele>
        <time>2012-08-15T15:08:21Z</time>
      </trkpt>
      <trkpt lat="44.11222" lon="7.32184">
        <ele>1800.21</ele>
        <time>2012-08-15T15:08:36Z</time>
      </trkpt>
      <trkpt lat="44.11222" lon="7.32184">
        <ele>1797.8</ele>
        <time>2012-08-15T15:08:54Z</time>
      </trkpt>
      <trkpt lat="44.11222" lon="7.32184">
        <ele>1794.92</ele>
        <time>2012-08-15T15:09:11Z</time>
      </trkpt>
      <trkpt lat="44.11221" lon="7.32174">
        <ele>1792.52</ele>
        <time>2012-08-15T15:09:23Z</time>
      </trkpt>
      <trkpt lat="44.11211" lon="7.3214">
        <ele>1790.11</ele>
        <time>2012-08-15T15:09:37Z</time>
      </trkpt>
      <trkpt lat="44.11198" lon="7.32112">
        <ele>1788.67</ele>
        <time>2012-08-15T15:09:51Z</time>
      </trkpt>
      <trkpt lat="44.11187" lon="7.32093">
        <ele>1785.79</ele>
        <time>2012-08-15T15:10:07Z</time>
      </trkpt>
      <trkpt lat="44.11176" lon="7.32085">
        <ele>1783.86</ele>
        <time>2012-08-15T15:10:24Z</time>
      </trkpt>
      <trkpt lat="44.11175" lon="7.32084">
        <ele>1782.42</ele>
        <time>2012-08-15T15:10:40Z</time>
      </trkpt>
      <trkpt lat="44.11166" lon="7.32077">
        <ele>1781.46</ele>
        <time>2012-08-15T15:10:54Z</time>
      </trkpt>
      <trkpt lat="44.11155" lon="7.32071">
        <ele>1781.46</ele>
        <time>2012-08-15T15:11:02Z</time>
      </trkpt>
      <trkpt lat="44.11152" lon="7.32066">
        <ele>1780.98</ele>
        <time>2012-08-15T15:11:06Z</time>
      </trkpt>
      <trkpt lat="44.11146" lon="7.32058">
        <ele>1780.98</ele>
        <time>2012-08-15T15:11:13Z</time>
      </trkpt>
      <trkpt lat="44.11142" lon="7.32046">
        <ele>1780.98</ele>
        <time>2012-08-15T15:11:21Z</time>
      </trkpt>
      <trkpt lat="44.11133" lon="7.32031">
        <ele>1780.98</ele>
        <time>2012-08-15T15:11:36Z</time>
      </trkpt>
      <trkpt lat="44.11127" lon="7.32023">
        <ele>1781.94</ele>
        <time>2012-08-15T15:11:49Z</time>
      </trkpt>
      <trkpt lat="44.11118" lon="7.32022">
        <ele>1781.94</ele>
        <time>2012-08-15T15:12:02Z</time>
      </trkpt>
      <trkpt lat="44.11108" lon="7.32027">
        <ele>1779.54</ele>
        <time>2012-08-15T15:12:17Z</time>
      </trkpt>
      <trkpt lat="44.11101" lon="7.3203">
        <ele>1779.06</ele>
        <time>2012-08-15T15:12:26Z</time>
      </trkpt>
      <trkpt lat="44.11088" lon="7.32033">
        <ele>1778.58</ele>
        <time>2012-08-15T15:12:36Z</time>
      </trkpt>
      <trkpt lat="44.11077" lon="7.32028">
        <ele>1777.13</ele>
        <time>2012-08-15T15:12:53Z</time>
      </trkpt>
      <trkpt lat="44.11065" lon="7.32025">
        <ele>1776.17</ele>
        <time>2012-08-15T15:13:15Z</time>
      </trkpt>
      <trkpt lat="44.11048" lon="7.32011">
        <ele>1775.21</ele>
        <time>2012-08-15T15:13:30Z</time>
      </trkpt>
      <trkpt lat="44.11043" lon="7.32008">
        <ele>1774.25</ele>
        <time>2012-08-15T15:13:35Z</time>
      </trkpt>
      <trkpt lat="44.11027" lon="7.31998">
        <ele>1773.29</ele>
        <time>2012-08-15T15:13:52Z</time>
      </trkpt>
      <trkpt lat="44.1101" lon="7.31977">
        <ele>1772.81</ele>
        <time>2012-08-15T15:14:12Z</time>
      </trkpt>
      <trkpt lat="44.11001" lon="7.31967">
        <ele>1772.81</ele>
        <time>2012-08-15T15:14:27Z</time>
      </trkpt>
      <trkpt lat="44.10994" lon="7.31962">
        <ele>1772.81</ele>
        <time>2012-08-15T15:14:42Z</time>
      </trkpt>
      <trkpt lat="44.10979" lon="7.31949">
        <ele>1771.37</ele>
        <time>2012-08-15T15:14:57Z</time>
      </trkpt>
      <trkpt lat="44.10977" lon="7.31943">
        <ele>1770.41</ele>
        <time>2012-08-15T15:15:14Z</time>
      </trkpt>
      <trkpt lat="44.10977" lon="7.31943">
        <ele>1769.92</ele>
        <time>2012-08-15T15:15:30Z</time>
      </trkpt>
      <trkpt lat="44.10977" lon="7.31944">
        <ele>1769.44</ele>
        <time>2012-08-15T15:15:58Z</time>
      </trkpt>
      <trkpt lat="44.10976" lon="7.31944">
        <ele>1769.44</ele>
        <time>2012-08-15T15:16:14Z</time>
      </trkpt>
      <trkpt lat="44.10974" lon="7.31937">
        <ele>1769.44</ele>
        <time>2012-08-15T15:16:29Z</time>
      </trkpt>
      <trkpt lat="44.10969" lon="7.31923">
        <ele>1770.41</ele>
        <time>2012-08-15T15:16:42Z</time>
      </trkpt>
      <trkpt lat="44.10959" lon="7.31915">
        <ele>1770.89</ele>
        <time>2012-08-15T15:16:52Z</time>
      </trkpt>
      <trkpt lat="44.10953" lon="7.31896">
        <ele>1771.37</ele>
        <time>2012-08-15T15:17:07Z</time>
      </trkpt>
      <trkpt lat="44.10945" lon="7.31892">
        <ele>1770.41</ele>
        <time>2012-08-15T15:17:21Z</time>
      </trkpt>
      <trkpt lat="44.10933" lon="7.31893">
        <ele>1768</ele>
        <time>2012-08-15T15:17:36Z</time>
      </trkpt>
      <trkpt lat="44.10936" lon="7.31886">
        <ele>1767.52</ele>
        <time>2012-08-15T15:17:51Z</time>
      </trkpt>
      <trkpt lat="44.10936" lon="7.31886">
        <ele>1767.52</ele>
        <time>2012-08-15T15:17:54Z</time>
      </trkpt>
      <trkpt lat="44.10935" lon="7.31885">
        <ele>1766.08</ele>
        <time>2012-08-15T15:18:10Z</time>
      </trkpt>
      <trkpt lat="44.10935" lon="7.31885">
        <ele>1766.08</ele>
        <time>2012-08-15T15:18:38Z</time>
      </trkpt>
      <trkpt lat="44.10935" lon="7.31885">
        <ele>1766.08</ele>
        <time>2012-08-15T15:18:54Z</time>
      </trkpt>
      <trkpt lat="44.10927" lon="7.3189">
        <ele>1766.08</ele>
        <time>2012-08-15T15:19:10Z</time>
      </trkpt>
      <trkpt lat="44.10911" lon="7.319">
        <ele>1764.64</ele>
        <time>2012-08-15T15:19:27Z</time>
      </trkpt>
      <trkpt lat="44.10906" lon="7.319">
        <ele>1764.16</ele>
        <time>2012-08-15T15:19:30Z</time>
      </trkpt>
      <trkpt lat="44.10905" lon="7.31897">
        <ele>1763.68</ele>
        <time>2012-08-15T15:19:32Z</time>
      </trkpt>
      <trkpt lat="44.10894" lon="7.3189">
        <ele>1761.75</ele>
        <time>2012-08-15T15:19:48Z</time>
      </trkpt>
      <trkpt lat="44.10892" lon="7.31891">
        <ele>1761.75</ele>
        <time>2012-08-15T15:19:55Z</time>
      </trkpt>
      <trkpt lat="44.10885" lon="7.31897">
        <ele>1761.75</ele>
        <time>2012-08-15T15:20:02Z</time>
      </trkpt>
      <trkpt lat="44.10874" lon="7.31897">
        <ele>1761.75</ele>
        <time>2012-08-15T15:20:16Z</time>
      </trkpt>
      <trkpt lat="44.10864" lon="7.3189">
        <ele>1760.31</ele>
        <time>2012-08-15T15:20:30Z</time>
      </trkpt>
      <trkpt lat="44.10853" lon="7.3188">
        <ele>1757.91</ele>
        <time>2012-08-15T15:20:46Z</time>
      </trkpt>
      <trkpt lat="44.10838" lon="7.31872">
        <ele>1755.99</ele>
        <time>2012-08-15T15:21:00Z</time>
      </trkpt>
      <trkpt lat="44.10832" lon="7.3186">
        <ele>1753.58</ele>
        <time>2012-08-15T15:21:13Z</time>
      </trkpt>
      <trkpt lat="44.10843" lon="7.31846">
        <ele>1750.7</ele>
        <time>2012-08-15T15:21:27Z</time>
      </trkpt>
      <trkpt lat="44.10844" lon="7.31834">
        <ele>1749.26</ele>
        <time>2012-08-15T15:21:38Z</time>
      </trkpt>
      <trkpt lat="44.10844" lon="7.31833">
        <ele>1748.78</ele>
        <time>2012-08-15T15:21:40Z</time>
      </trkpt>
      <trkpt lat="44.10843" lon="7.31814">
        <ele>1745.89</ele>
        <time>2012-08-15T15:21:55Z</time>
      </trkpt>
      <trkpt lat="44.10843" lon="7.31811">
        <ele>1745.41</ele>
        <time>2012-08-15T15:21:57Z</time>
      </trkpt>
      <trkpt lat="44.10842" lon="7.31809">
        <ele>1744.93</ele>
        <time>2012-08-15T15:21:59Z</time>
      </trkpt>
      <trkpt lat="44.10843" lon="7.31803">
        <ele>1744.45</ele>
        <time>2012-08-15T15:22:03Z</time>
      </trkpt>
      <trkpt lat="44.10844" lon="7.31778">
        <ele>1741.57</ele>
        <time>2012-08-15T15:22:19Z</time>
      </trkpt>
      <trkpt lat="44.10843" lon="7.31754">
        <ele>1738.68</ele>
        <time>2012-08-15T15:22:35Z</time>
      </trkpt>
      <trkpt lat="44.10843" lon="7.31737">
        <ele>1736.76</ele>
        <time>2012-08-15T15:22:49Z</time>
      </trkpt>
      <trkpt lat="44.10845" lon="7.31722">
        <ele>1735.32</ele>
        <time>2012-08-15T15:23:00Z</time>
      </trkpt>
      <trkpt lat="44.10851" lon="7.31706">
        <ele>1733.88</ele>
        <time>2012-08-15T15:23:12Z</time>
      </trkpt>
      <trkpt lat="44.10851" lon="7.31689">
        <ele>1731.95</ele>
        <time>2012-08-15T15:23:26Z</time>
      </trkpt>
      <trkpt lat="44.10851" lon="7.31688">
        <ele>1731.95</ele>
        <time>2012-08-15T15:23:27Z</time>
      </trkpt>
      <trkpt lat="44.10847" lon="7.31666">
        <ele>1729.55</ele>
        <time>2012-08-15T15:23:42Z</time>
      </trkpt>
      <trkpt lat="44.10846" lon="7.31664">
        <ele>1729.07</ele>
        <time>2012-08-15T15:23:43Z</time>
      </trkpt>
      <trkpt lat="44.10844" lon="7.31657">
        <ele>1729.07</ele>
        <time>2012-08-15T15:23:48Z</time>
      </trkpt>
      <trkpt lat="44.10843" lon="7.31648">
        <ele>1728.11</ele>
        <time>2012-08-15T15:23:54Z</time>
      </trkpt>
      <trkpt lat="44.10839" lon="7.3164">
        <ele>1727.63</ele>
        <time>2012-08-15T15:24:00Z</time>
      </trkpt>
      <trkpt lat="44.10828" lon="7.31622">
        <ele>1727.15</ele>
        <time>2012-08-15T15:24:16Z</time>
      </trkpt>
      <trkpt lat="44.10818" lon="7.31611">
        <ele>1727.15</ele>
        <time>2012-08-15T15:24:31Z</time>
      </trkpt>
      <trkpt lat="44.10816" lon="7.31604">
        <ele>1727.15</ele>
        <time>2012-08-15T15:24:35Z</time>
      </trkpt>
      <trkpt lat="44.1081" lon="7.31579">
        <ele>1726.18</ele>
        <time>2012-08-15T15:24:51Z</time>
      </trkpt>
      <trkpt lat="44.10804" lon="7.31558">
        <ele>1724.26</ele>
        <time>2012-08-15T15:25:07Z</time>
      </trkpt>
      <trkpt lat="44.10805" lon="7.31553">
        <ele>1723.78</ele>
        <time>2012-08-15T15:25:11Z</time>
      </trkpt>
      <trkpt lat="44.10806" lon="7.31529">
        <ele>1720.9</ele>
        <time>2012-08-15T15:25:27Z</time>
      </trkpt>
      <trkpt lat="44.10806" lon="7.315">
        <ele>1718.01</ele>
        <time>2012-08-15T15:25:45Z</time>
      </trkpt>
      <trkpt lat="44.10806" lon="7.31499">
        <ele>1718.01</ele>
        <time>2012-08-15T15:25:46Z</time>
      </trkpt>
      <trkpt lat="44.10808" lon="7.31478">
        <ele>1715.61</ele>
        <time>2012-08-15T15:26:01Z</time>
      </trkpt>
      <trkpt lat="44.10809" lon="7.31477">
        <ele>1714.65</ele>
        <time>2012-08-15T15:26:15Z</time>
      </trkpt>
      <trkpt lat="44.10809" lon="7.31477">
        <ele>1714.17</ele>
        <time>2012-08-15T15:26:45Z</time>
      </trkpt>
      <trkpt lat="44.10809" lon="7.31477">
        <ele>1714.17</ele>
        <time>2012-08-15T15:26:58Z</time>
      </trkpt>
      <trkpt lat="44.10809" lon="7.31477">
        <ele>1714.17</ele>
        <time>2012-08-15T15:27:19Z</time>
      </trkpt>
      <trkpt lat="44.10809" lon="7.31469">
        <ele>1714.17</ele>
        <time>2012-08-15T15:27:32Z</time>
      </trkpt>
      <trkpt lat="44.1081" lon="7.31462">
        <ele>1714.17</ele>
        <time>2012-08-15T15:27:36Z</time>
      </trkpt>
      <trkpt lat="44.10807" lon="7.31435">
        <ele>1713.69</ele>
        <time>2012-08-15T15:27:54Z</time>
      </trkpt>
      <trkpt lat="44.10807" lon="7.31412">
        <ele>1712.25</ele>
        <time>2012-08-15T15:28:08Z</time>
      </trkpt>
      <trkpt lat="44.10806" lon="7.31401">
        <ele>1711.76</ele>
        <time>2012-08-15T15:28:14Z</time>
      </trkpt>
      <trkpt lat="44.10806" lon="7.31396">
        <ele>1711.76</ele>
        <time>2012-08-15T15:28:17Z</time>
      </trkpt>
      <trkpt lat="44.10811" lon="7.3138">
        <ele>1711.28</ele>
        <time>2012-08-15T15:28:26Z</time>
      </trkpt>
      <trkpt lat="44.1081" lon="7.31367">
        <ele>1710.8</ele>
        <time>2012-08-15T15:28:33Z</time>
      </trkpt>
      <trkpt lat="44.10812" lon="7.31338">
        <ele>1708.88</ele>
        <time>2012-08-15T15:28:51Z</time>
      </trkpt>
      <trkpt lat="44.10809" lon="7.31315">
        <ele>1707.44</ele>
        <time>2012-08-15T15:29:06Z</time>
      </trkpt>
      <trkpt lat="44.10809" lon="7.31301">
        <ele>1706.48</ele>
        <time>2012-08-15T15:29:15Z</time>
      </trkpt>
      <trkpt lat="44.10803" lon="7.3128">
        <ele>1705.04</ele>
        <time>2012-08-15T15:29:30Z</time>
      </trkpt>
      <trkpt lat="44.10803" lon="7.31266">
        <ele>1704.55</ele>
        <time>2012-08-15T15:29:39Z</time>
      </trkpt>
      <trkpt lat="44.10801" lon="7.31234">
        <ele>1703.11</ele>
        <time>2012-08-15T15:29:56Z</time>
      </trkpt>
      <trkpt lat="44.10797" lon="7.31219">
        <ele>1702.15</ele>
        <time>2012-08-15T15:30:06Z</time>
      </trkpt>
      <trkpt lat="44.10797" lon="7.31212">
        <ele>1700.71</ele>
        <time>2012-08-15T15:30:11Z</time>
      </trkpt>
      <trkpt lat="44.10795" lon="7.31207">
        <ele>1700.23</ele>
        <time>2012-08-15T15:30:15Z</time>
      </trkpt>
      <trkpt lat="44.10794" lon="7.3118">
        <ele>1698.31</ele>
        <time>2012-08-15T15:30:30Z</time>
      </trkpt>
      <trkpt lat="44.10798" lon="7.31163">
        <ele>1695.9</ele>
        <time>2012-08-15T15:30:44Z</time>
      </trkpt>
      <trkpt lat="44.108" lon="7.31143">
        <ele>1693.5</ele>
        <time>2012-08-15T15:30:59Z</time>
      </trkpt>
      <trkpt lat="44.10803" lon="7.31131">
        <ele>1692.06</ele>
        <time>2012-08-15T15:31:12Z</time>
      </trkpt>
      <trkpt lat="44.10803" lon="7.3113">
        <ele>1691.58</ele>
        <time>2012-08-15T15:31:26Z</time>
      </trkpt>
      <trkpt lat="44.10803" lon="7.3113">
        <ele>1691.58</ele>
        <time>2012-08-15T15:31:46Z</time>
      </trkpt>
      <trkpt lat="44.10805" lon="7.31119">
        <ele>1690.62</ele>
        <time>2012-08-15T15:31:54Z</time>
      </trkpt>
      <trkpt lat="44.10809" lon="7.31098">
        <ele>1689.17</ele>
        <time>2012-08-15T15:32:08Z</time>
      </trkpt>
      <trkpt lat="44.10814" lon="7.31073">
        <ele>1687.25</ele>
        <time>2012-08-15T15:32:25Z</time>
      </trkpt>
      <trkpt lat="44.10806" lon="7.31047">
        <ele>1686.29</ele>
        <time>2012-08-15T15:32:42Z</time>
      </trkpt>
      <trkpt lat="44.10805" lon="7.31041">
        <ele>1684.85</ele>
        <time>2012-08-15T15:32:55Z</time>
      </trkpt>
      <trkpt lat="44.10807" lon="7.31026">
        <ele>1683.41</ele>
        <time>2012-08-15T15:33:08Z</time>
      </trkpt>
      <trkpt lat="44.10808" lon="7.31021">
        <ele>1682.93</ele>
        <time>2012-08-15T15:33:13Z</time>
      </trkpt>
      <trkpt lat="44.1081" lon="7.31005">
        <ele>1681.48</ele>
        <time>2012-08-15T15:33:27Z</time>
      </trkpt>
      <trkpt lat="44.10808" lon="7.30994">
        <ele>1680.04</ele>
        <time>2012-08-15T15:33:41Z</time>
      </trkpt>
      <trkpt lat="44.10809" lon="7.30979">
        <ele>1677.16</ele>
        <time>2012-08-15T15:33:56Z</time>
      </trkpt>
      <trkpt lat="44.1081" lon="7.30964">
        <ele>1674.27</ele>
        <time>2012-08-15T15:34:11Z</time>
      </trkpt>
      <trkpt lat="44.10809" lon="7.30962">
        <ele>1673.31</ele>
        <time>2012-08-15T15:34:26Z</time>
      </trkpt>
      <trkpt lat="44.10812" lon="7.30955">
        <ele>1672.83</ele>
        <time>2012-08-15T15:34:47Z</time>
      </trkpt>
      <trkpt lat="44.10813" lon="7.30933">
        <ele>1670.43</ele>
        <time>2012-08-15T15:35:03Z</time>
      </trkpt>
      <trkpt lat="44.10815" lon="7.30919">
        <ele>1668.02</ele>
        <time>2012-08-15T15:35:20Z</time>
      </trkpt>
      <trkpt lat="44.10821" lon="7.3091">
        <ele>1666.58</ele>
        <time>2012-08-15T15:35:33Z</time>
      </trkpt>
      <trkpt lat="44.10828" lon="7.309">
        <ele>1664.66</ele>
        <time>2012-08-15T15:35:43Z</time>
      </trkpt>
      <trkpt lat="44.10831" lon="7.30887">
        <ele>1663.22</ele>
        <time>2012-08-15T15:35:54Z</time>
      </trkpt>
      <trkpt lat="44.10828" lon="7.30869">
        <ele>1661.78</ele>
        <time>2012-08-15T15:36:12Z</time>
      </trkpt>
      <trkpt lat="44.10829" lon="7.30868">
        <ele>1661.78</ele>
        <time>2012-08-15T15:36:20Z</time>
      </trkpt>
      <trkpt lat="44.10832" lon="7.3086">
        <ele>1660.81</ele>
        <time>2012-08-15T15:36:28Z</time>
      </trkpt>
      <trkpt lat="44.10848" lon="7.30855">
        <ele>1658.41</ele>
        <time>2012-08-15T15:36:44Z</time>
      </trkpt>
      <trkpt lat="44.10864" lon="7.30853">
        <ele>1656.01</ele>
        <time>2012-08-15T15:36:59Z</time>
      </trkpt>
      <trkpt lat="44.10877" lon="7.30852">
        <ele>1652.64</ele>
        <time>2012-08-15T15:37:11Z</time>
      </trkpt>
      <trkpt lat="44.10879" lon="7.30852">
        <ele>1649.28</ele>
        <time>2012-08-15T15:37:16Z</time>
      </trkpt>
      <trkpt lat="44.10895" lon="7.30849">
        <ele>1647.36</ele>
        <time>2012-08-15T15:37:31Z</time>
      </trkpt>
      <trkpt lat="44.10896" lon="7.30849">
        <ele>1647.36</ele>
        <time>2012-08-15T15:37:32Z</time>
      </trkpt>
      <trkpt lat="44.10909" lon="7.30847">
        <ele>1645.91</ele>
        <time>2012-08-15T15:37:47Z</time>
      </trkpt>
      <trkpt lat="44.10913" lon="7.30846">
        <ele>1645.43</ele>
        <time>2012-08-15T15:37:51Z</time>
      </trkpt>
      <trkpt lat="44.10932" lon="7.3084">
        <ele>1642.55</ele>
        <time>2012-08-15T15:38:10Z</time>
      </trkpt>
      <trkpt lat="44.10944" lon="7.30825">
        <ele>1639.67</ele>
        <time>2012-08-15T15:38:26Z</time>
      </trkpt>
      <trkpt lat="44.10959" lon="7.30809">
        <ele>1636.78</ele>
        <time>2012-08-15T15:38:44Z</time>
      </trkpt>
      <trkpt lat="44.10962" lon="7.30805">
        <ele>1636.3</ele>
        <time>2012-08-15T15:38:48Z</time>
      </trkpt>
      <trkpt lat="44.1097" lon="7.30793">
        <ele>1634.86</ele>
        <time>2012-08-15T15:38:59Z</time>
      </trkpt>
      <trkpt lat="44.10975" lon="7.30782">
        <ele>1632.94</ele>
        <time>2012-08-15T15:39:08Z</time>
      </trkpt>
      <trkpt lat="44.10987" lon="7.30765">
        <ele>1630.05</ele>
        <time>2012-08-15T15:39:24Z</time>
      </trkpt>
      <trkpt lat="44.10994" lon="7.30751">
        <ele>1628.13</ele>
        <time>2012-08-15T15:39:38Z</time>
      </trkpt>
      <trkpt lat="44.10995" lon="7.3075">
        <ele>1627.65</ele>
        <time>2012-08-15T15:39:39Z</time>
      </trkpt>
      <trkpt lat="44.10985" lon="7.30732">
        <ele>1626.21</ele>
        <time>2012-08-15T15:39:55Z</time>
      </trkpt>
      <trkpt lat="44.10977" lon="7.3071">
        <ele>1624.77</ele>
        <time>2012-08-15T15:40:13Z</time>
      </trkpt>
      <trkpt lat="44.10965" lon="7.30691">
        <ele>1624.28</ele>
        <time>2012-08-15T15:40:30Z</time>
      </trkpt>
      <trkpt lat="44.1096" lon="7.30674">
        <ele>1623.32</ele>
        <time>2012-08-15T15:40:45Z</time>
      </trkpt>
      <trkpt lat="44.1096" lon="7.30675">
        <ele>1623.32</ele>
        <time>2012-08-15T15:41:04Z</time>
      </trkpt>
      <trkpt lat="44.1096" lon="7.30672">
        <ele>1623.32</ele>
        <time>2012-08-15T15:41:18Z</time>
      </trkpt>
      <trkpt lat="44.1096" lon="7.30672">
        <ele>1623.32</ele>
        <time>2012-08-15T15:41:40Z</time>
      </trkpt>
    </trkseg>
  </trk>
</gpx>